GFSSE_925_thetae_000.txt.gz
Theta_e
340 344 345 344 342 340 338 339 334 333 332 334 333 334 334 332 332 332 334 332 331 330 329 331 333 334 337 337 337 335 332 328 327 325 322 321 324 331 331 331 331 327 330
338 344 345 344 344 340 340 340 334 331 331 332 331 330 331 330 330 331 332 331 329 328 328 329 330 329 331 333 334 333 332 328 327 325 323 320 320 326 331 331 330 329 334
338 344 344 343 339 342 343 339 334 332 331 330 330 329 331 330 332 332 332 331 330 327 328 328 327 326 329 329 331 332 332 329 328 325 323 323 325 325 330 331 326 326 331
336 343 343 339 338 343 342 337 334 333 332 330 330 329 330 329 330 330 330 328 327 327 328 325 327 324 325 326 328 328 327 328 327 326 323 324 324 327 328 331 331 330 330
335 339 340 339 339 341 340 335 332 334 333 330 328 329 330 331 333 333 329 328 328 328 328 324 325 327 328 324 323 323 327 329 326 325 325 326 325 325 331 332 330 331 330
337 339 340 342 339 340 338 333 332 335 334 331 327 328 331 333 334 334 333 328 328 328 326 325 327 329 330 330 331 330 329 327 326 323 324 322 325 325 326 330 330 330 329
341 340 342 339 337 340 334 333 333 336 335 330 330 330 331 331 332 334 332 330 329 328 326 326 329 329 329 330 332 333 332 331 328 326 323 321 321 323 328 328 328 329 330
343 344 341 337 337 338 335 334 332 332 335 332 331 331 332 329 329 333 334 333 331 331 328 331 330 331 330 329 330 331 331 330 329 327 325 324 322 322 327 328 330 329 328
343 346 343 341 338 336 335 334 332 333 333 332 330 328 327 328 326 328 333 334 332 328 328 328 326 325 325 326 325 324 324 324 324 325 326 326 327 326 329 329 330 330 330
344 344 343 342 339 335 335 333 333 334 333 333 332 331 327 322 324 327 327 328 328 329 326 322 326 328 329 329 328 328 328 328 328 328 328 328 328 328 331 332 331 331 330
345 342 340 338 341 333 335 333 335 334 333 333 332 330 326 321 325 330 330 329 327 328 329 330 331 331 331 331 331 331 330 330 330 331 331 331 330 329 332 332 331 332 331
342 342 340 338 335 335 334 333 335 333 333 332 330 331 329 328 328 329 329 329 330 331 332 332 332 332 332 331 330 331 331 330 331 330 329 331 331 332 333 333 332 332 332
340 340 341 340 340 340 337 338 335 335 333 332 332 332 331 330 330 330 331 331 332 332 332 333 332 331 331 329 327 326 324 325 326 327 327 327 326 327 333 334 333 332 332
338 340 340 340 341 342 341 340 338 336 336 334 334 332 332 331 332 332 333 333 333 334 333 331 327 321 321 321 318 317 316 317 319 324 325 323 318 319 329 328 328 329 331
333 339 340 340 342 342 340 338 338 337 336 334 333 332 332 332 333 334 333 332 328 326 323 319 320 318 316 315 314 313 314 314 313 314 313 314 315 316 318 325 328 330 331
329 337 340 341 342 341 339 338 337 335 335 334 333 333 333 333 333 332 325 320 317 317 316 316 314 313 311 310 309 308 310 310 310 308 312 311 311 311 313 318 319 324 328
332 336 339 341 341 341 340 339 337 335 333 333 333 332 332 331 329 321 320 316 314 314 314 313 311 308 305 304 304 303 304 305 304 309 308 305 310 307 307 308 313 312 314
332 337 339 339 340 340 340 338 336 334 332 331 331 329 326 325 323 321 312 311 311 311 309 307 303 300 302 299 300 301 300 303 305 303 300 305 304 305 303 306 304 303 304
328 331 334 338 340 339 338 335 332 331 329 327 325 320 316 314 311 309 308 306 305 305 303 300 299 299 300 298 299 299 299 304 303 299 299 303 298 303 301 301 299 299 301
326 327 331 337 339 337 335 329 325 323 319 318 315 314 311 308 307 305 304 303 302 300 299 298 297 296 299 298 300 298 301 304 302 298 299 297 301 300 299 299 298 297 300
327 327 330 336 334 333 325 316 313 310 311 309 307 307 306 305 304 304 302 301 300 298 297 297 296 296 297 297 299 298 300 299 300 296 298 296 299 296 298 297 298 297 298
329 328 330 328 325 328 325 320 316 310 307 306 305 303 304 304 302 301 299 298 298 296 295 295 295 295 296 295 297 297 297 298 298 295 297 296 296 296 297 295 296 297 295
329 330 328 325 326 326 322 316 309 307 305 303 302 302 301 301 300 299 298 297 296 295 294 294 293 293 293 293 296 296 296 296 295 297 294 296 294 295 293 295 294 296 295
327 329 328 326 325 322 317 312 308 306 305 304 303 301 300 299 298 297 296 295 294 294 293 293 292 292 292 292 293 294 293 294 293 293 294 293 294 292 293 294 294 295 294
323 325 326 324 320 316 314 310 307 307 308 305 302 300 299 298 297 295 294 294 293 293 292 292 291 291 291 291 291 291 291 292 292 292 291 291 292 292 293 293 293 293 292
319 320 320 319 316 315 312 309 309 308 306 304 300 299 298 297 295 294 293 292 292 292 291 291 291 290 290 290 290 290 290 291 290 290 290 290 290 291 291 291 292 291 292

GFSSE_925_thetae_003.txt.gz
Theta_e
338 342 343 342 340 340 340 338 337 332 334 334 333 335 335 335 335 334 334 334 332 330 327 330 333 333 335 337 337 333 330 329 328 326 324 318 322 331 332 330 332 331 328
337 343 343 344 344 343 342 339 337 333 334 332 331 333 331 329 330 331 333 332 329 329 327 327 330 329 331 333 332 332 332 332 329 326 323 320 320 322 331 330 329 329 331
338 343 344 343 343 343 342 339 337 334 332 331 329 329 330 329 332 332 333 331 329 328 326 326 324 325 327 329 330 330 332 331 329 325 325 322 324 325 326 333 329 327 332
338 344 344 343 342 342 342 339 337 335 331 330 330 330 331 331 332 331 331 329 328 328 328 324 326 323 322 325 328 329 329 329 328 325 325 322 324 325 330 330 329 331 330
338 343 343 340 339 341 342 339 337 336 333 330 330 330 331 332 333 333 328 328 328 328 328 324 324 327 329 328 327 326 325 326 328 324 325 325 326 324 329 330 331 330 331
335 341 342 339 339 341 340 339 338 335 333 330 330 328 328 331 334 333 332 329 328 328 325 325 326 328 329 330 331 332 331 330 328 325 322 321 321 324 327 328 329 330 329
335 340 340 340 340 339 339 335 337 336 334 331 329 330 330 331 332 334 332 331 329 328 327 329 330 330 330 329 330 331 331 330 330 330 328 325 322 321 325 328 329 329 328
337 340 341 342 339 339 337 334 333 336 335 330 332 332 332 329 328 332 332 333 330 331 330 329 330 330 330 330 329 329 329 327 327 325 325 326 326 326 328 328 329 329 330
340 341 343 341 339 339 335 334 331 332 335 332 331 331 331 328 326 328 334 334 333 330 327 328 326 327 328 330 329 328 327 326 325 326 327 328 327 327 332 332 331 331 331
343 343 342 339 338 338 336 334 331 332 333 332 330 330 328 325 324 327 328 329 328 328 327 326 329 330 330 330 330 330 330 329 329 329 330 330 330 329 332 334 334 333 333
344 345 343 342 340 337 335 335 333 334 333 333 332 331 328 322 323 329 328 328 327 328 329 330 331 332 331 330 331 330 330 330 329 329 330 328 330 330 334 334 335 334 334
346 346 344 343 340 338 335 335 334 334 333 333 332 330 327 326 327 328 328 328 329 330 331 332 332 331 330 329 328 325 322 319 320 323 326 328 328 331 331 333 335 334 334
344 345 344 341 338 339 334 335 336 335 333 333 331 330 329 328 328 329 330 330 331 331 332 332 330 325 321 317 317 315 314 315 315 316 320 320 316 323 325 329 330 329 330
338 342 342 341 338 336 335 334 334 334 333 333 332 331 331 330 331 331 332 332 332 333 331 324 317 318 317 314 312 312 310 311 312 312 312 313 314 315 323 326 326 328 330
334 338 341 341 339 339 338 338 338 336 335 334 334 333 331 331 332 333 332 330 326 321 317 317 315 313 311 309 307 306 306 306 306 307 311 309 311 311 316 320 323 325 323
322 332 339 340 340 341 341 340 339 337 336 334 332 331 332 332 332 330 323 321 318 315 313 311 310 306 304 303 302 302 302 301 304 307 305 308 307 306 308 318 314 314 313
323 325 337 340 340 341 341 338 337 335 335 332 332 332 331 331 326 325 319 317 313 310 309 307 303 301 300 300 299 300 300 301 305 301 301 305 301 304 304 306 307 308 310
327 329 335 340 341 341 338 337 336 335 332 332 331 330 328 327 324 321 314 309 307 305 303 301 300 298 298 297 297 299 298 301 300 297 302 298 300 301 300 299 298 299 307
328 332 338 340 341 339 338 335 335 331 331 330 329 326 324 323 311 309 305 304 303 302 300 299 297 296 297 295 296 297 298 302 301 300 299 297 299 297 298 298 296 297 300
329 334 338 340 340 339 337 332 330 330 326 322 320 317 314 308 305 305 304 303 301 299 297 296 295 295 297 294 295 296 299 303 301 300 297 296 297 296 297 296 295 295 297
326 329 334 338 338 336 329 325 317 316 313 311 309 308 306 305 305 304 303 301 298 297 295 294 294 294 294 294 296 296 299 299 299 298 296 295 296 295 294 295 293 295 295
325 325 332 335 330 329 329 327 322 312 307 305 303 304 304 304 303 302 300 299 297 295 294 293 293 292 292 293 295 295 295 296 298 297 295 294 296 293 293 292 292 293 295
326 325 329 324 325 330 326 321 315 306 303 301 302 302 302 302 301 300 299 297 295 294 293 292 292 291 292 292 294 293 291 293 293 295 293 294 292 293 292 291 291 293 294
326 326 325 324 326 327 323 319 313 304 302 301 302 301 300 300 299 298 297 295 294 293 292 291 291 291 291 291 291 290 290 292 292 291 292 291 292 291 291 290 291 293 292
326 325 323 324 325 322 321 321 310 305 304 302 301 300 300 298 297 296 295 293 293 292 291 291 290 290 290 290 289 289 289 289 290 290 289 289 289 289 288 290 291 290 291
323 324 323 323 321 320 319 315 311 306 304 301 299 299 298 297 296 295 293 292 292 291 290 290 290 289 289 289 288 288 288 288 288 288 287 288 287 287 288 288 289 290 290

GFSSE_925_thetae_006.txt.gz
Theta_e
338 342 344 339 340 338 340 338 337 333 332 333 333 335 336 338 337 335 334 333 332 330 326 330 333 333 336 337 337 334 331 330 329 326 324 320 320 327 332 332 328 331 330
337 341 343 341 341 342 341 339 337 334 334 332 332 333 332 332 333 333 333 332 330 330 326 325 329 329 330 332 332 332 331 333 331 327 324 322 319 323 330 331 331 327 330
337 340 342 344 342 343 341 339 336 333 335 331 331 332 330 330 331 331 332 331 330 329 325 326 326 326 327 329 329 330 331 331 330 329 325 322 323 325 329 330 329 327 330
337 341 342 345 344 343 341 339 336 334 332 331 329 330 330 330 333 329 331 329 328 327 328 325 323 321 321 321 323 327 328 328 328 328 325 324 323 323 327 330 329 328 330
338 343 342 343 344 342 341 339 338 336 332 331 331 330 331 332 333 332 328 328 328 328 327 323 322 324 326 327 329 330 329 328 326 323 319 322 324 324 325 328 328 330 328
340 343 343 342 341 340 341 339 338 336 334 331 331 330 329 331 334 333 331 329 328 328 324 324 325 327 328 329 331 332 332 331 329 327 326 324 322 318 321 329 329 327 328
340 342 341 340 337 340 340 339 338 336 334 331 330 329 329 331 332 334 334 330 329 328 327 328 330 331 331 331 330 330 332 330 330 328 325 325 326 325 326 327 328 329 329
337 341 341 340 338 340 339 336 336 336 334 331 329 331 332 329 329 333 334 332 330 330 332 330 332 332 331 331 331 331 328 326 326 325 325 326 327 327 331 332 330 330 329
336 340 341 341 340 339 339 334 333 334 335 331 332 333 333 328 327 329 334 334 333 331 328 328 331 331 331 331 330 330 329 329 328 328 328 329 329 329 333 334 334 333 332
338 339 341 343 341 339 339 334 332 331 333 331 330 329 328 325 326 326 329 331 327 326 327 330 331 331 331 331 331 331 330 330 329 329 329 329 329 330 334 335 335 335 335
341 340 342 344 340 340 338 335 332 330 333 334 331 331 328 325 321 326 327 327 327 328 330 331 332 332 331 330 329 328 326 322 320 321 324 326 328 330 332 332 334 334 334
343 347 343 346 341 340 338 336 334 332 334 333 333 331 326 322 324 328 328 328 328 330 331 332 331 330 328 325 321 317 315 314 314 314 318 322 322 326 326 326 329 332 331
340 345 349 346 343 341 338 337 335 334 334 333 333 330 328 327 327 328 329 330 331 331 331 331 327 319 316 315 313 310 309 309 310 311 312 313 314 320 324 325 326 327 331
338 341 343 344 343 342 339 336 335 335 334 333 331 329 330 329 329 330 331 330 331 331 329 316 315 314 311 308 307 305 305 304 304 306 310 310 313 318 321 323 325 326 323
333 335 340 343 343 340 340 335 335 335 334 333 332 331 331 330 331 333 329 328 323 317 316 313 311 308 306 304 302 301 301 301 303 307 306 308 307 309 320 316 317 316 317
323 326 332 338 341 339 337 336 335 335 334 334 333 333 331 330 331 330 323 318 315 312 310 307 303 302 300 300 300 300 300 301 303 301 304 303 304 304 309 310 310 310 314
322 321 322 332 340 340 338 338 339 337 336 334 331 330 331 331 328 324 317 312 308 305 302 301 300 299 300 299 299 298 298 300 298 300 300 300 300 300 300 303 305 307 308
321 322 322 329 339 340 340 340 338 336 335 331 331 331 330 325 321 317 312 306 302 302 301 300 299 298 297 296 297 297 297 301 298 298 299 298 298 298 298 296 296 299 303
321 325 327 333 338 339 340 337 334 333 331 331 330 327 324 323 315 309 305 303 302 302 300 298 296 295 295 294 296 296 296 300 299 298 297 297 296 296 296 295 294 293 295
324 326 332 336 338 339 337 333 330 327 326 325 322 319 319 311 305 305 305 303 301 299 297 295 294 293 293 293 295 295 298 301 300 299 297 296 295 296 295 293 293 292 293
326 330 335 338 338 336 331 326 321 321 320 319 315 312 308 305 305 305 304 301 299 297 294 293 293 292 292 293 294 294 297 297 297 298 295 295 295 294 293 293 291 291 291
325 330 336 337 335 331 330 327 327 319 312 310 306 303 303 304 304 304 302 300 296 295 293 292 292 292 292 292 291 293 292 294 294 295 294 294 293 293 292 291 290 289 291
323 326 334 334 328 327 329 324 320 310 304 302 301 301 302 302 302 301 299 297 295 294 292 291 291 291 291 291 292 291 289 290 291 293 293 292 292 291 290 289 288 290 290
323 323 329 329 324 329 325 324 321 306 301 300 301 301 300 300 300 298 297 296 294 292 292 291 290 290 290 289 290 289 289 290 289 289 291 289 290 288 288 288 288 288 288
324 323 324 322 324 324 322 326 314 307 303 301 300 300 299 298 297 296 295 294 293 291 291 290 290 289 289 288 288 288 288 288 289 287 287 287 287 287 286 287 287 288 288
323 321 320 320 320 319 319 319 321 310 302 300 299 299 297 296 295 295 294 292 291 290 290 289 289 289 289 288 288 287 287 287 287 286 285 286 286 286 286 286 287 287 288

GFSSE_925_thetae_009.txt.gz
Theta_e
338 342 344 340 341 341 340 339 336 334 332 332 334 336 336 336 338 336 334 333 332 330 328 331 332 333 336 337 336 333 333 330 330 327 325 322 319 323 331 331 332 330 330
338 342 344 339 344 343 340 339 335 335 333 332 333 333 335 335 334 335 334 332 331 329 327 326 330 329 331 332 333 332 332 332 329 328 326 323 320 323 327 331 329 329 328
338 342 344 340 342 342 341 338 335 335 332 331 334 332 329 330 329 331 332 331 330 329 328 326 326 326 326 327 328 328 329 330 330 328 326 323 322 325 330 328 330 328 327
338 342 344 343 342 342 341 339 335 335 335 330 331 331 330 331 331 330 331 330 328 328 328 325 324 323 323 321 322 323 327 327 327 325 325 322 323 323 326 331 328 328 328
338 342 343 345 342 342 341 339 336 335 332 331 331 331 332 332 332 331 329 328 328 328 325 324 322 324 328 328 330 331 332 331 327 325 323 319 319 320 323 329 329 329 328
337 341 342 346 343 341 340 339 338 336 332 331 331 329 331 333 334 334 329 328 328 328 324 325 326 330 330 330 330 331 330 331 330 330 328 326 326 324 321 325 328 329 328
337 342 342 343 343 341 341 339 338 337 334 331 331 329 329 332 333 333 334 329 328 328 327 329 332 332 331 331 331 331 330 327 330 329 327 326 326 326 330 331 329 329 330
336 342 342 341 339 340 340 338 336 336 334 332 330 330 331 330 329 333 334 331 330 330 331 330 331 332 331 331 332 331 329 328 330 329 328 328 328 328 332 332 332 332 331
336 339 341 342 340 341 339 336 334 334 333 330 329 332 332 329 328 331 333 333 333 331 327 328 331 332 332 332 332 331 330 330 330 329 328 328 329 329 334 334 334 335 334
336 339 341 341 341 341 340 336 333 331 332 328 329 330 330 327 327 326 331 333 329 327 328 331 332 332 331 330 330 329 328 327 324 323 323 326 327 328 333 334 334 335 335
339 339 341 341 342 340 340 336 333 330 332 331 330 330 329 326 323 324 326 327 327 328 330 331 331 331 329 328 326 323 320 317 316 315 317 321 326 329 330 330 329 331 333
341 341 342 346 344 341 340 336 333 331 333 334 332 331 327 322 321 327 327 327 328 330 330 331 330 326 322 318 317 315 312 311 310 311 312 314 317 323 325 325 326 328 330
340 342 341 343 345 342 340 337 335 332 333 333 332 332 327 326 326 327 328 330 330 331 330 329 322 318 316 313 309 307 306 305 305 306 309 311 316 321 322 323 326 328 325
336 341 342 341 340 345 340 338 336 334 334 333 332 331 328 328 328 329 331 330 331 329 326 318 315 312 308 305 303 302 302 302 303 306 308 311 312 319 323 321 320 319 321
333 335 339 342 345 345 341 338 337 334 334 333 332 329 330 329 330 332 328 326 320 318 315 312 308 304 302 301 300 300 300 301 303 305 306 306 309 314 314 314 314 316 318
328 330 333 338 342 343 342 339 336 335 335 333 331 330 330 329 331 329 323 320 314 311 307 303 301 300 299 299 298 298 298 301 301 302 302 302 302 305 308 309 309 311 311
321 320 321 329 336 342 341 339 335 334 334 333 333 333 331 330 329 322 319 313 307 303 301 300 299 298 298 298 297 297 297 298 299 299 300 299 299 299 299 301 302 303 305
320 320 320 320 327 340 340 338 335 335 335 334 332 331 331 330 324 318 314 306 302 302 301 299 298 296 296 297 297 296 296 299 297 298 297 297 296 296 296 295 294 295 299
320 320 321 324 329 338 339 337 337 337 335 332 330 331 328 324 319 313 305 303 302 302 300 297 295 295 295 295 296 296 296 299 297 296 296 296 296 295 295 294 293 292 292
319 320 323 329 333 338 338 338 336 333 331 329 330 327 322 317 311 305 304 303 301 300 298 296 294 293 293 293 295 295 299 300 298 298 297 294 295 294 293 292 292 291 291
320 323 327 333 335 337 337 331 325 325 324 322 321 317 313 306 305 305 304 302 300 298 295 294 293 292 292 292 294 295 295 295 298 297 295 294 293 293 292 291 291 290 291
321 325 333 332 333 334 332 325 327 321 315 314 310 307 304 304 304 304 303 300 297 295 293 293 293 292 291 291 292 293 296 296 295 293 294 293 292 292 291 290 290 290 290
322 326 333 331 327 327 327 325 320 315 309 305 301 301 301 302 302 302 300 298 296 294 293 292 291 291 292 291 290 292 294 294 292 293 293 292 291 290 289 289 289 289 288
321 324 330 327 325 324 328 327 326 312 305 300 301 300 300 300 300 299 298 296 294 293 292 291 290 290 290 290 290 289 289 290 292 292 291 291 289 288 288 288 288 288 288
320 323 329 325 322 326 328 327 318 308 305 301 299 299 298 297 298 297 296 294 293 292 291 290 290 289 289 289 289 289 289 289 290 290 290 290 289 289 288 287 287 287 287
320 322 324 320 320 320 321 318 317 316 303 299 298 297 296 296 295 294 293 293 292 291 290 289 289 289 289 288 287 287 288 288 289 288 289 289 289 288 287 287 287 287 287

GFSSE_925_thetae_012.txt.gz
Theta_e
339 347 346 341 342 342 341 339 337 335 333 334 336 338 338 339 338 336 334 333 332 329 328 330 333 335 337 337 337 336 333 332 331 327 324 320 318 326 332 331 333 333 331
340 346 344 341 344 342 340 338 335 334 333 333 335 336 338 337 337 334 334 333 331 330 328 327 331 331 332 334 334 333 333 332 331 328 324 323 322 324 329 329 329 332 326
341 346 346 341 343 342 341 338 335 335 332 333 333 331 328 331 330 332 333 331 330 329 328 327 327 327 326 325 328 328 328 330 329 326 321 326 325 323 329 329 329 329 327
341 347 345 341 342 342 341 339 336 336 332 334 333 329 330 330 331 329 332 331 330 329 327 327 328 328 327 325 327 326 326 326 324 322 324 322 325 323 324 330 329 331 329
342 346 346 343 342 342 341 339 336 336 333 331 330 331 332 332 331 333 331 329 329 327 324 325 326 328 330 330 331 331 331 331 330 329 329 328 327 324 320 328 331 331 332
342 345 347 344 342 342 340 339 337 335 332 332 332 330 332 333 334 332 330 329 328 328 325 327 330 331 332 332 331 331 329 330 329 331 330 330 330 328 327 330 327 329 331
341 344 347 345 342 342 340 339 338 335 333 332 331 329 331 333 334 333 334 329 328 328 328 330 332 333 333 331 332 332 331 326 330 331 332 332 332 328 331 332 332 331 330
341 344 345 346 344 342 340 339 338 337 334 331 331 331 332 331 330 334 335 330 331 331 330 329 332 333 332 333 333 332 330 330 332 333 333 332 332 329 332 333 332 332 334
341 343 343 345 344 340 340 338 335 334 334 331 329 330 332 330 328 334 335 333 333 331 327 330 332 333 333 331 330 330 329 329 330 331 330 330 330 328 333 334 335 335 336
341 343 343 342 342 344 343 338 334 333 329 327 329 330 330 329 327 327 333 334 332 327 329 332 332 332 331 329 328 327 325 323 323 322 323 326 323 328 333 333 333 331 333
341 342 343 343 343 345 342 340 334 332 331 326 328 328 328 329 328 328 329 327 327 329 330 331 331 329 326 322 320 319 318 318 318 317 317 316 318 325 328 328 327 327 330
341 342 343 343 345 344 341 340 337 335 335 334 333 333 330 328 325 328 328 327 328 329 330 331 328 322 318 317 315 313 313 311 311 311 313 311 313 322 324 325 326 329 328
340 342 343 344 345 344 342 340 338 336 336 336 334 333 329 327 327 329 329 330 332 330 324 321 318 314 312 310 309 308 307 306 307 309 312 310 314 320 323 326 323 322 324
339 341 342 344 345 344 343 341 339 336 336 336 334 333 329 328 329 329 331 332 328 325 320 316 313 309 307 305 304 305 305 305 307 308 311 311 320 321 320 319 318 320 320
336 339 342 343 344 343 344 342 339 337 336 336 335 333 330 330 331 331 323 324 319 314 313 311 308 305 304 303 302 303 303 304 304 306 309 308 313 314 314 314 316 314 314
332 335 340 342 343 343 343 342 340 337 336 337 335 331 332 331 332 323 326 322 313 309 306 304 303 303 302 301 301 301 301 302 303 304 305 305 304 306 307 307 307 308 308
325 328 332 339 342 343 342 343 340 338 336 336 334 333 332 330 330 328 321 314 307 304 303 303 302 302 301 301 301 300 301 301 302 303 302 302 301 298 298 299 300 301 302
323 323 322 328 337 341 344 342 340 338 336 336 335 333 331 329 330 322 312 307 303 303 302 301 300 301 301 300 301 301 300 301 300 301 300 300 299 299 298 295 294 293 293
323 322 322 323 329 336 340 341 340 337 335 333 332 332 330 329 325 317 307 304 302 301 300 299 299 299 299 299 299 299 300 302 300 299 299 299 298 298 297 296 294 293 293
322 322 322 326 330 334 339 339 337 332 329 332 330 330 329 323 316 307 304 303 301 300 299 298 298 298 297 297 298 299 302 303 300 301 300 298 297 296 296 295 294 294 293
322 323 324 329 333 336 336 332 325 324 328 328 328 326 322 316 308 305 303 301 300 299 298 297 297 297 297 296 298 300 300 299 302 302 297 297 296 295 294 294 294 293 293
322 324 327 331 333 334 332 332 329 321 317 317 322 316 314 307 304 304 302 300 299 298 297 296 297 297 296 295 296 298 301 300 299 298 297 296 295 294 294 293 293 292 292
322 325 328 332 333 332 331 329 321 312 309 309 308 305 303 302 302 302 301 299 298 297 296 296 295 295 296 295 294 296 299 299 296 297 297 295 295 293 293 292 292 292 291
321 324 330 331 330 331 329 320 317 318 314 305 306 303 300 300 299 300 299 297 297 296 295 294 293 294 294 295 294 293 293 293 295 297 296 295 293 293 292 292 291 291 291
320 325 330 330 329 328 322 320 322 320 314 303 303 299 299 298 298 297 297 296 295 294 294 293 293 293 292 293 293 293 293 293 293 294 295 295 293 293 292 291 290 290 290
320 325 328 328 328 323 321 323 322 315 304 300 298 297 298 298 296 295 295 295 294 293 293 292 292 292 292 291 291 291 291 292 293 293 294 294 293 292 292 291 290 289 289

GFSSE_925_thetae_015.txt.gz
Theta_e
342 348 346 344 344 342 342 340 339 337 335 336 339 341 340 340 338 336 335 334 332 330 328 329 334 335 337 338 338 336 335 333 331 328 323 320 317 325 331 333 333 335 334
344 349 344 344 343 342 341 339 337 335 334 335 335 337 340 339 338 336 334 332 331 330 328 328 331 331 333 334 333 333 333 332 331 327 319 327 326 324 331 329 329 333 329
346 348 346 341 342 342 341 338 335 334 332 336 334 333 336 335 334 334 332 330 330 329 328 328 329 328 328 327 327 328 328 328 326 319 323 326 325 322 328 330 331 329 329
345 347 346 342 341 342 341 339 337 334 334 335 332 330 331 331 331 331 332 331 331 328 327 327 328 329 329 327 327 329 328 328 325 325 327 323 324 324 320 330 332 330 333
344 346 347 340 341 342 341 339 338 334 332 334 329 332 332 333 331 332 331 330 330 325 326 327 329 330 330 330 331 331 330 331 329 332 330 331 329 329 324 326 328 331 333
344 346 345 342 342 341 340 339 337 335 332 331 331 333 333 333 334 333 331 330 328 327 327 330 332 332 332 332 332 332 329 329 327 331 331 332 332 331 327 332 332 329 330
342 348 347 343 342 341 340 339 338 334 333 333 332 332 335 335 334 335 333 329 329 329 330 332 333 333 332 332 333 332 330 329 332 333 333 333 333 332 331 333 334 333 333
341 345 347 344 343 342 340 338 338 335 333 332 332 332 334 330 331 334 334 330 331 332 330 331 332 333 333 334 333 331 330 329 332 332 332 332 332 330 333 333 335 336 336
341 343 347 347 344 342 340 338 336 337 334 331 332 332 333 330 330 337 335 333 334 330 327 331 333 333 331 330 329 328 327 326 327 328 327 327 329 326 333 332 335 334 334
340 342 343 345 345 343 342 338 335 334 331 328 329 330 330 329 327 331 332 333 332 326 330 332 331 331 329 328 325 323 322 323 323 321 321 324 317 326 331 330 329 328 329
340 341 342 342 341 343 343 340 335 333 328 327 328 328 327 330 330 329 333 329 326 328 330 331 331 327 323 320 318 317 317 318 316 316 315 316 312 322 325 326 327 328 330
340 341 342 341 341 344 343 341 338 335 333 330 331 329 330 329 327 330 329 326 327 329 330 330 327 321 318 319 316 313 312 310 310 311 314 313 314 321 322 327 327 326 328
339 341 342 343 343 342 341 341 337 336 336 334 334 333 329 326 325 328 330 328 331 331 327 323 320 317 313 311 308 309 309 308 309 310 313 309 320 323 325 322 322 324 322
337 340 342 343 344 344 343 341 338 336 336 336 334 333 329 327 329 329 329 331 330 326 323 320 318 313 309 307 306 306 306 305 307 308 312 315 319 320 319 320 319 318 318
335 338 341 343 344 345 343 342 339 336 336 336 335 334 330 328 330 330 330 326 323 319 317 315 311 308 306 305 305 304 304 304 305 307 310 311 314 314 313 313 312 312 312
332 335 338 341 343 344 344 343 340 338 337 336 336 335 330 331 331 328 323 320 318 314 310 308 306 306 305 304 303 303 303 304 304 306 307 306 305 306 306 306 305 305 305
327 331 335 339 341 342 342 343 341 339 337 336 336 334 332 332 330 323 319 318 313 308 306 306 305 304 304 303 303 303 302 303 303 305 304 304 303 301 298 297 297 297 298
326 326 329 334 339 341 341 343 342 340 338 336 336 333 333 331 325 319 316 312 308 306 306 304 302 303 303 302 302 302 302 302 302 303 302 302 301 300 300 298 296 295 296
326 326 325 326 332 339 341 343 342 339 337 337 336 335 331 323 327 326 314 308 306 305 303 302 301 301 301 301 300 300 303 302 302 301 301 301 300 299 299 298 296 295 295
325 325 325 324 325 332 339 341 341 339 337 336 334 328 324 325 326 317 309 306 305 303 302 301 301 301 300 299 300 301 303 304 302 302 302 301 299 298 297 296 295 295 295
323 324 324 324 327 329 335 341 340 338 335 331 324 323 323 325 314 309 307 305 304 303 301 301 301 300 299 298 301 302 302 301 304 304 302 299 298 297 296 296 295 295 294
324 324 324 326 328 332 337 339 338 333 327 322 316 322 322 319 310 307 305 304 302 301 301 300 300 300 299 297 298 301 304 302 301 300 299 299 297 296 296 295 294 294 293
323 323 324 327 331 334 338 335 331 324 317 312 310 314 315 312 306 305 304 302 302 301 300 299 299 298 299 297 296 297 301 303 298 299 299 298 297 296 295 295 294 293 293
323 324 324 327 332 334 336 333 328 320 316 313 308 310 306 304 303 303 302 301 301 299 299 297 297 297 297 297 297 295 295 295 297 298 298 298 297 295 295 295 294 292 292
320 323 325 328 332 334 333 334 328 322 322 311 304 303 301 301 301 301 300 300 299 298 297 297 296 296 295 295 295 295 295 295 295 295 297 297 296 295 295 294 293 292 292
318 323 325 330 332 332 333 330 323 325 315 305 301 300 300 300 300 299 299 298 298 297 296 295 295 295 294 294 294 294 294 294 294 294 295 295 294 294 294 293 293 292 291

GFSSE_925_thetae_018.txt.gz
Theta_e
348 345 343 345 343 343 342 340 339 335 335 339 342 341 341 339 337 336 335 333 331 330 329 332 335 336 338 338 336 336 335 332 331 327 319 324 322 328 331 333 332 333 333
348 347 345 344 343 342 340 339 334 331 333 335 338 340 341 339 337 336 333 332 330 329 329 330 331 332 333 333 332 332 330 329 324 315 320 327 326 321 331 331 329 331 330
348 348 345 342 342 341 340 338 336 332 336 337 337 339 338 337 336 333 331 330 329 328 329 329 330 330 330 331 329 328 325 319 316 322 325 326 326 324 320 329 332 329 331
349 346 344 340 340 341 339 337 334 333 336 333 331 333 332 332 332 332 331 331 328 328 327 329 329 329 328 324 323 327 331 329 326 330 329 327 326 325 324 322 330 331 332
347 346 343 341 339 341 339 338 335 334 336 333 332 333 333 332 332 332 332 332 327 327 329 330 331 330 328 324 326 330 331 328 330 331 330 331 329 332 328 328 324 327 331
347 346 341 340 340 340 338 338 338 332 334 332 334 334 332 333 333 333 332 329 328 327 331 333 333 332 328 328 332 329 325 326 330 332 332 332 332 332 329 333 332 333 329
347 347 341 341 341 340 337 338 337 333 332 333 332 335 336 335 333 332 332 329 329 329 332 333 332 332 331 333 332 330 329 329 332 331 332 332 330 332 331 333 335 336 336
349 346 343 342 341 340 338 337 335 334 333 333 333 333 333 330 333 336 333 330 331 330 327 331 331 332 333 331 329 328 327 326 330 329 330 330 331 330 333 331 335 335 335
348 347 344 342 342 340 338 337 334 333 332 332 332 332 331 329 337 337 334 332 333 327 329 332 332 331 330 329 327 325 324 323 323 322 323 325 323 323 331 331 331 330 330
343 347 346 344 343 341 339 337 334 332 330 329 331 330 330 328 333 335 333 333 331 325 329 331 330 329 325 320 320 319 320 320 318 318 317 318 317 321 325 328 328 328 331
342 344 345 345 343 341 340 337 334 329 329 327 329 329 329 329 329 330 335 330 325 326 329 330 329 324 319 320 317 313 313 312 311 311 312 314 313 321 323 326 328 329 329
340 342 343 346 345 341 342 338 334 331 326 326 326 326 325 330 330 332 331 325 325 329 330 326 321 318 317 315 312 309 309 309 309 310 312 312 309 319 327 325 327 325 325
340 341 341 341 341 342 343 339 337 334 330 328 329 329 331 329 327 330 325 324 330 330 325 322 318 316 312 308 307 306 307 306 307 309 311 310 324 324 322 324 322 321 322
339 340 341 342 342 343 342 339 338 336 335 333 333 333 329 325 324 328 330 331 329 327 323 320 316 311 307 306 305 304 305 305 306 308 310 311 319 319 320 318 317 316 316
338 339 341 342 343 343 341 340 338 337 336 336 334 334 330 327 328 328 331 329 325 320 317 313 310 307 306 305 304 303 303 304 305 307 309 308 314 313 313 312 311 310 309
331 337 341 342 344 344 343 340 339 338 336 336 335 334 332 328 329 329 326 323 319 316 312 308 306 306 305 304 303 303 303 303 304 306 307 305 305 303 303 305 305 305 305
327 334 337 342 343 342 343 342 340 339 337 336 335 334 332 330 330 328 325 318 314 310 307 306 305 304 303 303 303 303 302 302 303 305 304 304 302 301 300 299 297 300 301
326 328 335 339 342 344 342 342 341 339 338 336 335 335 331 331 330 328 323 313 311 309 306 304 302 303 302 301 301 300 301 302 302 303 302 301 301 300 300 299 297 298 298
326 326 331 336 340 342 342 341 340 341 339 336 335 334 332 331 330 326 316 312 309 306 304 302 302 301 300 300 300 300 302 302 302 301 301 301 300 300 298 298 296 296 297
323 326 326 330 338 340 342 340 341 341 338 336 335 333 333 331 326 319 313 309 307 304 302 302 302 301 300 298 300 301 302 303 302 301 302 302 300 298 297 296 295 295 295
321 322 326 325 326 335 341 340 342 341 337 336 335 334 333 328 325 314 309 307 305 303 302 301 301 301 300 298 300 301 302 301 304 303 303 301 298 297 296 296 295 295 294
322 322 324 325 325 326 338 341 341 339 336 336 333 329 328 325 315 312 309 305 304 303 302 302 301 300 299 297 297 298 298 300 300 300 301 299 298 296 296 295 295 294 293
322 322 324 324 325 325 328 339 339 335 330 325 325 323 318 313 312 309 306 304 304 303 302 301 300 299 299 297 296 296 296 297 295 298 298 298 297 297 296 295 295 294 293
321 322 322 324 324 327 334 339 335 329 320 316 317 314 310 310 308 306 305 303 303 303 302 300 299 298 298 297 296 295 295 295 293 293 297 297 296 295 295 295 294 294 293
315 321 322 323 325 330 337 336 331 322 320 315 311 312 306 305 305 304 304 303 302 302 299 299 298 296 296 295 295 294 295 295 295 293 292 294 295 294 294 294 294 293 293
315 315 322 323 326 333 337 333 329 322 318 308 308 303 302 303 303 302 302 301 300 301 299 298 296 295 295 294 294 294 293 293 293 293 291 291 291 292 293 292 292 292 292

GFSSE_925_thetae_021.txt.gz
Theta_e
344 343 344 343 341 341 341 339 337 338 341 342 342 342 340 339 337 336 334 332 330 330 332 334 336 339 338 337 337 336 331 329 326 316 320 325 324 329 331 330 332 331 331
344 344 343 343 343 342 341 336 331 330 334 340 341 341 339 338 337 334 332 330 329 329 330 332 333 333 334 334 333 329 327 321 313 321 326 326 325 327 330 330 329 329 329
344 344 343 342 341 339 335 331 331 331 333 337 338 340 339 338 334 332 330 328 328 329 330 331 332 332 333 331 328 325 319 317 324 326 326 326 325 326 324 325 330 330 331
344 344 341 340 338 337 333 332 330 338 335 336 338 337 336 335 333 331 330 328 328 328 329 329 329 329 326 325 325 329 326 327 330 330 328 327 327 329 327 322 330 332 333
345 343 340 339 337 337 337 333 334 336 333 331 333 333 333 332 333 332 332 329 329 330 331 331 331 328 325 325 328 329 326 328 330 330 330 330 329 331 329 330 326 323 328
344 342 339 339 338 336 337 334 335 336 333 333 333 333 332 333 333 333 331 328 326 330 333 333 332 327 327 329 329 326 326 328 331 331 331 331 332 332 331 333 333 335 334
345 342 339 339 339 337 336 335 331 335 333 334 335 334 334 334 334 333 330 328 327 329 330 333 332 331 332 332 330 329 328 329 331 331 331 331 331 331 331 331 335 336 335
345 342 339 339 339 337 336 335 330 332 333 334 335 335 334 333 335 335 331 330 331 326 330 330 331 333 331 329 328 326 324 326 324 324 328 330 328 330 332 329 332 333 332
346 341 341 341 340 338 336 334 328 328 333 333 332 332 330 330 335 336 332 331 330 324 330 332 331 330 328 325 323 322 322 321 320 321 323 322 319 325 328 330 329 329 332
345 344 342 341 341 339 337 335 329 328 331 332 331 330 329 335 336 334 333 332 329 324 329 330 329 326 320 318 314 315 315 313 312 315 315 315 315 322 324 326 328 331 331
347 344 342 342 341 340 338 337 332 328 328 330 330 330 329 329 335 334 332 331 325 326 329 330 326 319 319 318 313 311 311 311 309 311 311 312 312 321 328 328 329 328 327
346 345 343 342 341 341 339 337 334 330 327 328 329 329 328 328 330 330 333 327 324 328 329 325 318 317 316 313 310 308 308 307 308 310 311 311 320 327 326 326 325 324 324
342 346 345 343 342 341 339 337 334 330 326 325 325 327 325 329 331 330 329 324 327 328 323 319 317 315 309 307 306 305 306 305 306 308 310 314 325 322 323 321 321 320 320
339 341 344 344 343 341 340 339 334 331 326 324 325 325 327 328 329 330 326 327 329 327 322 318 313 308 306 306 305 304 304 304 305 309 310 311 320 320 318 317 315 314 313
339 340 341 343 343 341 341 339 338 336 331 329 332 332 329 327 325 325 329 330 327 324 319 316 312 308 306 305 303 303 303 303 305 308 308 309 314 313 312 311 310 309 309
337 339 340 341 341 342 341 340 338 337 335 334 333 333 329 327 326 328 330 326 321 319 316 312 308 306 305 303 303 303 302 303 303 307 305 305 304 301 304 305 305 305 305
328 339 340 341 342 342 341 340 338 337 336 336 334 333 332 328 328 328 326 321 320 317 313 308 305 304 303 302 303 302 302 302 303 305 304 303 302 300 300 301 302 302 302
324 332 340 341 342 343 343 341 339 338 337 336 335 334 333 328 329 328 326 320 316 311 309 306 303 303 302 301 301 300 301 302 302 303 302 301 301 300 299 299 297 299 300
322 324 338 341 341 342 343 342 340 339 338 336 335 334 333 329 330 328 327 320 314 311 306 304 302 302 301 300 300 300 302 302 302 302 301 301 300 300 298 297 296 295 295
322 322 324 339 341 342 342 341 340 339 339 337 335 334 333 331 330 329 323 317 312 307 304 303 304 302 300 300 301 301 302 303 302 301 301 301 300 298 297 296 296 295 295
320 321 322 331 340 342 341 340 340 338 339 337 335 334 332 331 330 327 319 312 309 306 304 304 303 302 300 299 299 301 301 302 303 302 302 302 298 297 296 296 295 295 295
319 320 320 321 337 340 340 340 339 339 340 336 335 334 332 332 328 324 318 312 307 305 304 303 303 301 299 298 298 299 296 299 300 300 301 299 298 296 296 295 295 295 294
316 319 321 321 328 339 340 339 339 338 335 332 333 333 331 328 324 321 315 310 305 305 305 303 303 302 300 297 296 297 295 297 293 297 298 297 296 296 295 295 294 294 294
315 315 321 321 322 330 339 338 339 334 329 330 330 332 330 325 318 312 310 307 304 305 306 304 301 301 300 297 296 295 295 295 292 292 296 296 295 295 294 294 293 294 293
314 314 314 320 322 323 333 337 338 332 330 327 323 323 323 314 309 309 307 305 304 304 304 304 301 299 298 297 296 295 295 295 294 292 291 293 295 294 293 293 292 292 292
314 313 313 316 320 322 327 334 335 331 326 319 315 313 311 307 306 306 305 304 304 303 303 302 300 298 297 295 294 294 294 293 293 292 290 289 290 292 292 291 291 291 291

GFSSE_925_thetae_024.txt.gz
Theta_e
344 342 343 343 343 342 342 342 343 342 342 343 343 341 340 339 337 335 334 332 331 333 334 338 340 339 339 339 338 334 328 326 318 317 324 325 329 330 330 331 330 332 330
343 342 343 343 343 342 341 339 338 339 340 342 342 341 339 338 336 333 332 330 330 331 332 335 337 338 337 335 333 327 322 314 321 325 326 324 326 330 331 330 329 329 328
343 343 343 342 342 341 336 330 330 334 338 340 341 340 339 337 335 331 329 328 330 331 332 334 334 335 334 331 328 321 315 322 325 325 324 325 326 328 328 324 327 329 330
342 343 342 342 340 337 332 331 329 334 336 337 340 340 339 335 332 329 328 328 329 329 330 331 331 331 329 328 322 322 326 328 329 329 326 327 327 330 327 321 330 332 332
343 342 341 340 337 335 334 333 338 337 338 338 339 338 336 334 332 331 329 329 329 330 330 330 329 324 323 323 327 325 328 329 329 330 329 329 330 332 331 331 328 325 327
343 340 340 338 336 334 333 334 337 333 334 335 334 333 334 333 333 333 330 329 330 332 332 331 326 324 325 327 327 325 326 328 331 330 330 330 331 332 332 332 333 334 334
342 339 340 338 336 334 333 334 336 334 334 334 334 333 333 333 333 334 329 328 331 333 333 333 330 330 330 329 328 328 328 329 329 331 331 331 331 332 332 331 333 335 335
342 338 339 339 337 335 334 332 335 333 335 335 334 334 334 334 334 335 329 329 331 332 333 333 333 332 330 328 325 324 324 325 324 326 330 329 328 330 332 330 331 330 333
341 338 339 338 338 335 335 330 332 333 335 335 335 335 335 334 334 335 332 333 330 332 333 333 332 329 326 322 319 321 321 320 320 323 323 321 320 324 327 329 329 331 332
343 339 339 339 339 337 335 333 329 332 333 331 332 331 330 330 335 334 332 333 327 330 331 329 328 324 319 315 313 314 314 312 315 316 315 314 318 323 325 327 331 331 330
344 341 340 340 340 338 335 334 329 330 332 330 330 330 330 334 336 334 332 331 326 327 329 329 325 320 319 316 311 310 311 310 309 311 311 312 313 328 329 330 328 328 326
343 342 342 341 340 339 337 335 331 329 331 331 330 330 329 335 335 333 331 330 323 327 329 327 318 317 316 313 309 307 308 307 308 310 312 320 327 327 325 324 323 324 323
344 343 342 341 341 339 338 336 334 329 328 329 329 329 329 328 331 330 332 328 324 328 325 318 316 314 309 307 306 305 305 305 307 309 312 321 323 323 321 320 320 320 318
345 345 343 342 341 340 339 337 334 330 327 325 328 329 328 329 331 330 331 326 326 326 322 320 315 310 306 306 304 304 304 304 307 310 312 314 322 320 318 316 314 313 312
341 344 344 343 341 341 340 338 336 332 328 323 322 325 326 327 329 330 328 324 329 326 321 317 311 308 306 305 303 303 303 304 307 309 310 313 315 314 313 311 310 309 309
337 339 344 344 342 341 340 339 337 335 331 324 323 326 325 329 327 329 327 329 328 325 318 314 311 307 305 303 303 302 302 303 305 308 306 307 307 306 307 306 306 306 306
324 336 340 343 343 342 340 339 338 337 336 331 327 331 330 328 326 324 327 329 321 316 315 313 309 305 303 302 302 302 302 302 304 305 304 303 302 301 302 303 303 303 304
321 325 337 340 342 343 341 340 339 338 337 335 333 333 332 328 327 327 328 327 318 316 314 311 306 304 302 301 301 301 301 302 303 304 303 302 301 300 299 299 298 298 300
321 321 326 338 340 341 341 341 339 338 337 337 335 334 333 329 328 327 326 320 318 316 313 307 304 303 302 301 300 300 302 301 302 302 301 301 300 299 298 297 296 296 295
320 320 320 329 340 340 340 340 339 338 337 337 336 334 333 331 328 328 325 321 318 315 310 304 304 303 301 300 300 301 302 302 301 301 300 300 300 298 297 296 296 295 295
318 319 318 321 336 340 340 339 339 338 338 337 335 335 333 332 329 328 324 320 318 315 310 304 304 303 300 300 300 301 301 303 301 301 301 301 299 297 296 295 295 295 294
318 318 318 317 324 339 340 338 339 339 338 337 337 335 333 332 330 327 327 323 318 311 304 304 305 303 300 298 299 298 297 299 301 301 301 298 297 296 295 295 294 294 294
315 317 317 318 320 334 340 339 337 337 336 336 335 335 333 332 330 326 327 325 316 310 306 306 306 305 301 298 297 298 295 297 294 296 297 296 296 295 295 294 294 293 293
314 315 316 316 317 332 339 338 336 335 333 335 335 334 332 330 330 327 325 320 315 308 305 306 306 305 304 299 297 296 295 295 292 293 295 295 295 295 294 293 293 292 292
312 312 313 314 315 321 337 338 337 334 333 334 333 328 327 325 327 325 320 317 310 306 305 305 305 304 303 301 298 295 295 294 294 292 292 293 294 294 293 293 292 291 291
312 313 313 311 313 317 329 336 336 333 332 330 326 323 320 320 318 318 316 313 308 305 305 303 303 302 301 300 297 296 295 294 293 292 290 289 290 292 292 292 291 290 289

GFSSE_925_thetae_027.txt.gz
Theta_e
343 342 342 344 345 345 346 344 344 343 343 344 344 343 341 338 336 333 330 330 334 334 337 340 339 339 337 337 336 330 327 324 318 321 323 325 329 330 332 331 331 331 330
342 342 341 343 345 345 344 343 342 342 342 343 342 341 339 337 335 334 332 331 332 333 335 338 339 340 339 335 332 327 320 317 324 325 324 324 326 330 331 330 328 329 327
342 342 342 342 343 342 342 342 341 340 341 342 342 341 339 337 334 331 329 330 330 331 334 335 336 335 334 332 329 326 323 323 324 323 324 324 328 329 326 325 327 329 329
342 342 341 342 342 342 340 338 339 340 340 341 341 340 338 335 332 329 329 330 331 332 334 334 334 333 332 328 326 327 328 328 329 328 327 327 330 330 327 322 330 331 330
342 342 341 341 342 339 336 336 336 337 338 340 340 340 336 334 330 329 329 329 330 330 330 330 326 323 321 324 326 328 329 329 329 329 330 329 331 333 332 331 329 326 326
343 342 340 340 339 336 333 337 338 339 339 339 339 338 336 334 332 329 329 329 329 331 331 328 323 322 323 325 325 326 327 329 330 330 329 330 331 333 332 331 334 334 334
343 340 340 338 337 335 332 336 336 336 337 337 336 336 335 333 334 331 326 325 329 332 332 331 329 330 330 329 328 328 329 329 330 330 330 331 332 332 331 331 333 333 334
342 339 340 336 335 333 332 335 334 333 335 335 334 333 334 334 334 333 328 327 330 332 333 333 332 331 329 327 325 323 325 326 326 330 331 330 328 329 331 330 330 332 333
341 338 339 337 335 333 332 334 334 333 335 334 333 333 333 334 334 334 330 329 331 332 332 332 332 329 326 321 321 321 322 322 322 323 323 321 321 324 327 328 329 332 331
341 337 338 337 336 334 333 330 333 333 334 333 333 334 334 334 334 333 329 332 327 331 333 331 329 324 318 313 315 316 314 315 318 318 315 314 316 323 325 328 331 330 328
342 338 338 338 337 335 334 331 330 333 333 333 333 332 332 332 334 334 331 332 325 331 329 329 326 320 317 313 311 311 310 310 310 311 311 311 324 330 330 329 329 327 325
343 341 340 339 338 337 335 334 328 332 333 331 331 331 329 332 334 334 332 331 327 327 329 327 320 317 316 314 310 308 307 307 308 311 315 323 328 327 325 324 323 323 321
343 342 342 340 339 338 336 335 330 328 331 331 330 330 329 335 336 334 333 331 326 328 329 324 317 316 313 308 306 305 305 306 308 312 319 325 324 322 321 320 320 318 317
343 343 342 340 340 339 338 336 333 328 329 330 331 330 329 333 335 334 331 330 324 328 326 318 316 312 307 306 305 304 304 305 309 312 315 323 322 320 318 315 314 313 312
343 342 342 342 341 340 339 337 335 332 328 326 328 330 329 328 329 331 330 331 324 327 322 320 315 309 306 305 304 303 303 305 310 310 311 318 318 315 313 311 310 310 310
343 344 343 343 341 340 339 338 337 335 331 326 324 327 329 328 328 330 330 329 325 327 323 318 312 309 306 304 303 302 302 304 307 309 309 311 311 309 308 307 307 307 308
335 340 343 343 342 341 340 339 338 336 334 329 324 322 325 326 326 328 329 326 327 327 322 313 310 307 304 303 302 302 302 303 305 306 305 303 302 302 304 304 305 304 305
322 325 336 341 342 342 341 340 339 337 336 333 330 322 322 324 327 328 328 326 329 325 316 311 309 305 303 302 301 301 301 302 305 305 303 302 301 300 300 298 298 298 301
319 320 321 333 340 342 341 340 340 338 337 335 333 328 326 330 330 327 325 326 328 317 312 312 309 303 302 300 300 300 301 301 303 304 302 301 300 300 298 297 296 295 296
318 318 318 324 335 340 340 340 339 338 337 336 335 334 332 332 331 326 325 327 325 316 312 310 306 302 302 300 300 301 302 301 302 302 301 300 300 299 297 296 295 295 295
317 316 316 319 328 338 339 338 337 336 336 336 336 336 335 333 332 327 327 327 321 316 315 311 304 303 301 300 300 301 301 301 300 300 300 300 299 297 296 295 295 295 294
316 317 316 315 320 335 338 338 337 336 336 337 335 336 335 334 333 329 327 326 320 314 312 309 305 303 301 299 299 299 297 299 300 300 300 299 298 296 295 295 294 294 293
313 315 316 317 316 326 335 338 337 337 336 335 334 334 334 334 332 330 328 325 325 320 316 311 305 306 303 297 299 299 295 296 295 296 297 297 296 295 294 294 293 293 292
312 313 313 315 315 317 331 337 336 335 333 334 335 335 335 333 329 331 329 327 324 320 316 313 305 306 306 301 297 297 297 296 293 293 295 295 295 295 294 293 292 292 291
311 312 312 312 312 314 322 336 335 334 333 333 333 334 334 332 328 329 328 327 323 318 315 310 305 304 305 304 302 296 295 294 294 292 292 292 294 294 294 293 292 291 290
310 310 311 312 312 312 314 332 336 335 333 331 331 329 330 328 326 324 324 322 321 317 312 308 304 304 303 304 302 300 298 295 293 292 290 290 290 293 292 292 291 290 289

GFSSE_925_thetae_030.txt.gz
Theta_e
340 343 343 342 342 342 343 344 344 345 345 343 343 342 341 339 337 335 333 334 335 336 339 337 339 338 337 337 335 330 325 323 320 322 322 327 330 333 332 331 331 330 330
341 342 343 341 342 343 344 342 342 343 343 342 341 340 340 338 336 333 332 332 333 335 338 340 339 339 336 334 330 324 319 321 323 323 323 324 326 330 331 328 328 328 331
341 342 341 342 342 342 343 341 341 341 341 342 342 340 338 336 334 331 330 330 331 333 336 338 337 335 333 331 328 326 327 323 323 322 324 327 328 328 325 324 328 329 327
341 341 341 342 342 342 342 341 339 340 340 341 341 340 338 335 331 329 330 331 331 332 333 334 335 333 332 331 331 332 330 328 327 328 326 328 330 331 327 323 329 329 329
342 341 341 341 341 341 340 338 338 339 339 340 340 339 337 333 330 329 330 330 331 332 332 332 329 327 326 331 332 331 329 328 329 329 329 330 331 334 333 332 331 328 325
342 341 340 341 341 339 338 335 337 338 338 340 338 338 336 333 330 330 330 330 331 331 330 328 324 323 325 329 329 329 328 329 330 329 328 330 332 334 332 332 334 335 335
342 341 341 340 340 336 334 336 337 335 338 338 339 338 336 334 331 330 327 327 331 332 331 328 328 329 331 331 329 328 328 329 329 329 329 330 331 332 330 333 331 334 334
342 341 340 339 336 332 332 335 336 336 338 338 338 338 336 334 333 329 325 327 331 332 332 333 332 331 329 326 324 323 325 326 329 330 330 328 327 329 330 329 330 333 332
342 340 340 336 331 331 331 336 332 334 335 336 334 334 334 334 334 332 326 327 330 331 331 331 333 328 325 320 320 321 321 321 323 324 322 320 321 325 326 325 332 331 329
341 338 338 334 333 332 331 332 332 331 334 334 333 333 333 333 333 331 329 329 329 331 332 333 329 324 316 314 316 315 315 318 318 317 314 312 318 323 327 331 330 328 326
341 338 338 336 334 332 332 330 330 331 332 332 332 333 333 334 334 333 329 331 325 332 331 329 326 319 316 313 311 311 311 311 310 310 310 316 329 330 330 328 327 325 323
341 340 339 338 336 335 334 331 330 330 332 333 332 333 333 333 334 333 331 331 326 331 329 328 323 319 318 315 312 308 307 307 308 310 314 326 328 327 325 324 323 322 320
340 342 341 343 338 337 335 334 329 328 330 331 332 332 331 330 331 334 333 332 329 328 329 326 318 316 314 310 307 306 305 306 309 317 324 324 323 322 320 319 318 316 315
341 341 340 343 343 338 337 335 333 327 329 330 330 329 330 331 334 335 334 332 330 326 328 325 317 314 310 307 305 304 304 305 309 310 323 323 321 319 317 315 314 313 313
340 341 341 344 343 341 338 337 334 331 327 327 329 329 329 329 334 335 333 331 329 326 328 320 316 312 308 306 304 303 303 306 311 310 316 321 318 316 314 312 311 311 311
341 341 342 343 345 344 339 338 336 334 330 327 327 329 329 329 329 332 332 330 330 325 326 321 318 310 308 305 303 302 303 306 309 309 312 314 313 311 309 309 308 308 309
334 340 342 342 342 343 340 339 338 337 334 331 327 326 328 329 328 327 329 330 329 324 325 320 313 309 307 304 302 302 302 304 307 308 308 308 306 305 306 307 305 305 307
319 331 338 342 342 342 341 340 339 338 337 335 332 327 324 327 328 327 328 329 328 326 326 319 312 309 305 302 302 301 301 303 305 306 304 302 301 301 301 301 299 301 302
317 318 324 336 339 341 341 340 340 339 338 337 335 332 327 323 325 326 325 328 328 327 326 319 311 307 303 301 300 300 300 301 304 305 302 301 300 299 299 297 296 296 297
316 316 317 320 330 335 339 340 338 338 338 338 336 334 331 325 322 324 326 327 327 327 321 312 310 306 302 300 299 300 301 300 303 304 302 300 300 299 297 296 295 295 295
314 316 316 316 318 331 339 338 337 336 336 337 337 336 334 329 323 327 328 327 326 326 321 314 307 303 300 300 300 300 301 300 301 302 302 300 299 298 297 296 295 295 295
313 314 316 315 316 324 336 337 337 336 335 337 338 337 335 333 328 330 330 326 324 325 315 310 309 302 301 300 300 299 297 298 299 299 299 299 299 297 296 295 295 294 294
310 312 313 315 315 319 332 336 337 336 335 334 334 335 335 334 332 332 331 328 326 326 323 318 312 307 303 299 300 300 295 297 296 296 298 298 297 296 295 294 294 293 293
308 309 311 312 313 314 326 335 335 335 334 333 334 335 335 334 333 333 332 327 327 324 322 319 314 309 305 302 297 298 298 298 294 293 294 295 295 294 294 294 293 292 291
308 308 308 311 312 313 314 332 335 334 333 333 333 333 333 334 333 332 330 327 325 324 322 321 314 307 306 305 302 296 295 295 294 292 292 292 293 294 294 293 292 291 290
310 309 310 307 309 311 312 315 332 333 333 333 332 332 330 329 330 330 330 328 323 323 320 319 314 308 306 305 303 301 300 297 294 293 290 290 291 293 293 292 292 291 290

GFSSE_925_thetae_033.txt.gz
Theta_e
340 343 341 341 342 341 342 343 343 344 344 344 343 343 341 340 338 336 336 336 336 338 337 338 339 337 336 335 333 329 326 325 325 323 326 330 333 333 332 332 328 329 331
341 343 342 341 342 341 342 343 345 344 343 343 342 340 340 339 336 334 333 334 334 338 340 339 339 338 336 332 328 327 327 324 323 322 323 323 327 332 331 328 328 330 331
342 344 342 342 341 341 341 341 342 343 342 341 340 339 338 337 334 331 331 332 334 338 339 339 338 335 332 329 327 329 327 322 322 323 326 328 329 327 327 325 330 329 330
342 344 342 342 341 341 341 340 339 339 339 339 340 339 338 335 331 330 331 331 332 335 336 335 335 334 330 330 331 332 327 327 327 326 328 330 332 332 329 328 327 327 330
342 341 341 341 341 341 341 340 339 340 339 338 340 339 337 332 330 331 331 332 331 332 333 333 331 331 331 332 333 332 328 328 329 328 329 331 333 334 332 334 334 330 328
342 341 341 341 340 341 339 339 338 337 340 338 338 338 335 332 330 331 331 331 330 331 331 328 325 324 328 331 332 329 328 329 329 328 329 331 333 333 332 334 334 334 334
341 341 341 340 340 340 336 336 338 338 338 339 338 338 335 332 331 331 330 330 331 331 330 330 331 331 331 330 327 327 328 329 329 328 329 330 331 331 332 331 334 334 335
341 341 340 340 339 337 332 332 332 331 333 339 338 338 336 333 331 331 330 331 332 332 332 332 331 331 328 325 324 325 327 328 329 329 329 326 327 329 329 328 333 332 331
341 341 340 340 338 333 332 335 336 337 336 338 338 337 335 333 332 330 331 331 332 332 332 332 332 328 323 321 321 322 323 324 325 325 323 319 323 325 326 331 331 329 328
341 340 339 339 337 334 336 333 331 333 335 335 335 335 334 333 331 330 325 329 331 331 331 334 328 323 315 316 316 316 318 319 319 317 314 313 322 326 331 330 329 327 325
342 340 339 337 334 332 332 334 329 330 333 333 333 332 333 333 333 330 329 327 329 332 333 330 326 319 315 312 311 311 311 311 311 311 311 325 331 331 330 327 326 324 323
341 342 340 337 335 334 332 332 331 330 331 333 332 332 333 333 333 333 329 330 326 333 329 328 324 319 318 314 311 309 308 308 309 310 319 327 329 327 325 324 322 321 319
339 339 340 340 338 336 334 332 331 330 330 331 329 331 332 333 334 334 333 331 327 329 328 327 321 317 315 312 307 306 306 307 311 318 326 326 325 323 321 319 318 317 316
339 339 338 339 339 338 336 334 332 331 330 331 331 330 331 331 330 332 334 331 330 325 327 327 320 316 313 308 306 305 304 306 310 322 324 323 321 320 317 316 315 315 314
339 339 339 338 337 340 338 337 335 331 329 329 330 330 331 330 330 332 334 333 330 326 327 327 319 315 310 309 306 304 303 307 311 318 321 321 319 317 315 313 312 313 312
341 341 339 338 338 339 341 338 337 335 332 328 328 330 329 329 330 334 334 333 331 327 325 325 318 314 310 308 305 303 303 308 310 311 317 317 316 313 312 311 310 310 311
327 337 340 340 339 339 340 341 339 337 335 332 328 328 329 329 329 331 334 333 330 329 325 324 319 313 309 307 303 302 303 307 309 310 312 312 310 308 309 308 307 308 307
317 320 330 338 340 341 339 339 342 339 337 336 333 329 328 328 329 328 329 330 329 329 325 323 318 311 308 305 302 302 302 305 307 308 307 306 304 304 305 304 303 303 304
317 317 317 328 336 340 341 341 341 342 338 337 336 335 331 327 327 329 328 327 329 329 325 324 315 310 308 304 301 301 301 303 306 306 303 302 301 300 300 298 297 296 298
315 315 316 316 323 333 340 340 339 338 338 338 338 337 335 332 327 326 328 327 327 329 325 323 314 308 306 302 300 299 300 300 304 305 302 301 300 299 299 297 296 296 296
314 314 314 315 316 328 336 337 336 336 336 336 337 337 337 335 332 326 325 327 325 328 326 325 310 307 303 300 299 300 300 300 301 304 302 301 300 299 298 297 296 296 295
310 311 312 313 315 316 330 335 335 335 335 336 335 337 337 336 334 332 325 324 325 327 325 321 312 306 302 300 301 301 303 300 299 301 302 301 299 299 297 296 295 295 295
307 308 309 311 313 314 321 332 335 335 334 334 333 333 336 336 335 334 328 323 326 326 325 324 316 313 305 300 301 303 302 306 300 297 298 298 298 298 297 295 295 294 294
307 308 308 309 310 313 314 330 333 332 333 333 333 333 333 334 334 334 332 325 327 326 324 326 323 314 310 303 299 300 299 300 304 301 295 296 297 296 295 294 294 293 293
310 309 310 307 309 310 312 326 332 333 333 333 332 333 332 332 330 332 333 329 328 328 323 323 321 310 310 307 302 297 296 296 296 299 300 296 293 294 294 293 293 292 292
312 312 310 310 310 308 308 311 330 332 332 332 332 331 331 331 330 329 330 329 328 327 325 323 319 314 309 307 305 303 300 298 297 297 297 295 297 293 293 293 292 292 291

GFSSE_925_thetae_036.txt.gz
Theta_e
344 347 342 343 341 340 342 345 345 345 344 344 343 343 342 340 339 338 336 333 335 336 337 339 338 336 335 335 332 331 332 330 325 326 330 332 334 333 334 327 328 330 332
344 346 341 342 342 342 341 344 344 344 343 343 342 342 340 339 337 336 335 329 337 337 339 339 339 338 333 330 329 330 330 324 323 324 323 322 328 332 331 325 329 331 331
345 344 342 343 342 341 340 344 344 343 343 342 340 339 339 337 335 333 333 334 339 340 339 340 337 334 331 329 330 330 327 322 323 325 328 329 328 327 328 330 330 330 333
344 344 342 341 340 340 341 342 343 342 342 340 339 338 338 335 332 331 332 334 339 339 338 337 334 331 331 331 333 332 327 327 325 327 329 331 331 332 332 329 325 327 329
344 344 343 341 341 341 341 340 340 340 339 338 339 339 336 332 331 332 332 333 336 336 334 332 331 333 332 333 333 330 328 328 328 330 332 333 334 332 334 336 335 335 329
344 342 342 341 341 342 341 340 340 340 339 338 338 338 334 331 332 332 333 331 331 332 331 330 326 326 330 332 331 328 329 329 330 330 332 333 335 332 334 333 335 335 334
342 341 341 341 340 340 341 340 339 338 340 338 337 337 334 331 332 332 331 329 330 330 330 329 331 332 329 329 328 327 329 329 331 331 332 331 332 333 332 333 335 334 334
343 341 340 340 340 340 338 338 338 337 341 339 337 337 334 332 332 332 332 332 332 332 333 333 332 330 327 326 325 327 328 329 331 332 330 328 327 329 328 333 332 331 331
343 341 339 340 339 338 335 331 331 332 338 339 337 336 335 332 332 331 332 332 332 332 332 333 332 327 323 321 321 323 325 327 327 326 323 323 323 326 326 332 330 329 328
343 342 340 339 338 337 336 335 335 337 332 339 337 336 334 332 329 328 329 330 332 330 331 334 328 322 316 317 318 319 320 320 321 319 317 318 323 327 331 330 329 327 325
344 342 340 339 337 336 337 336 335 336 337 337 337 336 334 332 332 330 330 328 331 330 334 331 326 318 314 313 313 313 314 316 315 315 317 325 332 331 329 328 326 324 323
343 343 341 339 337 336 336 336 333 333 334 335 335 334 332 332 332 331 330 325 330 334 332 329 325 318 316 313 312 311 313 314 316 317 321 328 329 328 326 324 323 321 320
341 341 341 339 338 337 336 336 335 333 333 334 333 332 333 333 334 333 332 331 330 332 331 327 323 317 315 312 311 311 312 315 317 320 325 328 327 325 322 320 319 318 317
341 341 340 340 339 338 337 336 336 334 333 333 333 333 334 335 335 335 334 332 331 330 330 326 320 314 312 309 309 311 312 314 317 321 325 325 323 321 318 317 317 316 315
341 340 340 340 339 339 339 339 337 336 334 333 333 333 333 334 335 335 335 334 333 330 328 325 319 314 311 308 308 310 312 313 315 319 321 322 321 319 316 315 315 314 313
342 341 341 340 340 339 338 340 339 338 336 334 333 332 333 333 333 334 334 334 334 332 328 324 319 314 311 309 308 309 311 313 314 316 318 319 318 315 314 312 312 312 312
334 340 342 341 341 340 340 338 339 340 338 336 334 333 332 331 332 333 334 334 334 332 328 323 317 312 310 308 308 308 310 312 313 313 314 314 313 311 311 310 310 311 309
319 323 331 338 341 340 341 340 339 340 340 338 336 334 333 331 330 332 333 334 333 331 328 322 317 313 311 309 307 306 309 311 311 311 311 310 310 308 309 306 307 306 306
318 319 319 328 336 339 340 340 339 339 340 340 338 336 334 333 331 329 331 332 332 330 325 321 316 314 311 308 306 305 306 308 310 309 308 307 307 306 306 303 300 299 301
317 317 318 319 325 334 339 338 337 337 338 340 339 338 336 334 332 331 329 330 330 330 325 320 316 312 311 309 304 303 303 305 308 308 306 305 304 303 304 302 298 299 297
314 315 316 317 317 322 332 338 337 336 337 336 339 338 337 335 334 332 330 329 329 328 326 320 316 310 307 306 305 304 303 302 304 306 305 304 303 302 301 299 298 298 297
311 312 314 315 315 317 322 332 336 337 337 337 335 334 337 336 334 333 331 329 328 327 326 321 314 310 307 304 308 308 308 304 302 304 305 304 302 301 299 298 298 297 297
311 310 310 311 313 315 317 325 332 335 336 336 334 333 334 336 334 333 332 330 328 325 324 321 314 313 308 304 307 310 310 311 306 302 302 303 302 300 299 298 297 296 295
313 312 311 310 310 311 314 318 327 332 333 332 332 333 333 334 334 333 332 330 327 323 323 321 317 319 313 307 303 304 304 307 308 305 300 301 300 300 299 298 296 295 294
314 314 312 312 310 309 311 316 325 330 329 329 330 332 332 331 332 332 331 330 327 323 322 320 317 314 313 311 307 301 300 299 301 306 307 301 299 298 298 298 296 295 294
315 314 314 312 312 312 310 311 317 326 329 329 331 333 333 333 331 330 330 329 327 324 323 323 321 314 311 311 308 306 302 302 301 301 305 304 302 299 297 296 295 294 293

GFSSE_925_thetae_039.txt.gz
Theta_e
347 347 343 343 343 344 344 346 345 343 343 344 344 343 343 341 339 339 337 338 338 338 339 339 339 337 335 333 333 333 330 324 323 323 327 332 334 334 330 327 331 332 333
348 347 343 341 339 341 342 345 345 344 344 344 343 343 341 339 337 337 333 335 335 338 339 340 338 334 332 332 331 331 329 323 322 324 327 324 328 330 329 326 331 331 333
347 345 344 343 342 342 341 344 344 343 344 343 340 340 339 338 335 334 333 339 341 339 339 339 336 332 331 330 330 331 325 322 323 328 329 330 328 330 330 328 328 332 332
345 343 344 343 343 342 340 344 343 342 343 340 339 338 337 335 333 332 333 339 341 340 339 337 333 331 331 333 333 332 326 324 327 330 330 331 332 333 336 335 325 326 329
344 342 344 343 341 341 342 344 342 343 341 340 338 337 335 333 332 332 334 338 337 337 336 332 331 332 333 334 333 330 328 327 329 331 332 334 333 332 336 335 336 337 330
344 343 342 340 339 341 342 340 341 341 340 339 338 336 333 332 333 333 334 334 333 333 331 329 325 327 329 332 329 328 329 328 331 331 333 334 332 335 333 335 336 335 336
343 343 343 341 341 342 341 340 340 341 339 339 337 336 333 333 333 333 331 331 331 332 328 325 330 329 329 329 327 328 329 330 332 331 331 331 332 332 332 335 334 333 333
342 342 342 341 340 340 340 340 340 340 340 338 337 336 333 333 333 332 328 329 329 326 327 333 332 328 327 326 326 327 328 330 331 331 329 328 327 329 329 333 331 331 330
342 341 341 340 340 339 340 339 339 338 340 339 337 335 333 332 329 328 331 330 332 332 333 333 330 326 323 322 322 324 326 328 327 326 322 324 321 326 331 332 331 329 326
343 341 341 340 339 338 338 333 334 336 338 340 337 335 333 330 329 328 327 330 332 331 332 333 327 323 319 319 320 321 321 320 321 320 318 321 320 328 331 330 329 327 325
344 342 340 339 338 337 336 336 333 335 331 339 337 334 332 331 330 327 331 330 332 330 334 332 326 318 315 315 315 315 316 317 316 316 320 328 332 332 330 327 326 324 323
343 343 341 339 338 336 337 338 335 336 337 337 337 337 334 332 331 330 331 328 331 331 334 331 326 318 317 316 315 313 315 315 317 317 326 330 330 329 327 325 323 322 320
342 343 342 340 338 336 336 337 334 334 334 335 336 336 334 332 333 332 332 328 332 333 333 330 326 321 319 317 316 314 314 316 317 319 326 328 328 326 323 322 320 319 318
342 341 341 341 339 338 337 336 336 335 334 335 334 334 332 333 333 333 332 331 329 332 332 330 325 320 317 315 313 314 314 316 318 324 327 327 325 323 320 319 318 317 317
342 341 341 340 341 339 338 338 338 337 335 334 334 334 333 334 335 334 333 332 332 331 330 329 325 319 316 313 312 313 313 314 316 321 324 323 322 320 318 317 317 316 315
341 342 341 340 341 341 339 340 341 339 338 336 334 334 333 333 335 335 335 334 333 332 330 328 325 320 316 313 312 312 313 314 315 318 322 320 320 318 316 315 315 314 314
339 341 342 342 342 341 341 339 339 342 340 338 336 334 333 333 333 333 333 334 334 332 331 328 325 319 316 313 312 312 312 314 314 316 318 318 316 315 313 313 313 313 312
325 328 337 341 342 342 341 341 339 340 342 340 338 337 334 333 332 332 333 334 333 333 333 330 325 318 315 313 313 311 312 313 313 313 314 315 313 311 311 310 311 309 309
321 322 323 326 335 340 342 341 340 339 340 342 341 339 337 335 333 331 332 333 332 333 332 330 324 318 317 314 313 310 310 311 312 312 312 311 311 309 309 307 307 305 306
319 320 320 321 322 329 336 339 340 338 338 338 341 340 339 337 335 333 331 332 332 333 331 329 324 320 318 315 312 309 307 308 310 311 309 309 308 307 307 305 302 299 299
316 317 318 319 320 320 326 333 340 339 338 337 337 340 340 339 337 335 333 331 331 331 331 329 324 319 317 315 309 307 307 306 307 310 309 307 306 305 305 305 301 300 299
313 314 316 317 318 319 320 323 333 338 337 336 337 338 338 340 338 337 335 333 331 331 331 329 324 320 315 312 310 312 312 307 304 305 308 307 305 304 303 302 300 300 299
315 314 313 313 314 316 317 318 321 332 337 337 336 336 336 337 338 337 336 334 332 331 331 329 325 320 316 311 313 314 317 316 307 304 306 306 305 304 302 301 300 299 298
316 317 315 314 313 312 314 316 318 325 332 336 335 336 336 335 334 337 335 335 333 331 331 329 326 320 316 312 309 311 311 310 312 307 304 305 305 303 302 300 299 298 297
317 317 317 316 314 314 312 313 315 318 324 331 332 331 331 333 333 332 334 334 333 332 331 328 326 319 317 316 312 309 308 305 306 308 306 302 303 303 302 301 299 298 296
316 316 316 316 315 314 314 313 313 315 322 327 330 330 330 331 333 332 330 331 332 331 330 327 325 320 318 318 313 311 309 307 303 303 306 303 301 301 300 300 299 297 296

GFSSE_925_thetae_042.txt.gz
Theta_e
347 339 337 343 344 344 343 344 344 343 344 345 344 343 341 340 339 337 338 337 337 339 340 339 338 336 334 334 334 333 325 323 321 322 323 330 333 330 330 332 332 333 332
346 342 340 343 344 343 343 344 344 343 344 342 342 342 340 339 336 335 334 336 335 340 340 338 335 334 333 332 332 331 322 321 326 328 328 321 326 331 330 329 330 333 331
347 345 342 341 343 343 341 344 343 344 343 342 339 340 338 336 334 333 337 340 338 339 340 336 333 332 331 331 331 327 321 324 328 329 330 330 328 333 328 324 329 332 329
346 345 344 339 340 339 342 343 342 344 342 340 337 338 336 333 333 332 340 342 341 340 338 333 331 331 332 333 332 325 322 329 330 331 333 332 332 337 338 332 333 329 333
344 344 344 344 344 340 342 343 341 343 341 339 337 336 334 332 332 335 339 339 338 337 335 330 329 332 333 332 329 326 326 330 331 332 331 332 331 334 337 336 337 335 335
343 345 343 342 340 342 342 342 341 341 340 338 337 334 333 333 333 336 336 335 335 333 331 326 322 325 328 328 328 328 328 331 331 332 332 331 330 333 335 335 336 337 337
344 344 342 340 340 341 341 340 340 340 339 338 336 333 333 333 334 334 332 332 332 332 328 327 329 326 328 327 326 328 328 331 331 331 331 330 328 331 334 334 334 332 332
345 343 340 339 340 340 340 340 340 340 339 337 336 334 333 334 332 331 331 330 331 329 332 333 328 325 325 325 326 327 328 331 330 330 327 325 326 327 332 332 331 329 328
343 342 341 340 340 340 339 339 339 340 339 339 335 334 332 333 332 328 326 328 327 331 333 331 327 325 323 322 323 325 329 325 326 324 324 323 320 327 332 331 330 328 327
341 342 340 340 339 339 339 339 339 338 340 338 336 334 332 328 328 328 327 329 329 330 333 331 326 322 320 320 321 322 320 321 319 317 317 319 322 332 332 330 328 327 325
342 341 340 340 340 338 337 336 336 337 338 339 337 335 333 326 322 324 329 331 333 331 332 332 325 319 316 317 317 316 317 317 316 316 322 326 331 333 330 327 326 324 323
343 342 340 340 338 337 336 335 329 332 331 338 336 334 333 331 328 328 329 330 332 331 333 332 326 318 317 317 317 314 315 315 317 319 323 330 330 330 327 325 323 322 320
343 343 341 339 338 336 337 338 335 337 336 336 336 336 334 332 331 331 330 328 329 330 332 332 328 321 318 317 316 314 314 315 317 319 324 328 329 327 324 322 320 319 319
342 342 342 341 338 336 336 338 334 335 334 336 337 337 335 332 332 332 332 330 325 330 332 332 327 322 320 317 315 314 313 316 318 325 325 327 327 325 322 320 319 318 318
342 341 341 341 340 338 337 336 337 335 334 334 335 334 334 332 333 333 332 332 330 331 331 332 328 323 318 315 313 313 313 315 317 326 325 326 325 322 320 319 318 317 317
341 342 340 340 340 340 338 338 337 338 336 334 334 334 334 332 334 334 333 333 332 332 330 330 328 323 318 315 312 313 313 314 315 321 323 324 323 320 319 317 317 316 316
340 342 342 340 341 341 340 338 340 341 339 337 335 334 333 333 334 335 333 334 333 331 332 330 328 324 319 315 313 312 312 313 315 317 321 320 321 319 316 315 315 315 315
328 335 342 342 342 341 340 341 338 341 342 340 338 335 334 333 333 333 334 334 334 333 332 332 328 324 319 315 313 312 312 313 314 315 318 319 317 317 314 313 314 314 312
323 323 324 328 341 342 342 341 341 339 339 342 341 338 336 334 333 333 333 333 334 333 332 331 330 326 319 315 313 312 311 312 313 313 314 315 314 312 311 311 311 310 310
319 320 321 322 323 328 341 342 341 340 339 339 341 341 339 337 335 333 332 332 333 333 331 331 331 326 320 316 314 312 310 310 312 312 312 312 312 311 310 309 307 307 306
315 316 317 318 319 320 322 329 340 341 339 338 337 338 341 340 337 335 334 332 332 333 332 332 331 326 321 318 314 310 308 308 309 311 311 310 310 309 308 308 306 304 301
313 313 314 316 317 319 319 321 325 339 339 338 337 335 336 339 339 337 335 334 332 332 333 332 330 326 322 318 312 307 306 307 306 307 310 309 308 307 306 306 305 302 300
315 315 314 313 313 314 315 317 319 319 334 338 337 335 334 334 337 339 337 335 334 332 331 332 331 326 320 317 314 312 311 310 304 305 306 309 307 306 305 305 304 302 300
317 317 317 315 314 314 312 313 314 316 319 330 337 336 336 335 333 334 337 337 336 334 331 331 330 327 321 315 312 313 315 312 306 303 304 305 307 306 305 303 303 301 300
317 317 317 316 316 314 314 312 312 313 315 317 322 333 335 334 336 335 333 335 335 334 333 331 331 328 323 316 313 311 312 311 308 305 301 303 306 306 304 303 302 301 299
316 315 315 314 315 315 314 314 314 312 313 315 318 325 331 331 331 332 334 332 331 333 334 332 331 329 324 318 314 314 314 310 305 304 305 300 302 303 304 303 301 300 299

GFSSE_925_thetae_045.txt.gz
Theta_e
345 342 340 342 345 343 342 342 342 344 345 343 343 342 341 338 338 337 337 336 341 341 339 337 336 336 336 335 332 325 323 325 325 322 318 326 330 334 335 333 333 332 334
343 339 341 343 344 343 343 344 342 342 343 342 342 341 339 338 337 332 335 335 340 341 337 335 335 334 333 332 328 322 322 328 328 328 321 320 327 330 331 329 333 331 330
338 339 343 344 343 343 343 343 342 342 341 341 339 337 337 335 332 330 338 336 340 340 336 334 332 331 331 330 323 321 327 328 328 329 331 328 336 336 324 327 332 331 331
339 341 343 344 343 341 342 342 342 343 342 339 336 337 334 334 330 342 342 340 341 338 334 332 331 332 332 327 320 327 328 329 332 331 331 332 332 337 335 336 335 333 333
342 340 338 339 339 339 342 340 342 342 338 336 337 334 332 332 336 340 340 340 339 335 331 327 331 332 328 325 323 327 330 331 331 332 331 331 328 337 337 336 337 336 334
344 343 343 343 339 340 341 340 342 341 339 336 336 331 331 332 336 339 338 338 336 333 329 324 326 327 326 327 325 330 330 331 332 331 330 329 328 336 336 336 337 335 336
344 343 342 342 340 342 343 341 342 340 338 336 335 331 333 333 335 335 335 334 333 331 325 321 323 325 325 326 326 330 331 330 330 330 330 327 330 335 335 334 334 331 332
344 342 341 340 342 341 340 340 340 339 338 336 335 334 334 334 334 331 331 331 331 329 327 324 323 324 324 325 326 329 330 329 329 328 326 321 325 332 332 331 330 329 329
343 342 339 340 339 340 340 340 339 339 339 336 334 332 332 332 331 330 328 329 329 330 332 327 325 323 322 322 324 327 325 326 326 322 324 320 323 332 332 330 329 328 327
342 341 338 340 340 339 339 339 339 340 339 337 334 334 330 322 325 327 326 325 327 332 332 328 324 321 320 321 322 325 322 321 317 318 317 317 326 333 332 328 328 326 325
341 341 339 339 338 339 338 338 338 338 339 337 336 334 333 323 322 323 326 331 331 332 332 329 323 318 318 318 318 317 318 317 316 316 321 321 333 332 329 327 326 324 323
341 340 339 339 338 337 337 338 338 337 336 339 336 335 333 326 321 322 328 330 332 331 331 331 324 317 317 317 316 315 315 315 316 316 320 331 331 331 327 326 324 322 320
341 340 340 340 338 337 336 335 327 328 331 337 337 335 333 329 329 328 327 330 331 331 330 332 327 320 317 317 316 314 314 315 317 318 324 329 330 329 326 323 321 321 320
342 342 339 340 337 336 336 337 334 333 334 331 336 335 335 332 331 331 330 329 327 328 329 331 330 324 319 317 316 314 313 314 317 320 323 324 327 327 323 321 320 320 319
341 342 341 339 336 336 336 337 336 334 335 334 334 336 336 333 333 331 331 331 330 323 328 330 330 324 320 318 316 313 313 315 316 324 324 326 326 325 323 321 319 319 318
341 340 341 341 339 337 336 336 336 334 334 333 335 335 336 336 332 332 333 332 331 330 330 331 332 327 323 319 316 312 313 314 315 324 326 325 325 324 322 321 319 318 318
341 340 341 339 340 339 339 337 336 337 335 334 334 334 334 334 332 333 333 332 332 330 331 331 331 328 323 319 315 312 313 313 314 318 323 323 324 323 320 320 318 318 318
339 340 341 341 339 338 340 340 338 338 339 336 335 335 333 333 333 333 334 334 332 332 331 331 330 328 326 320 315 313 312 312 313 315 320 321 320 320 319 317 317 317 316
323 331 341 341 341 340 339 340 340 338 339 341 338 336 336 334 333 333 333 334 334 334 333 332 331 330 326 320 315 313 312 312 313 314 315 319 319 317 317 315 314 315 314
318 318 318 324 341 341 341 341 340 340 339 339 341 341 338 335 336 334 332 332 333 333 333 333 331 331 329 323 317 314 313 311 312 313 313 314 316 315 313 312 311 313 311
315 316 316 317 317 320 335 341 340 341 340 339 338 338 338 338 336 335 334 333 332 332 333 333 332 331 330 326 317 314 312 310 310 311 312 312 313 313 312 311 309 309 309
313 313 313 314 315 316 317 318 328 340 340 340 339 338 336 334 334 336 335 334 333 332 332 333 332 331 329 324 316 307 305 307 308 309 311 311 311 311 311 310 309 308 307
315 314 314 313 313 314 314 314 316 316 328 335 337 338 337 336 333 330 332 334 334 332 331 332 332 331 326 322 319 313 307 308 305 307 307 309 310 310 310 309 308 307 306
316 316 316 316 315 314 314 313 312 313 314 316 327 335 335 335 335 334 333 331 332 334 333 331 331 331 328 321 316 315 315 313 306 306 305 306 308 309 308 308 307 306 305
316 316 316 315 315 315 314 314 314 312 312 312 314 317 320 330 334 334 334 333 332 332 332 333 332 329 328 324 318 315 311 312 308 304 305 304 304 307 308 306 306 305 304
315 315 314 314 314 314 314 313 313 313 314 313 313 313 315 316 326 331 331 331 333 331 331 332 332 332 329 326 321 318 314 312 311 305 307 304 305 305 306 305 305 304 303

GFSSE_925_thetae_048.txt.gz
Theta_e
345 343 340 342 343 342 343 343 342 344 344 345 345 342 339 336 337 334 331 341 341 339 337 336 337 337 337 335 334 334 334 331 324 321 323 329 334 335 333 333 331 333 335
344 341 342 345 344 342 343 343 343 344 343 343 344 342 340 336 333 334 336 341 340 337 336 335 335 334 334 332 332 333 333 328 328 323 321 322 325 331 332 332 329 330 333
342 341 342 344 343 343 343 342 342 342 342 342 338 336 337 334 328 338 337 341 339 337 335 333 332 331 330 327 325 330 328 329 330 329 330 335 337 328 327 328 331 331 331
340 341 343 343 343 343 342 342 341 342 340 337 335 336 333 327 339 339 340 341 339 336 332 331 331 332 329 325 328 328 330 331 330 330 332 331 335 335 335 336 333 334 335
338 344 344 343 343 343 341 342 341 342 338 335 335 333 329 330 340 340 341 340 338 331 326 330 332 326 322 324 328 329 330 331 331 331 331 328 333 337 338 337 337 335 336
341 343 344 343 341 342 340 342 341 339 337 335 335 329 331 338 341 339 339 338 335 331 326 327 326 325 324 323 329 330 330 331 331 330 329 327 333 336 336 336 336 336 336
340 339 339 339 338 341 339 341 341 339 337 335 333 331 333 337 338 339 337 335 333 331 322 320 324 325 325 326 329 330 330 331 330 329 329 325 335 336 336 335 334 332 332
342 343 344 340 339 342 340 342 340 339 337 335 334 334 334 335 335 337 334 333 332 329 321 322 323 323 324 325 329 330 330 330 329 328 324 319 331 333 330 331 329 329 329
342 342 342 340 342 342 340 341 340 339 337 335 333 330 332 333 333 333 331 330 330 327 323 323 323 323 323 324 327 329 328 327 326 324 323 319 328 332 330 328 329 328 327
342 341 340 341 341 339 339 339 338 338 338 335 334 332 325 320 326 331 331 331 330 332 326 324 323 321 320 322 325 328 324 323 322 319 317 317 329 333 330 327 328 326 325
341 339 339 339 338 339 339 339 339 340 339 337 334 333 331 318 320 323 325 326 330 333 330 326 323 320 319 320 322 325 320 318 316 316 319 318 334 334 329 327 327 325 323
339 338 338 338 339 338 338 339 338 338 339 338 335 333 333 326 319 320 322 326 329 332 332 329 323 317 317 317 317 318 317 316 315 316 317 327 334 332 328 326 325 323 321
340 339 338 337 337 338 338 337 337 337 337 339 336 334 333 329 321 322 325 329 330 330 329 331 327 318 317 317 316 314 314 314 316 317 322 332 332 330 328 326 322 321 320
339 340 339 339 337 336 335 336 335 335 336 337 337 335 333 331 328 328 325 328 328 328 329 330 330 325 318 317 316 314 314 314 315 319 322 328 330 329 327 323 321 321 319
340 340 339 339 338 337 336 336 333 329 327 329 333 335 334 333 331 331 330 329 329 328 326 327 330 329 325 319 317 316 314 313 315 318 322 324 324 326 325 323 321 321 319
341 341 340 338 339 337 336 336 336 335 333 333 331 332 334 335 334 332 331 331 331 330 326 323 328 330 325 321 318 317 314 313 314 316 323 325 326 325 324 323 322 320 319
341 340 341 339 337 335 335 336 336 336 334 334 334 334 334 335 336 333 332 331 332 331 331 329 330 331 331 326 320 318 313 313 313 314 322 326 326 325 324 323 322 320 319
340 340 339 339 340 338 337 336 336 335 336 334 334 333 334 334 334 335 332 332 332 332 331 330 330 330 331 327 321 319 315 312 313 313 317 324 324 324 323 321 322 320 319
338 340 339 340 340 339 339 339 338 337 337 338 337 333 333 334 334 333 333 332 333 332 332 330 331 331 329 327 321 319 316 313 312 312 314 319 322 322 321 319 319 318 318
319 324 337 340 340 340 339 338 339 339 339 337 338 339 334 334 333 333 333 333 333 334 333 332 331 331 331 330 326 321 315 313 312 312 313 314 318 320 319 318 317 316 316
314 316 317 318 326 337 340 340 339 339 339 339 338 338 339 338 337 334 333 333 332 332 333 333 333 332 331 330 322 316 316 313 312 311 312 313 314 316 318 316 314 314 314
313 313 313 313 314 315 318 328 336 339 340 340 340 339 337 337 336 335 335 334 333 332 332 332 332 332 332 330 321 311 311 313 313 313 311 311 312 313 315 315 313 312 311
314 314 313 313 313 313 313 313 314 315 323 335 335 336 335 336 337 336 335 334 334 333 331 332 332 331 329 327 324 320 306 311 306 310 310 310 310 311 312 314 313 311 310
316 315 315 315 315 314 313 313 313 311 311 313 315 317 328 333 334 335 335 334 333 331 332 332 331 331 330 327 322 319 317 311 308 311 308 307 306 308 310 310 311 311 310
316 315 315 314 314 314 314 313 313 313 313 313 312 312 313 316 319 321 330 334 332 330 330 332 332 330 330 328 324 321 315 313 309 307 309 308 307 307 306 309 309 309 309
314 314 313 313 313 313 313 313 313 313 313 314 314 314 314 314 315 317 324 329 332 332 331 330 329 330 329 329 326 323 319 314 313 308 304 305 306 309 308 306 308 308 307

GFSSE_925_thetae_051.txt.gz
Theta_e
345 344 343 345 342 341 341 345 346 345 344 345 341 339 337 335 335 329 341 341 339 337 336 338 338 339 338 336 336 336 333 326 319 320 326 332 334 332 332 331 331 333 337
345 343 344 345 345 342 344 344 343 343 343 344 343 342 338 335 331 335 341 339 337 336 335 335 336 336 335 334 335 332 328 327 322 325 326 323 325 331 332 326 328 333 337
344 342 344 344 345 342 343 342 343 342 342 342 339 337 337 332 329 336 341 339 338 336 333 333 332 332 331 332 333 331 330 329 328 329 332 336 329 327 328 329 330 331 333
342 342 345 344 343 343 342 341 342 342 341 338 336 334 332 327 336 337 341 340 337 334 331 331 331 330 330 330 329 330 329 329 329 330 328 334 335 333 337 333 334 336 335
340 343 344 343 343 342 341 341 341 341 338 335 334 331 326 340 341 341 341 338 335 329 323 330 328 328 330 329 330 331 330 330 330 330 329 330 335 337 337 337 335 336 336
340 342 343 342 342 341 342 341 342 338 335 334 334 327 334 341 342 342 340 336 332 329 317 323 323 322 327 328 330 330 329 330 330 329 325 331 335 337 337 336 336 334 335
342 343 342 343 342 341 341 342 341 337 335 333 332 329 338 341 340 339 338 337 332 330 317 322 324 323 323 329 329 330 330 331 329 328 327 330 335 336 334 333 334 332 332
343 343 343 342 339 341 341 342 339 338 335 334 333 328 335 338 338 339 337 334 333 329 320 321 323 324 325 328 329 329 330 331 329 328 322 326 332 334 331 331 330 328 329
340 339 339 338 338 339 340 341 340 339 337 335 333 323 332 333 335 336 336 334 333 331 326 323 324 323 324 326 329 329 329 329 328 325 322 319 329 331 329 328 328 328 327
341 342 342 338 342 340 340 342 339 339 337 335 333 327 318 319 330 333 333 331 333 332 328 325 324 323 323 324 327 325 326 325 323 322 319 317 329 334 328 327 327 326 325
343 342 341 340 342 341 339 339 338 338 338 335 334 332 325 319 322 323 325 328 330 331 327 325 323 321 320 321 324 326 321 319 317 317 317 318 332 333 328 327 326 325 323
341 340 340 341 340 339 338 339 338 339 338 336 334 333 332 322 320 322 324 324 325 331 330 327 323 319 318 319 320 322 319 317 316 316 317 321 333 331 329 326 326 323 321
341 339 339 339 339 338 338 338 339 339 339 338 335 333 333 330 321 321 322 325 326 330 331 331 328 321 316 317 317 316 316 315 314 316 318 327 334 332 329 327 324 322 321
339 338 338 338 337 338 337 338 338 337 338 338 338 335 333 332 324 319 321 324 327 328 329 327 330 327 320 317 317 316 313 313 314 316 318 327 332 332 329 327 323 322 320
339 339 338 338 337 337 337 337 337 336 336 336 336 336 334 333 330 325 326 324 326 328 328 327 327 329 328 323 318 317 316 315 313 314 318 324 328 329 328 325 323 322 320
339 339 339 338 338 337 336 335 335 334 331 330 330 332 335 334 333 332 330 330 330 329 329 329 324 325 328 327 323 320 317 316 313 313 316 322 325 326 326 325 324 323 321
340 339 339 339 339 338 337 336 335 335 333 331 332 331 331 333 334 334 332 331 331 331 331 330 327 325 329 330 326 322 319 318 314 313 314 318 323 325 326 325 325 323 322
340 340 340 340 338 338 337 336 335 335 335 334 334 334 333 333 334 335 335 334 332 331 331 331 329 329 330 330 331 328 323 318 315 313 313 314 321 325 325 324 323 324 322
338 339 339 339 339 338 336 335 335 335 335 335 335 334 334 333 334 334 334 334 333 331 331 331 331 330 330 330 330 329 326 320 317 315 313 312 315 321 324 323 322 321 321
334 337 339 339 339 338 339 338 338 337 335 336 337 337 337 334 333 333 333 333 333 332 331 332 331 331 330 330 329 329 327 323 317 315 314 312 312 315 320 322 321 320 320
317 325 330 335 338 339 339 339 338 338 338 339 338 338 337 338 337 333 333 333 332 332 332 332 332 331 330 329 326 325 326 324 319 317 315 313 312 312 315 319 320 319 318
313 314 315 317 318 322 331 338 338 339 339 339 339 339 339 338 337 337 336 336 334 332 332 331 331 331 331 331 324 314 315 318 321 320 317 313 312 312 312 315 318 318 316
313 313 313 313 313 313 313 314 316 322 328 332 337 338 338 338 338 338 337 336 335 334 333 333 331 330 329 329 327 324 313 314 309 319 319 315 313 311 311 312 314 317 316
314 315 315 314 314 313 313 313 313 312 312 313 315 316 317 320 328 332 334 335 335 335 334 333 331 331 330 328 325 324 324 318 314 314 315 313 310 309 310 310 310 312 315
315 314 314 313 313 313 313 313 313 312 313 313 313 312 312 313 314 316 318 320 326 333 334 331 330 330 330 329 327 324 320 315 312 310 320 315 314 313 312 309 308 309 310
313 313 313 313 312 312 313 313 312 312 312 313 313 313 314 314 314 314 316 320 323 327 332 332 331 330 329 329 328 327 323 317 313 310 310 314 311 312 312 312 310 307 307

GFSSE_925_thetae_054.txt.gz
Theta_e
342 344 342 345 344 343 343 345 346 345 344 343 340 337 336 334 328 341 341 340 336 336 338 338 338 338 338 336 336 333 331 326 323 323 332 333 332 332 330 329 331 337 336
342 341 343 344 342 341 345 344 344 343 343 344 340 339 336 331 331 341 339 337 336 334 335 336 337 337 336 336 334 331 326 325 328 329 324 323 327 331 328 326 331 336 337
344 341 343 344 343 341 343 343 342 342 342 342 338 335 335 329 336 341 339 338 337 333 333 333 334 334 334 335 333 331 328 326 327 329 333 331 330 331 329 326 328 330 335
343 342 343 344 343 343 341 342 342 342 341 337 335 334 331 334 337 341 340 338 335 330 331 330 330 331 331 332 330 329 328 328 328 327 330 334 334 336 335 333 337 337 330
342 343 343 343 342 342 341 342 342 341 337 335 335 329 334 340 339 341 339 336 331 320 329 330 331 330 331 330 331 329 329 329 329 327 328 335 336 338 337 335 336 335 336
341 343 343 343 343 341 340 340 343 337 335 334 332 327 340 341 341 342 339 334 330 319 324 326 327 328 329 330 330 329 329 329 328 325 327 334 336 337 336 336 335 333 334
343 344 344 342 342 340 340 341 341 337 335 333 328 331 339 341 342 340 337 332 332 323 323 325 324 325 328 329 329 329 330 329 328 327 325 333 335 334 333 333 333 332 332
342 343 342 341 341 340 341 342 339 336 334 332 328 323 338 337 339 338 337 334 332 327 322 325 325 325 327 329 329 329 330 330 328 327 322 327 332 332 331 330 330 329 329
342 342 342 342 341 340 342 341 339 337 335 334 330 318 333 335 335 336 336 334 333 330 328 325 324 324 325 327 328 328 329 329 328 324 321 320 326 331 329 327 327 327 327
343 343 342 340 338 340 341 341 340 338 336 335 332 323 324 327 333 334 335 333 332 329 325 324 324 324 324 325 327 326 327 326 324 322 319 317 326 333 328 326 326 326 324
342 340 339 337 339 339 339 341 339 338 337 335 333 329 321 320 325 330 330 328 329 328 325 323 322 321 320 321 324 327 323 322 318 317 316 318 327 334 328 326 323 324 322
341 342 341 338 341 341 339 341 338 338 338 335 334 333 329 319 319 323 325 327 329 330 329 326 323 320 319 319 321 324 325 319 316 315 316 318 328 335 330 327 325 323 320
342 341 340 339 342 341 339 339 338 337 338 337 335 333 332 329 320 319 321 323 323 328 331 329 327 322 317 317 317 317 317 316 314 314 316 318 329 335 331 329 327 322 319
340 340 339 340 340 339 338 338 338 338 338 338 337 334 333 332 329 321 320 321 324 326 327 328 328 329 323 317 317 317 316 313 313 314 315 318 328 334 330 329 325 320 320
340 340 338 338 338 338 337 337 338 338 337 337 337 337 334 333 332 325 320 321 323 326 327 327 327 327 328 327 323 318 317 316 315 314 313 317 323 328 330 329 325 324 322
340 339 338 338 337 337 337 336 336 336 336 336 335 335 335 334 333 331 328 327 327 327 328 329 328 328 326 327 327 326 321 319 316 315 313 314 319 325 328 328 326 325 324
339 339 339 338 338 337 336 335 334 334 335 334 331 328 331 333 334 333 332 332 330 330 330 330 330 329 327 325 328 329 326 323 320 318 314 313 315 320 324 326 327 326 324
339 339 339 339 339 338 338 336 335 335 334 333 332 332 332 331 331 333 333 334 334 332 331 330 330 330 330 328 328 329 330 329 326 321 316 313 313 315 319 323 325 326 325
339 340 339 339 339 338 338 338 337 336 335 335 334 334 334 333 333 333 334 334 334 334 333 331 330 330 331 330 329 330 330 330 329 326 322 316 314 313 315 319 323 323 323
336 336 338 338 339 339 337 336 335 335 334 335 334 334 334 334 334 333 333 333 333 334 333 332 331 330 330 331 329 329 329 329 329 327 324 322 318 316 313 315 321 323 322
326 335 334 337 337 337 337 337 337 337 337 336 335 335 336 336 337 336 332 332 332 332 332 332 331 331 330 330 327 327 328 328 327 329 328 322 317 314 313 313 316 321 322
314 317 324 329 332 335 337 338 338 338 338 337 337 338 338 338 338 337 337 337 335 332 332 332 330 330 330 330 328 319 321 324 326 326 325 323 320 316 313 312 312 317 321
312 313 314 315 315 315 318 325 329 331 333 335 336 337 338 338 338 337 337 337 336 336 334 334 332 330 329 329 328 327 317 319 313 322 323 321 319 317 315 311 310 311 315
313 313 314 313 313 313 313 313 312 312 312 312 313 315 316 315 317 323 329 331 333 334 335 334 334 332 330 328 327 326 325 320 318 319 319 320 320 322 319 318 314 310 310
314 314 313 313 313 313 313 313 312 312 312 312 313 313 312 312 312 312 313 316 318 321 323 329 333 332 330 329 327 326 324 319 316 313 321 319 319 318 319 315 315 314 311
312 312 312 312 312 312 313 313 312 312 312 312 312 313 313 313 314 315 315 317 318 321 325 328 330 330 330 329 328 325 326 320 315 312 311 312 314 316 316 315 315 314 313

GFSSE_925_thetae_057.txt.gz
Theta_e
342 342 344 345 345 344 345 347 347 347 346 343 338 336 335 333 341 342 341 337 336 337 339 337 337 339 340 336 332 327 324 321 321 328 325 331 332 331 330 334 337 338 336
342 346 344 345 345 345 345 345 344 344 343 342 340 338 333 336 342 339 337 336 335 335 336 337 337 339 338 333 330 327 327 329 331 327 323 327 330 331 328 330 335 338 336
344 346 345 344 344 344 344 344 343 342 342 341 337 336 331 337 341 339 339 337 333 333 335 335 336 337 336 334 332 330 327 327 329 333 331 333 335 333 330 336 335 334 336
346 347 347 343 343 343 343 342 342 342 341 336 334 335 332 338 342 340 339 336 331 332 331 332 333 334 333 330 329 328 328 328 326 327 334 336 337 337 333 338 338 335 330
345 345 344 343 341 342 341 341 342 341 336 334 332 329 334 336 341 341 338 332 327 330 331 331 330 331 330 330 329 329 329 329 326 326 336 338 338 337 336 336 336 336 335
344 344 343 342 343 342 341 342 341 338 334 332 327 337 340 337 342 339 337 331 321 323 328 327 328 329 330 329 328 328 328 327 326 325 333 335 338 337 336 335 334 333 335
344 344 344 342 342 341 341 343 340 336 334 332 327 340 340 339 341 338 336 331 325 325 327 325 327 328 328 329 329 329 329 328 327 324 329 333 335 332 330 331 332 331 331
343 344 345 343 342 340 340 342 338 335 332 331 324 338 339 339 338 337 335 333 330 324 329 328 325 326 328 329 329 329 330 329 327 322 322 327 329 330 329 329 329 329 329
345 345 344 343 340 340 340 342 337 335 334 332 321 337 337 337 336 336 336 333 332 323 325 325 325 325 327 328 328 328 329 329 327 323 320 318 325 331 328 327 327 327 324
343 344 342 342 341 341 343 340 338 336 335 334 329 323 336 335 335 335 335 333 331 324 323 323 323 323 323 324 327 327 327 326 323 320 317 317 328 331 328 327 323 323 320
343 343 343 342 341 339 341 340 339 338 336 335 332 325 321 327 333 334 334 331 328 326 325 324 323 322 321 322 323 327 324 322 319 316 315 316 324 334 330 327 326 323 317
343 343 342 340 339 340 340 341 338 337 337 336 334 332 326 319 320 323 325 326 328 329 327 325 323 321 319 319 320 322 325 322 317 315 315 316 324 333 332 329 328 324 316
341 340 339 338 339 340 340 341 338 337 337 336 335 333 331 327 319 320 323 325 327 327 330 328 326 323 318 317 317 317 317 317 315 314 314 316 323 335 332 330 327 324 317
339 340 341 339 340 342 340 339 339 337 337 337 336 335 333 332 329 323 319 320 321 323 326 328 328 328 327 321 317 316 316 316 314 314 314 315 318 332 332 329 326 324 320
341 341 340 339 340 341 339 338 338 338 338 338 338 337 335 333 332 330 322 319 321 324 325 326 327 327 326 328 327 325 321 318 318 315 315 314 316 325 328 329 329 325 323
340 340 339 339 339 339 338 337 337 337 337 337 336 336 336 335 333 332 330 325 322 323 325 328 329 329 329 326 325 326 327 324 321 318 317 315 314 318 324 328 329 327 325
339 340 338 338 338 337 337 336 336 335 335 335 335 335 334 334 333 333 332 331 331 329 329 329 329 329 330 329 328 327 328 329 328 325 322 319 314 314 317 323 328 328 326
338 339 339 338 337 337 336 336 335 334 334 334 334 333 330 329 331 331 332 332 332 332 332 331 330 330 330 330 330 330 329 329 329 329 328 324 320 316 314 317 320 327 327
338 338 338 338 338 338 338 337 336 335 335 334 334 333 333 332 332 332 332 333 333 333 333 333 333 332 330 330 330 331 330 330 330 330 330 329 325 321 317 315 316 320 324
335 338 338 338 338 338 338 337 337 337 337 336 335 334 334 334 334 333 333 333 333 333 333 333 333 332 331 330 329 329 330 331 330 330 330 330 328 322 318 315 314 318 321
317 334 335 337 338 338 338 337 336 336 336 335 334 335 334 334 334 335 335 335 333 332 332 332 331 331 330 330 327 328 329 329 330 330 329 328 328 325 322 315 313 314 318
313 319 329 333 336 337 337 337 337 337 337 337 337 337 336 336 335 336 336 336 336 335 335 333 331 329 329 330 329 323 328 326 326 326 326 326 325 323 321 318 314 312 312
312 313 317 323 329 333 334 336 336 336 336 336 336 337 337 337 337 336 336 336 336 336 335 335 334 331 329 329 329 328 324 326 319 325 324 323 322 323 323 319 318 315 312
311 312 314 314 314 315 316 319 320 322 319 317 316 317 320 320 318 318 323 329 334 333 333 333 334 333 330 328 327 327 326 324 322 322 322 322 322 321 321 319 317 316 315
312 313 312 312 312 312 312 312 312 312 312 312 312 312 312 312 312 312 312 313 315 317 321 326 327 331 330 329 326 325 325 321 320 317 321 322 320 321 320 320 318 317 315
312 312 312 312 312 312 312 312 312 312 312 312 312 312 312 313 313 315 315 316 317 318 319 322 325 323 324 327 328 327 327 322 319 313 314 314 315 317 318 317 316 314 313

GFSSE_925_thetae_060.txt.gz
Theta_e
346 348 345 343 345 344 344 346 345 345 345 343 342 338 340 340 342 342 338 337 337 338 337 339 341 339 338 335 333 332 331 325 322 324 327 331 331 332 335 338 339 335 335
344 348 345 344 345 344 345 345 345 344 343 342 342 336 342 343 341 338 337 335 337 337 337 337 338 338 337 336 335 335 333 331 328 325 332 333 328 331 330 332 338 337 337
343 347 347 345 343 345 345 345 344 343 342 340 338 335 340 342 339 340 337 334 335 337 337 338 339 338 336 335 331 327 327 327 331 331 335 336 336 335 338 338 331 337 337
344 345 346 344 343 344 344 343 342 342 340 333 335 333 338 343 341 340 336 332 333 333 334 336 337 335 332 329 329 328 328 326 327 336 337 339 337 337 338 338 338 331 332
345 344 346 343 343 344 343 342 342 341 334 331 332 329 338 343 341 339 334 330 332 333 332 334 333 330 329 329 329 328 328 323 330 336 338 338 339 339 338 337 337 337 337
345 344 345 343 342 343 342 342 342 337 332 329 326 332 337 342 341 337 331 322 329 332 333 332 329 328 328 328 328 328 326 326 329 333 335 336 336 336 335 333 332 333 334
344 344 346 342 343 341 341 342 340 334 333 324 339 340 336 342 340 336 332 326 328 330 328 329 329 328 329 329 329 329 327 327 328 329 331 332 334 332 330 330 332 329 326
344 344 347 343 343 341 343 342 337 334 331 327 339 339 337 342 338 336 333 332 325 330 328 325 326 327 328 328 328 329 329 328 327 326 327 328 328 331 329 329 328 326 324
344 344 346 346 344 341 342 342 336 334 333 325 338 338 338 339 337 335 334 333 327 326 326 325 324 324 326 328 327 328 328 327 327 324 322 324 329 331 329 324 322 322 321
346 346 345 347 344 343 344 341 337 335 334 328 332 337 337 336 336 335 335 333 330 323 324 324 324 324 324 325 327 326 327 325 324 323 322 321 330 333 329 327 326 323 315
346 347 346 344 343 344 345 341 338 336 335 333 325 325 333 333 334 335 335 332 330 326 324 324 324 322 322 322 323 326 325 322 321 320 319 317 322 333 333 328 328 325 315
344 345 345 345 344 344 344 343 339 338 339 338 336 332 329 328 330 331 332 329 327 328 326 325 323 321 321 323 323 322 323 322 319 319 320 316 320 330 336 329 328 325 318
341 343 343 344 343 343 343 343 339 337 339 339 337 335 332 329 327 328 329 329 331 329 332 330 330 327 324 320 319 319 318 318 317 317 317 315 317 328 335 331 329 324 321
343 343 342 342 342 341 341 342 340 339 338 339 338 336 335 333 332 329 327 328 330 329 331 332 331 331 329 326 320 319 318 318 318 317 318 315 315 324 333 332 328 326 323
341 341 342 342 340 341 342 341 341 340 339 338 338 337 336 335 334 332 329 326 326 328 329 330 331 330 330 328 327 325 324 322 321 319 318 317 315 316 329 332 331 328 326
341 342 342 342 341 342 342 341 340 339 339 339 338 338 337 335 335 334 332 330 327 327 329 331 333 333 332 332 330 329 329 328 326 322 320 320 320 315 316 324 330 330 327
340 340 341 341 340 340 341 340 339 338 338 338 338 338 337 335 334 333 333 332 332 330 330 331 332 332 333 333 332 332 331 330 329 326 323 322 322 322 317 315 321 329 328
339 339 340 339 339 339 338 338 337 337 336 336 337 337 337 336 335 335 334 334 334 333 333 333 333 333 333 333 333 333 332 332 331 330 329 326 325 323 323 321 315 320 328
339 339 339 338 338 339 339 338 338 337 337 336 337 336 336 335 335 335 335 335 335 335 334 334 334 334 334 334 334 333 332 332 332 331 330 329 327 323 323 323 322 317 320
336 339 339 338 339 339 339 339 338 338 337 337 336 336 335 335 335 335 336 336 335 335 335 335 335 335 334 334 334 332 332 332 332 331 330 330 329 325 322 322 322 323 320
317 335 338 338 339 339 339 338 338 338 338 338 337 337 336 335 335 335 336 336 336 336 336 335 335 335 334 334 332 332 332 331 330 329 328 328 326 324 323 322 321 321 321
316 320 332 336 338 339 340 340 339 339 338 338 338 337 336 336 336 336 336 337 337 336 336 335 335 334 333 333 332 332 332 328 327 326 326 325 323 322 320 319 319 318 319
314 314 318 325 333 336 338 336 334 334 336 336 337 338 336 336 335 335 335 336 335 335 335 336 335 334 332 332 330 332 332 329 326 325 324 321 320 319 318 316 317 318 317
314 313 314 316 321 323 328 329 332 334 335 327 325 324 325 327 326 324 325 329 332 332 331 331 330 330 330 330 329 328 328 327 327 326 324 323 319 319 317 320 320 316 315
313 313 314 314 313 314 315 315 317 317 315 313 313 313 313 313 312 312 312 313 317 321 320 322 325 326 325 327 328 326 325 324 323 323 324 324 322 321 320 317 316 314 313
314 313 313 313 313 312 312 313 314 315 314 314 314 314 314 314 315 314 314 315 316 318 321 321 321 322 323 323 324 326 325 323 323 321 320 321 320 321 319 317 315 313 311

GFSSE_925_thetae_063.txt.gz
Theta_e
348 349 343 343 343 343 344 344 344 344 344 343 339 337 335 342 342 338 336 338 338 338 342 342 340 339 337 336 336 334 329 324 325 328 323 325 332 332 337 338 337 336 337
347 348 345 344 345 344 344 344 344 343 342 342 337 342 344 342 338 337 336 337 337 337 338 339 338 338 338 337 336 332 333 328 330 335 336 333 336 339 336 336 337 338 338
347 348 347 344 344 344 345 345 344 342 341 341 336 342 341 339 340 336 334 337 336 336 337 337 337 337 336 333 330 326 325 330 335 337 337 337 337 339 339 334 334 338 336
346 348 347 344 345 345 345 344 342 341 337 335 334 340 343 341 340 335 333 334 335 336 337 337 337 334 332 331 329 327 321 335 337 338 338 336 339 340 339 339 335 337 338
345 346 350 344 344 345 344 342 341 339 333 331 330 337 343 341 339 335 333 334 334 334 335 335 334 332 330 329 329 327 323 333 334 335 338 338 338 337 337 335 337 336 336
344 345 347 344 344 344 342 342 341 335 331 328 326 336 342 341 338 332 327 331 333 334 334 334 332 330 329 329 328 325 326 328 332 334 335 335 333 334 333 333 332 331 332
343 347 345 344 343 343 342 342 339 332 329 324 332 331 340 342 337 333 325 328 330 332 333 333 330 328 328 328 328 327 326 326 328 329 331 332 332 331 331 330 327 325 327
343 346 346 344 343 342 342 341 336 333 325 339 340 336 342 341 336 334 331 325 330 329 327 327 326 327 328 327 328 328 326 328 326 326 327 330 331 331 327 322 320 315 319
343 344 345 345 345 342 343 340 335 331 326 339 341 338 342 338 336 335 333 329 325 327 326 324 324 325 327 327 327 327 327 325 326 324 322 328 330 332 328 325 326 322 312
342 345 343 346 345 344 344 339 335 335 326 337 339 339 339 337 336 335 333 332 326 323 323 323 323 323 323 324 326 326 325 324 324 323 322 318 329 333 330 329 328 325 315
343 345 345 346 343 344 343 339 336 335 333 326 336 336 334 336 336 334 337 333 329 324 324 323 323 321 321 321 322 323 324 324 322 321 321 318 321 331 333 330 329 326 319
345 345 346 345 343 344 345 341 339 338 337 336 331 327 330 331 333 333 334 331 328 327 324 324 323 321 320 325 325 321 324 323 321 320 320 318 317 327 333 333 329 325 322
343 346 344 344 343 343 345 342 341 337 339 339 338 335 330 328 328 327 331 329 331 327 332 329 329 329 326 323 321 321 320 320 319 319 319 317 315 321 333 333 331 326 323
342 343 344 344 343 343 342 343 341 337 339 339 338 337 335 333 332 329 328 329 331 331 331 333 332 331 331 329 324 322 321 321 321 320 319 318 316 315 332 332 331 328 325
341 341 341 342 341 341 340 342 342 339 338 338 339 338 337 336 335 333 330 326 327 327 329 330 331 330 331 330 329 328 326 325 324 323 321 320 320 316 317 332 333 330 328
342 341 340 340 340 339 341 340 341 338 338 337 337 338 338 336 335 335 333 331 327 327 328 329 332 334 334 333 333 331 330 330 330 328 325 323 323 323 318 317 327 331 330
342 342 342 342 341 340 341 341 340 338 337 337 337 337 337 336 335 334 334 333 333 331 330 331 332 333 334 334 334 334 333 332 332 331 328 326 325 324 325 322 316 324 330
341 342 342 342 340 339 340 341 339 337 336 336 337 337 338 337 336 336 335 335 335 335 334 334 334 334 334 334 334 333 333 333 333 333 332 331 329 327 326 325 325 318 322
340 341 341 341 340 340 339 339 338 338 338 337 337 338 338 338 336 336 337 336 336 336 336 336 335 335 335 335 334 334 334 334 334 334 333 332 332 330 327 326 324 324 321
338 340 341 341 340 340 340 340 339 339 339 338 338 338 338 337 336 336 337 337 337 337 336 336 336 336 335 335 334 335 334 334 333 333 332 331 330 330 329 325 324 324 324
331 339 340 341 340 340 340 340 340 340 340 339 339 338 338 337 337 337 337 337 336 336 336 336 336 334 334 335 334 334 334 333 333 331 330 328 328 327 325 325 324 323 323
319 329 338 340 340 340 340 340 340 340 340 340 340 340 338 338 337 337 337 337 336 336 336 336 335 335 334 334 334 333 333 331 329 328 327 327 326 325 323 321 321 321 320
318 318 329 336 338 340 340 341 340 339 339 339 339 339 339 338 338 337 337 336 335 336 335 335 335 334 334 333 332 332 333 331 328 326 326 325 323 322 321 319 319 319 319
317 317 317 322 331 336 338 339 336 335 337 337 336 336 333 329 329 327 328 331 332 333 333 333 332 331 331 332 331 331 329 329 328 328 325 325 324 320 320 319 318 317 316
317 317 317 317 319 321 324 330 332 334 333 326 320 318 316 316 314 315 314 316 317 320 323 323 325 325 325 326 327 328 326 326 326 326 326 324 325 322 320 320 317 316 314
316 317 316 316 316 316 317 318 320 320 317 316 316 316 316 316 317 317 314 316 317 318 320 322 322 322 321 321 322 323 325 325 322 322 322 322 323 322 320 319 316 314 312

GFSSE_925_thetae_066.txt.gz
Theta_e
349 341 339 344 344 344 344 343 343 343 342 341 341 340 343 341 336 336 338 339 341 343 341 339 339 338 338 336 335 327 326 333 333 326 328 336 339 340 337 337 336 338 338
348 342 339 342 343 343 344 343 343 342 341 337 343 344 341 338 335 336 338 339 338 342 340 339 338 338 336 334 333 329 330 335 335 335 336 337 339 334 333 334 336 338 335
347 345 342 342 343 344 344 343 342 341 339 334 344 342 340 339 334 334 338 336 336 337 337 337 337 336 334 330 324 326 335 336 337 336 337 339 338 339 337 331 335 337 338
348 346 345 344 344 344 344 343 341 340 333 333 343 341 341 338 334 334 335 336 336 336 336 336 335 334 332 329 321 334 336 335 336 338 337 337 337 338 340 338 338 338 337
348 347 346 344 344 345 343 341 340 334 330 330 342 342 341 339 334 333 333 334 335 336 335 335 333 329 329 328 322 330 332 334 335 334 334 333 333 334 336 334 333 334 334
347 347 343 344 344 344 342 341 338 333 328 327 339 343 341 337 331 331 333 333 333 334 334 331 328 327 328 325 324 327 328 331 332 335 334 332 330 332 332 331 326 326 325
349 348 343 343 344 343 342 341 336 330 325 324 336 342 341 337 332 321 327 327 329 328 327 327 327 327 327 328 326 323 326 327 328 330 330 328 328 330 327 323 322 322 321
348 346 342 343 343 342 342 339 333 327 333 336 332 339 343 336 333 328 325 329 327 327 326 326 326 327 326 327 326 325 327 327 325 324 326 328 327 330 328 326 323 318 319
346 345 345 343 342 341 341 337 332 326 339 340 336 340 340 336 334 332 326 324 327 324 322 322 324 325 326 326 325 325 323 325 324 322 325 324 329 330 329 328 327 321 315
344 342 344 344 342 342 341 335 332 325 339 340 338 341 339 336 334 333 331 326 321 322 322 322 322 322 322 323 324 324 323 324 323 322 322 319 326 333 331 330 328 323 317
345 342 345 345 344 343 342 336 335 330 327 338 338 338 337 336 335 333 336 331 325 321 321 321 321 320 320 321 320 320 323 323 322 320 321 321 317 329 333 332 330 326 320
344 342 343 345 343 344 341 337 336 336 331 326 332 334 329 336 336 335 335 332 326 323 321 322 321 320 323 324 324 322 323 323 321 320 319 320 315 322 333 331 331 328 322
344 344 346 343 341 345 343 339 337 336 338 336 332 326 330 329 331 332 330 325 323 324 323 329 328 328 326 324 321 321 320 320 319 319 318 319 317 315 325 332 331 329 325
344 345 344 343 342 344 344 341 339 337 337 338 338 336 332 329 328 327 330 330 331 333 332 333 332 332 330 330 327 323 321 321 321 321 320 319 319 317 318 328 330 329 327
342 343 343 344 343 342 342 343 341 337 337 339 338 337 336 334 334 332 329 327 329 329 329 330 331 330 330 330 329 328 327 326 325 324 323 322 321 322 319 324 332 331 329
341 342 343 342 342 342 341 340 342 337 338 337 338 338 337 336 335 335 333 329 326 326 327 328 329 332 333 333 333 332 331 330 330 329 328 325 324 324 324 320 322 332 331
342 341 340 340 339 339 339 340 340 340 338 337 337 337 337 336 335 335 334 333 332 330 328 329 331 332 333 333 333 333 333 333 332 332 331 330 328 326 325 325 324 321 330
341 341 340 341 340 340 339 340 339 338 337 337 337 337 337 337 336 335 334 333 334 334 333 332 332 333 333 333 334 333 333 333 333 333 333 332 332 330 328 326 326 325 324
340 342 342 341 341 340 339 339 339 339 337 336 336 337 338 338 336 335 336 335 335 335 335 335 335 335 335 334 333 333 333 333 334 334 334 333 332 332 331 329 328 325 323
339 341 342 342 341 340 339 339 338 338 337 337 337 337 337 338 337 336 336 336 337 336 335 335 335 335 334 335 334 334 333 333 334 333 333 333 332 330 329 328 327 325 324
338 340 340 341 340 340 340 339 339 339 339 338 338 338 338 337 337 336 336 337 336 335 335 335 335 334 333 332 333 334 333 333 333 333 332 332 329 328 327 326 324 324 323
325 338 340 341 340 340 340 340 339 340 340 340 339 339 338 338 337 337 337 337 335 336 335 335 335 335 334 333 333 332 330 329 329 328 330 329 327 327 324 323 321 321 320
319 322 337 340 340 340 340 340 339 339 340 340 340 340 339 338 337 337 336 336 335 335 335 335 335 335 334 333 332 331 330 328 326 326 327 326 325 323 322 320 320 319 319
318 318 320 335 339 340 340 340 340 340 339 339 338 338 338 337 338 337 336 335 334 333 332 332 331 331 331 331 331 331 330 330 328 325 324 325 325 323 320 320 319 317 316
317 317 318 322 332 336 339 339 339 338 336 334 332 335 333 330 322 320 319 317 318 319 321 324 324 325 324 325 324 324 326 325 324 326 324 322 324 324 323 320 318 315 314
317 317 316 317 319 326 332 335 334 334 332 325 323 320 316 316 316 315 315 314 315 317 318 320 321 322 322 322 320 320 320 322 323 323 321 320 321 322 321 318 316 316 313

GFSSE_925_thetae_069.txt.gz
Theta_e
345 342 343 343 343 343 343 342 342 340 341 339 343 342 338 336 337 340 341 342 341 340 339 339 338 337 336 332 329 334 334 333 335 337 337 337 339 339 339 337 337 334 337
342 342 342 342 344 344 343 342 341 339 338 340 344 340 337 334 336 339 339 342 342 340 339 337 336 334 333 327 333 335 335 335 336 338 337 338 336 336 334 334 334 339 340
340 340 343 343 343 343 343 342 340 338 337 344 340 339 335 334 337 336 337 341 341 339 338 336 335 334 323 327 334 335 335 335 337 337 337 336 338 335 338 338 339 338 339
339 340 344 343 343 343 342 341 340 336 338 340 339 340 335 334 335 337 336 337 336 335 335 335 334 327 320 330 335 334 334 337 337 337 335 333 335 336 336 334 336 336 335
340 341 342 343 343 343 342 340 335 331 336 342 339 339 335 334 334 334 335 337 335 334 334 333 328 325 320 331 331 329 334 335 334 333 331 328 327 333 335 328 326 328 331
344 342 343 343 344 343 341 338 330 329 331 342 341 339 336 333 334 333 334 334 334 334 333 328 326 324 322 323 328 329 330 331 334 332 332 322 328 331 329 324 322 324 326
347 343 343 344 344 341 341 336 331 327 327 341 342 340 334 328 328 330 331 332 333 333 329 327 326 326 324 322 324 326 327 328 328 327 327 320 326 331 329 325 323 324 325
346 343 343 344 342 341 340 334 329 325 325 339 342 340 335 331 321 322 325 329 330 327 326 326 326 325 325 324 323 326 326 324 323 324 326 324 325 329 329 326 322 322 323
345 342 344 344 341 341 339 333 326 335 333 332 340 341 335 333 329 320 325 324 323 323 323 324 324 324 324 324 323 324 325 324 322 322 322 318 329 330 329 329 326 321 319
344 342 343 343 341 341 337 330 328 339 339 335 340 341 336 335 332 328 322 322 323 321 321 321 321 321 321 322 322 322 324 323 322 321 321 320 321 331 331 331 329 322 319
343 343 342 342 341 341 335 332 326 338 339 337 340 339 336 335 333 329 327 324 320 320 321 320 320 319 319 322 320 320 323 322 320 320 320 320 316 325 332 331 330 328 321
344 343 342 342 341 341 336 335 334 325 335 338 338 338 335 336 335 333 333 330 324 319 320 320 320 319 324 323 323 322 323 322 321 320 319 319 318 316 328 332 331 329 324
343 343 344 343 341 341 338 336 336 336 329 327 327 328 331 334 336 334 331 326 324 321 318 328 327 326 325 324 321 320 320 320 319 319 318 318 318 317 317 327 331 330 326
342 342 343 342 340 343 339 338 336 336 337 335 335 328 329 329 327 327 328 329 329 331 329 332 332 331 330 329 328 325 322 321 321 321 320 320 320 320 319 321 327 329 328
342 344 345 342 339 342 342 340 337 336 336 337 336 335 330 331 330 328 328 329 329 330 329 330 331 330 330 330 329 328 328 328 327 326 324 322 322 322 322 321 332 331 330
342 342 344 342 339 340 343 341 339 337 336 337 338 337 336 335 334 331 330 327 326 327 328 328 329 329 331 332 332 332 332 330 330 330 330 329 327 326 325 324 322 331 333
341 342 341 342 341 341 340 340 340 337 337 338 338 337 337 336 335 335 333 332 329 326 326 327 328 330 332 333 333 333 333 333 333 332 331 331 330 330 329 328 326 324 328
340 341 342 342 341 339 341 338 336 338 339 339 337 337 337 336 335 335 334 333 332 332 331 330 330 330 332 333 333 333 333 333 332 332 332 332 332 332 331 330 328 327 325
340 341 340 340 338 339 338 338 337 337 339 337 337 337 337 337 336 335 334 334 333 334 334 334 334 334 334 334 332 332 332 333 332 333 333 333 333 332 330 327 328 328 326
340 340 340 339 340 338 337 339 338 339 337 336 336 336 337 337 337 336 335 336 335 335 334 334 333 333 333 332 333 331 331 331 332 332 333 333 333 332 330 328 327 327 325
339 340 340 341 340 340 339 339 339 339 337 336 336 337 337 337 337 337 336 336 335 334 334 333 333 334 334 332 332 333 332 331 330 329 328 331 333 329 327 326 325 323 323
337 339 338 339 340 340 339 338 339 338 338 338 336 337 337 337 337 336 336 336 336 334 334 334 334 333 332 330 331 332 329 328 328 328 327 328 330 326 324 323 322 321 321
334 339 339 339 338 339 339 339 339 338 339 339 339 338 338 338 338 337 337 336 335 335 334 333 333 332 333 331 331 331 328 327 326 326 327 327 325 324 323 322 320 319 319
322 333 338 340 338 339 339 338 338 339 339 339 339 339 339 338 337 336 336 336 335 334 333 333 332 331 331 329 330 329 331 330 327 325 324 324 324 324 323 321 320 320 318
318 319 326 337 339 339 339 339 338 337 338 337 338 338 338 337 337 337 335 334 330 328 326 323 323 324 325 325 325 325 323 323 324 323 321 322 321 323 322 320 319 317 316
318 317 317 322 334 337 336 338 337 337 337 335 334 335 335 333 328 318 315 314 314 315 316 317 319 320 321 321 322 321 319 320 321 322 320 320 320 320 322 318 315 314 313

GFSSE_925_thetae_072.txt.gz
Theta_e
343 344 344 345 344 343 343 343 342 341 338 343 342 337 336 341 343 343 343 341 340 341 339 338 336 334 336 338 338 336 337 337 337 336 336 337 338 338 337 334 339 339 336
344 344 344 344 344 343 341 341 338 333 341 342 339 336 336 339 342 342 343 342 340 338 338 335 335 336 338 338 335 334 335 337 337 337 337 333 335 339 338 339 338 339 338
345 344 343 343 343 342 342 340 336 338 342 338 338 334 336 337 339 342 343 342 340 338 336 334 334 334 335 335 334 336 336 336 336 335 335 336 337 338 338 337 336 338 337
345 343 343 343 343 342 341 341 335 343 339 338 337 334 336 335 336 339 341 339 338 336 335 332 328 331 335 334 332 334 336 336 335 333 331 333 333 335 334 335 337 335 335
344 344 343 342 342 342 341 340 336 343 337 338 335 334 335 337 335 337 336 336 334 334 333 324 322 333 333 330 333 335 335 333 332 330 325 324 330 333 330 324 322 329 334
344 344 342 342 342 342 340 335 334 342 340 339 336 334 334 334 335 336 336 332 332 333 328 324 321 328 330 328 329 331 334 334 331 328 318 323 328 329 326 325 325 326 327
343 343 342 343 342 341 338 331 333 341 341 340 337 335 334 334 334 335 334 334 334 333 327 325 321 321 326 327 328 327 327 328 325 326 319 323 330 332 329 326 325 326 327
342 343 343 343 341 340 335 331 331 335 342 341 338 334 334 334 333 333 333 334 333 333 328 325 324 323 321 323 325 325 324 323 322 324 321 323 326 332 329 324 322 322 324
342 343 344 343 341 340 334 329 328 329 340 343 339 334 329 321 326 331 332 332 331 326 326 325 324 323 323 322 325 325 324 322 322 322 320 321 328 330 329 329 325 320 319
342 342 344 342 341 339 332 325 326 327 338 341 341 335 333 329 321 324 324 323 322 322 322 322 322 322 322 322 321 324 323 322 322 321 320 319 321 329 330 331 330 324 319
344 342 343 342 341 338 332 327 337 337 333 339 343 336 334 331 329 323 320 322 322 321 321 321 320 319 319 319 320 322 322 322 320 320 320 319 317 320 329 330 329 328 322
344 344 342 341 341 337 331 327 337 338 336 338 341 336 335 333 332 328 327 324 320 320 320 320 319 319 322 323 322 323 323 322 321 320 319 318 318 317 322 331 330 329 325
341 342 342 340 340 338 334 331 326 337 337 337 340 337 334 335 334 333 332 327 324 321 320 320 321 321 323 323 321 320 320 319 319 319 318 318 319 318 317 326 330 329 327
330 339 340 340 339 340 336 335 335 327 330 333 336 334 333 333 334 333 330 327 321 321 320 330 330 329 329 329 328 326 324 322 321 322 321 321 320 320 320 321 324 327 328
340 340 339 340 340 340 338 336 336 335 333 334 331 324 328 330 329 327 327 329 329 330 329 331 330 331 330 329 329 329 328 328 328 328 327 325 323 323 323 323 330 331 330
340 341 339 340 340 340 340 337 337 336 335 336 336 334 331 329 329 327 328 328 328 328 328 328 329 330 329 330 331 331 331 331 331 330 330 330 329 329 328 327 325 328 332
341 340 342 341 339 340 341 340 339 337 336 336 337 336 333 335 334 334 330 329 326 326 326 327 327 328 330 332 332 332 332 332 333 332 332 331 331 330 330 330 329 327 327
340 340 339 339 337 340 342 342 339 338 336 337 337 337 336 336 335 335 333 332 331 328 327 326 327 329 330 331 332 333 333 332 331 330 331 331 332 332 332 329 330 327 327
340 340 340 340 340 340 342 340 338 338 338 337 338 338 337 337 336 335 334 333 333 332 332 331 332 332 333 333 333 331 331 331 331 331 330 331 332 333 332 331 329 328 326
340 341 341 340 339 340 339 339 338 336 339 339 337 337 336 337 336 336 334 334 333 333 334 334 332 332 332 332 332 330 330 329 329 329 331 331 331 332 332 330 329 327 326
339 339 339 339 340 339 338 337 338 338 339 337 335 336 336 336 337 337 336 335 335 335 334 333 333 333 333 331 331 330 329 329 330 328 329 329 329 330 331 328 327 325 323
338 339 339 338 339 339 339 338 337 339 339 338 335 335 335 336 336 336 336 336 335 335 334 334 334 334 333 330 330 330 326 327 328 328 328 328 327 328 326 324 324 322 321
336 337 336 337 338 339 339 338 339 339 338 337 336 336 337 336 336 336 336 336 335 335 334 334 332 332 332 331 329 331 327 325 324 326 326 326 325 324 323 322 321 320 320
325 336 337 336 336 337 338 339 338 338 337 337 337 336 337 337 336 336 337 336 335 335 334 334 333 332 331 330 330 329 329 330 327 325 324 324 323 322 321 319 318 318 318
321 331 336 336 335 337 338 338 337 338 337 336 335 335 337 337 336 336 336 336 335 334 334 333 333 327 324 324 324 324 323 322 322 323 323 321 321 321 321 319 317 317 316
317 317 321 332 335 337 337 335 334 333 334 334 335 336 335 334 333 334 334 333 332 327 319 316 315 316 318 319 320 321 321 319 318 319 317 317 319 319 320 319 316 314 313

GFSSE_925_thetae_075.txt.gz
Theta_e
344 343 342 345 344 344 343 343 342 339 342 340 338 343 343 343 344 344 343 341 341 340 337 334 337 338 338 338 339 339 338 337 334 336 336 334 337 337 339 338 338 335 333
344 343 343 344 345 344 343 342 338 338 343 340 336 340 343 343 344 343 342 341 339 337 336 336 337 338 339 339 337 335 336 335 335 332 332 339 339 339 338 338 337 336 336
343 343 344 344 343 342 342 339 332 343 340 336 336 337 341 343 343 343 340 340 338 335 335 336 338 338 337 337 336 335 335 334 333 334 334 336 337 338 338 336 336 335 336
344 344 344 343 342 342 340 336 338 342 337 336 335 336 339 342 343 343 341 339 337 335 335 336 335 334 334 332 335 335 335 334 332 329 329 331 332 334 333 333 333 334 334
344 343 343 343 342 342 340 335 342 340 337 336 335 336 336 339 342 341 339 337 336 334 331 332 334 333 331 334 335 334 333 331 330 324 322 327 327 328 328 324 323 330 332
343 342 343 342 341 340 339 338 342 340 339 335 335 336 336 335 337 337 336 334 333 325 322 332 333 330 331 333 334 334 333 330 325 317 320 325 328 329 328 326 326 327 329
342 342 342 341 341 340 338 336 342 339 339 337 335 334 335 336 337 335 334 329 328 322 321 328 331 329 328 329 329 330 329 326 324 320 321 326 331 331 328 326 326 327 327
343 342 342 341 341 339 333 332 342 340 340 337 335 335 334 335 336 335 333 334 333 325 322 321 323 326 326 326 325 325 323 322 323 320 321 324 330 333 330 325 321 323 325
342 342 342 342 340 337 331 330 337 342 340 336 332 332 333 333 333 334 335 333 333 326 324 323 322 321 322 324 325 324 322 321 322 321 320 322 328 331 330 330 328 320 319
338 341 343 342 340 337 331 328 329 341 342 338 333 329 323 324 327 331 331 330 326 324 324 323 323 323 322 322 324 324 322 322 321 320 320 319 320 327 328 328 328 327 320
339 340 343 341 340 337 330 326 327 337 342 341 335 331 328 323 323 323 323 322 322 321 321 322 321 321 321 322 322 323 322 321 320 319 319 319 317 321 326 327 328 328 324
340 342 343 341 340 337 330 326 330 331 340 342 336 333 331 329 324 321 321 321 321 321 320 320 320 319 321 321 320 322 323 322 320 319 319 318 318 319 321 329 327 329 327
339 343 343 341 340 337 329 329 337 337 335 340 340 335 334 332 330 328 327 324 321 321 320 321 320 319 322 322 321 320 320 319 319 319 318 318 319 319 320 323 326 327 327
329 337 340 340 340 337 332 327 336 337 336 338 341 336 334 333 333 332 332 328 325 322 320 321 322 323 326 328 327 325 324 324 322 322 322 321 321 320 320 322 327 325 327
332 325 330 334 338 338 334 333 328 331 337 337 339 337 332 333 333 333 331 328 326 323 323 327 330 330 330 329 329 329 328 328 328 327 328 328 326 324 324 323 327 330 331
333 331 330 336 336 338 335 336 335 332 326 329 330 330 328 329 329 328 327 327 328 328 329 329 329 330 329 329 330 330 330 331 331 331 331 331 330 329 328 328 327 328 329
334 327 326 336 336 337 338 336 336 336 335 333 334 331 327 329 329 330 327 327 327 327 327 328 327 327 328 330 332 332 332 332 332 332 331 331 331 330 330 330 327 328 327
339 337 333 334 337 334 338 337 336 337 336 335 335 336 335 332 331 332 332 330 329 326 325 325 326 327 328 330 330 332 333 332 331 330 329 329 329 329 331 331 330 328 326
338 339 339 338 337 334 335 338 339 338 336 335 335 336 337 335 334 334 334 333 332 331 329 328 327 329 331 332 332 331 330 330 329 329 329 329 329 330 331 332 331 330 327
338 339 339 339 338 338 336 337 338 339 339 337 336 336 336 336 335 335 335 334 333 332 332 332 332 332 332 332 331 331 329 330 329 328 329 329 329 329 330 332 331 330 326
339 339 339 338 337 336 337 338 338 337 339 338 339 338 336 337 336 336 335 334 334 333 333 334 333 332 332 332 332 330 328 328 328 327 327 328 328 329 328 329 330 327 326
337 338 338 338 338 337 338 338 338 338 337 336 338 336 335 336 336 336 336 335 334 335 335 334 333 333 333 333 332 330 325 327 327 327 327 327 327 326 328 327 327 325 323
332 336 337 336 338 338 338 338 338 337 337 338 338 335 335 335 336 336 336 336 335 335 335 333 333 333 332 331 331 329 327 323 323 327 325 325 325 325 323 323 323 321 321
322 330 335 336 336 335 336 338 337 335 336 335 337 336 335 335 335 336 335 335 334 334 334 334 333 332 331 331 330 330 329 328 327 323 323 323 323 322 321 321 319 319 318
322 322 330 335 335 336 336 337 337 336 336 334 333 333 333 334 335 335 335 333 332 330 331 330 332 331 332 330 326 323 323 322 322 322 321 320 321 321 320 319 318 317 316
318 319 322 332 333 335 337 336 334 334 333 333 332 332 331 332 332 332 331 328 325 327 329 330 329 323 318 317 318 318 320 319 316 316 315 316 317 318 318 318 316 315 314

GFSSE_925_thetae_078.txt.gz
Theta_e
342 343 344 344 344 344 341 342 341 339 341 342 342 342 343 343 344 344 343 341 339 337 337 337 336 338 339 340 340 340 338 336 335 332 334 337 340 340 339 335 334 333 332
342 343 343 344 344 343 342 341 338 340 335 340 343 343 344 344 344 343 340 340 338 336 336 337 339 338 338 339 340 338 334 331 331 337 338 339 338 338 337 335 333 335 335
343 342 344 343 343 342 342 338 337 342 336 335 342 343 343 344 343 341 341 338 336 336 337 338 338 338 338 336 334 334 332 331 331 333 335 336 336 335 335 333 332 334 334
343 342 344 343 342 342 341 332 342 341 336 335 339 343 343 343 343 342 339 337 336 336 338 339 338 335 332 334 334 334 332 327 325 326 328 327 328 330 331 332 333 333 332
343 343 344 342 341 341 337 337 342 339 336 335 336 340 342 342 343 341 339 336 335 336 337 336 333 332 333 334 334 333 330 328 320 320 324 321 324 328 328 327 327 331 332
344 343 343 342 341 340 335 339 342 338 336 335 334 337 341 342 342 338 337 335 334 334 335 334 331 332 334 334 333 332 329 323 316 319 323 327 328 330 328 328 328 329 330
343 342 342 341 341 339 334 342 339 338 336 335 337 334 337 339 338 337 334 334 332 331 334 332 329 331 331 332 332 329 325 324 319 321 324 328 331 331 328 325 326 327 328
341 341 341 340 340 339 334 342 339 337 336 335 335 336 334 335 336 334 332 333 330 328 332 331 329 328 328 327 327 325 323 323 320 320 324 326 332 333 329 328 322 323 325
340 341 340 340 340 337 330 339 340 339 336 334 334 334 335 336 333 334 333 333 327 321 322 325 326 325 326 325 324 323 321 322 321 320 320 322 328 333 330 327 327 322 322
339 340 340 340 339 335 326 330 342 340 337 330 331 332 332 334 334 332 331 332 326 323 323 323 322 322 323 325 324 323 321 321 321 320 319 319 322 329 327 327 327 326 321
337 338 340 340 339 334 330 326 338 343 339 334 330 328 330 331 332 333 330 330 325 325 324 323 323 322 322 321 322 322 322 321 320 319 319 318 318 327 328 326 327 327 325
333 338 340 341 339 336 328 325 329 341 342 337 333 328 325 327 327 326 326 324 323 322 322 321 321 320 320 320 320 321 322 321 320 319 319 318 318 321 325 328 325 326 326
329 338 339 341 340 336 331 323 326 335 341 339 334 331 329 327 324 324 324 323 322 321 321 320 320 319 321 322 321 321 320 319 319 319 319 319 319 319 322 323 327 327 325
334 335 338 341 340 337 331 324 327 328 338 339 338 334 333 331 329 326 325 324 322 320 320 320 320 320 322 325 325 324 323 324 324 323 324 323 322 321 321 323 325 327 327
329 328 326 327 337 338 331 327 335 336 333 336 340 337 334 333 332 330 331 329 327 324 321 319 324 327 328 328 328 328 328 328 328 328 328 329 329 328 325 325 327 329 331
327 326 324 327 331 335 336 329 331 335 336 335 338 339 336 333 333 332 331 329 327 325 325 324 329 329 329 329 329 330 330 331 331 331 331 331 331 330 329 328 326 328 329
325 327 325 326 327 329 335 333 329 329 330 336 337 337 335 330 329 329 329 327 327 327 328 328 328 327 328 328 330 331 331 331 331 331 331 329 328 329 329 330 329 328 328
328 331 332 330 327 335 335 333 333 332 330 328 328 329 328 325 329 329 330 329 327 327 327 327 327 326 326 327 329 330 332 332 330 329 328 328 328 328 327 329 330 331 329
333 333 335 333 336 330 336 331 331 334 335 334 332 333 334 333 332 330 331 333 330 329 327 325 325 325 327 330 331 332 330 329 329 329 328 328 328 329 329 329 331 331 330
335 333 332 333 330 334 335 335 334 329 334 336 335 335 335 336 335 332 332 333 333 331 330 329 329 329 331 332 331 330 329 329 329 328 328 327 327 327 328 328 328 331 329
336 334 335 334 332 334 333 332 332 335 334 336 337 335 335 336 336 336 333 333 333 332 332 332 332 332 331 330 330 330 329 328 328 327 327 327 326 326 328 328 327 330 328
336 335 336 335 334 334 334 333 329 334 334 335 337 337 335 336 336 337 335 335 334 333 332 332 333 333 331 331 332 329 324 325 325 326 326 325 325 325 326 326 327 326 325
330 335 337 336 335 334 335 335 334 335 335 335 336 336 336 335 335 334 335 334 334 333 334 334 334 332 333 330 330 330 324 322 322 326 325 324 324 324 324 324 325 323 322
320 325 335 336 336 335 335 334 335 334 333 333 334 336 334 333 333 333 333 333 333 333 334 332 332 332 331 331 330 330 330 328 326 321 322 322 323 322 321 321 320 320 320
317 319 324 334 334 334 333 333 334 334 333 332 332 333 331 333 332 332 332 333 332 331 329 329 329 330 330 329 329 328 324 323 322 321 317 317 319 319 320 319 317 317 317
316 316 318 325 333 334 333 332 334 333 332 332 332 332 331 331 330 330 330 331 328 326 325 322 322 321 328 328 321 318 318 318 315 315 314 314 315 317 318 318 318 315 315

GFSSE_925_thetae_081.txt.gz
Theta_e
343 344 343 344 344 343 342 341 341 341 342 340 343 344 343 341 343 343 344 341 339 338 337 336 340 339 339 340 340 340 338 335 334 335 339 338 340 339 336 331 333 333 336
344 345 344 344 344 341 342 341 336 340 341 340 342 344 340 344 345 344 342 339 339 338 337 337 338 338 339 339 338 336 331 336 337 338 337 337 336 337 336 333 334 336 336
344 345 345 343 342 341 341 339 338 334 341 342 343 343 344 345 344 342 340 339 337 337 338 338 337 338 338 337 333 332 330 333 334 335 335 335 333 334 332 331 332 332 335
344 345 345 343 341 341 340 337 341 333 335 342 343 344 344 343 342 341 338 337 337 338 338 337 337 336 334 333 333 330 326 326 327 327 327 327 327 329 331 333 333 332 332
345 344 344 342 341 340 335 339 342 335 333 339 342 342 344 343 341 340 337 336 337 338 338 337 334 334 336 335 336 329 325 319 322 320 320 326 328 329 329 327 331 331 331
343 343 343 341 341 338 330 342 340 334 335 334 341 341 342 342 341 338 336 335 335 338 338 333 333 335 335 335 332 327 319 318 318 323 328 329 330 330 329 329 329 329 330
342 342 343 340 340 334 335 342 338 335 335 336 339 341 342 342 340 338 334 334 335 336 335 331 333 334 334 333 329 324 322 318 320 323 327 332 332 332 330 328 329 329 328
342 342 341 340 339 334 336 341 337 333 335 336 334 339 341 339 337 336 333 333 335 336 333 330 330 329 329 330 328 323 323 320 320 322 326 333 333 333 330 327 325 326 326
340 341 341 339 338 335 340 339 338 333 332 334 334 332 336 337 335 335 333 333 334 335 333 330 328 327 326 324 323 321 321 322 320 320 321 326 331 333 329 327 326 323 321
339 339 340 339 339 335 337 340 339 336 330 332 333 334 334 333 334 333 334 334 332 328 328 327 325 324 325 324 323 322 321 321 321 320 319 320 325 330 325 326 326 326 322
337 339 339 338 338 334 328 340 340 339 333 327 331 332 333 333 333 333 333 333 329 324 324 324 324 324 323 323 323 322 321 321 320 319 318 318 319 329 329 326 325 326 325
328 332 336 338 337 332 326 332 341 340 336 331 327 329 331 331 332 330 330 329 326 325 324 323 323 322 322 321 320 321 322 321 319 319 318 318 318 322 326 326 326 326 325
329 326 334 336 338 334 329 327 337 341 338 336 330 325 326 328 329 328 327 325 324 323 322 321 320 319 319 320 321 320 320 319 319 320 320 320 319 320 323 324 326 327 326
327 326 335 337 337 336 330 326 328 339 340 337 334 329 326 325 325 324 324 323 322 322 321 320 320 319 321 322 323 322 322 324 325 325 326 326 325 323 322 325 327 331 328
325 326 333 329 331 337 333 326 325 330 339 339 337 333 331 329 326 324 323 324 323 321 320 320 320 321 323 327 328 328 328 328 329 329 329 329 329 329 328 327 326 330 330
326 325 329 328 326 332 334 328 326 326 331 338 338 337 334 332 330 328 329 330 328 325 322 320 324 328 329 329 328 329 330 330 331 331 331 331 330 330 330 329 328 328 330
326 326 327 328 326 334 335 331 331 335 335 333 335 338 338 335 332 332 332 330 328 327 325 326 327 329 328 328 328 330 331 330 331 331 330 330 328 328 327 328 329 329 330
328 328 326 325 325 329 331 333 330 332 335 336 335 336 338 337 331 330 329 329 327 327 327 328 328 327 326 326 328 329 330 331 330 329 329 328 328 327 328 328 328 329 330
327 326 326 325 326 328 331 330 331 331 331 330 333 336 336 335 331 328 329 330 329 327 326 326 326 326 325 327 329 331 331 330 329 329 329 328 328 328 328 328 328 330 331
329 327 326 326 326 331 334 329 330 333 333 334 333 330 329 330 329 327 330 331 330 329 329 326 325 325 327 331 331 331 329 329 329 328 328 327 327 326 326 327 328 328 329
331 331 330 332 333 331 332 333 333 333 332 333 333 335 334 333 333 332 333 332 331 332 331 329 329 328 329 330 330 330 330 328 328 328 326 326 325 323 325 327 328 326 328
331 332 331 331 331 330 331 331 331 331 329 331 333 334 333 334 334 334 334 333 332 333 332 331 330 331 332 331 331 329 330 328 325 326 325 325 324 324 325 325 324 325 326
331 332 332 332 331 332 331 330 330 330 330 332 332 333 332 334 335 333 334 333 332 332 332 332 331 332 332 332 330 329 328 329 325 325 324 323 323 323 323 323 323 324 324
327 330 329 331 332 333 332 331 332 332 330 329 332 332 332 332 333 333 333 332 331 331 331 331 332 331 330 331 329 329 328 328 328 327 321 321 321 321 321 321 320 321 321
316 318 322 330 332 332 333 332 332 331 325 326 329 330 330 332 332 331 332 331 331 331 329 326 326 327 327 329 329 328 327 326 323 322 320 319 318 318 317 319 319 317 317
314 315 317 323 331 333 332 331 331 331 328 329 330 331 331 330 330 331 331 330 330 330 328 324 324 324 323 325 324 323 319 318 317 318 318 317 316 316 316 316 316 317 315

GFSSE_925_thetae_084.txt.gz
Theta_e
344 346 344 344 344 343 343 340 341 339 336 344 344 343 339 339 342 344 344 342 339 339 338 340 343 343 343 343 342 339 338 342 340 338 339 339 338 336 335 334 335 337 339
343 346 344 344 344 343 343 340 339 341 337 342 344 345 345 343 345 344 343 341 339 338 339 341 342 340 339 340 338 339 341 337 337 336 335 335 335 337 337 335 338 340 339
345 346 345 344 342 342 341 337 340 340 339 341 343 344 344 344 344 343 341 340 338 337 339 340 339 338 338 339 337 336 335 336 335 334 331 329 332 333 331 332 332 335 336
345 345 345 343 341 339 338 338 338 340 341 339 342 342 344 344 342 341 340 339 338 338 338 337 338 339 338 336 331 328 326 328 327 325 325 326 325 331 333 333 333 333 333
345 344 345 342 340 340 335 341 331 337 341 341 342 343 344 343 342 340 339 337 337 337 336 337 334 334 333 334 327 324 321 323 320 326 329 329 329 330 330 330 331 332 332
344 344 345 342 341 340 333 341 338 328 339 342 341 342 342 342 341 338 336 336 337 336 336 336 336 336 335 331 326 317 318 320 329 330 331 331 331 331 331 330 330 330 330
343 344 344 341 341 338 335 342 338 328 328 341 341 342 342 341 339 337 335 336 337 336 336 336 336 335 333 330 325 319 318 324 329 331 332 333 333 332 330 330 330 330 329
342 343 343 341 340 332 341 341 335 328 328 338 341 341 343 341 338 336 336 335 337 337 336 334 334 334 333 329 323 322 319 322 327 330 332 332 333 333 331 329 328 328 328
342 342 342 342 339 335 342 340 331 328 333 333 340 341 342 338 336 335 336 337 337 337 334 331 330 328 328 327 322 321 322 321 326 327 328 331 331 333 330 328 327 325 323
339 342 342 341 340 339 341 339 334 330 331 333 334 338 338 337 335 334 334 335 336 335 332 329 327 326 324 323 322 321 321 321 325 325 326 327 326 331 326 326 326 325 323
334 330 341 341 340 338 340 340 337 332 328 334 331 332 335 335 333 333 333 333 334 333 330 327 325 324 324 324 323 321 321 323 323 324 323 318 321 331 329 326 325 326 325
331 327 332 339 340 337 338 341 341 338 333 331 332 333 334 332 332 332 333 333 329 326 325 325 324 322 322 325 323 322 324 323 322 322 322 318 319 323 328 326 327 326 326
326 325 328 335 336 336 333 340 340 340 336 333 331 332 333 333 333 332 332 332 331 326 328 327 326 325 324 323 324 323 324 322 322 321 320 320 319 320 326 326 327 328 327
325 325 327 332 336 334 334 334 341 341 339 337 332 330 331 331 332 331 331 331 330 328 328 327 326 325 324 324 324 323 322 323 324 324 325 326 325 323 323 326 327 329 330
329 327 328 331 333 336 336 332 336 341 340 338 336 331 329 330 331 330 329 329 328 328 326 326 325 324 324 325 328 328 328 329 329 328 329 329 329 329 329 326 327 328 330
329 327 327 325 328 329 335 334 332 337 340 340 337 334 331 331 329 328 327 328 328 327 326 325 324 325 326 329 330 330 330 331 331 331 331 331 330 330 330 329 328 327 329
327 327 327 327 329 329 334 335 331 332 337 340 340 338 334 334 332 331 330 332 331 330 328 326 324 329 331 330 330 330 331 332 331 332 332 331 331 329 328 328 327 328 328
328 329 330 326 327 329 336 334 333 334 333 335 339 339 338 336 335 334 334 334 333 330 329 329 329 330 329 329 329 331 331 332 332 331 331 331 330 330 330 329 328 328 328
329 330 329 329 328 328 336 335 333 334 336 336 336 336 338 339 336 334 332 332 333 330 329 329 330 329 328 328 329 331 332 332 331 331 330 330 330 330 330 329 328 328 328
329 329 328 327 326 329 334 335 334 332 332 333 333 336 336 337 337 335 331 332 332 331 329 329 328 328 328 329 331 331 332 331 331 331 330 329 329 329 327 327 329 330 329
329 329 328 328 327 329 334 336 335 336 336 335 333 332 333 332 332 333 330 332 332 332 331 330 329 328 329 331 333 330 330 331 330 329 328 326 326 325 326 327 329 329 329
328 330 329 329 329 327 330 333 333 333 332 332 334 335 335 334 333 333 332 332 332 331 333 331 329 330 331 332 331 332 330 329 327 326 327 326 325 324 325 324 325 326 327
327 329 329 329 329 328 329 329 329 329 330 331 332 332 333 333 333 333 333 332 332 329 333 333 332 332 333 332 330 330 330 329 327 326 326 325 323 323 324 323 322 322 323
324 327 324 328 331 329 329 329 329 327 330 329 328 327 332 330 331 332 330 331 332 332 330 331 331 332 332 331 330 329 331 329 328 325 323 322 322 319 320 321 320 319 320
324 327 324 324 328 329 328 330 329 328 329 327 328 327 330 327 327 330 332 331 328 330 330 331 330 329 329 328 327 327 328 330 328 327 320 318 319 319 319 318 318 317 316
314 316 322 323 328 330 329 330 331 329 328 329 327 326 326 326 327 328 328 330 331 331 330 329 328 324 324 322 322 322 324 323 321 320 321 318 318 318 317 317 316 315 315

GFSSE_925_thetae_087.txt.gz
Theta_e
346 348 344 345 345 340 337 336 331 330 341 344 345 340 339 340 343 344 345 343 339 339 341 344 345 344 344 343 342 340 340 339 340 339 337 337 338 338 337 337 339 340 341
344 348 343 345 345 344 340 341 335 333 339 344 346 345 344 343 345 345 344 342 340 340 343 344 343 341 340 340 340 340 338 336 335 334 332 331 336 338 337 339 338 339 340
344 347 346 344 344 343 342 340 340 336 338 343 344 345 345 345 345 345 343 340 339 342 342 342 338 338 338 339 341 338 337 335 330 328 329 330 333 335 335 333 335 338 338
345 347 346 344 343 342 339 338 341 339 339 343 343 344 343 345 344 343 342 339 338 339 339 338 337 338 338 337 335 331 333 330 324 327 327 326 326 332 333 333 333 334 334
345 347 346 344 342 341 339 336 340 341 340 341 343 343 344 345 343 342 341 338 337 337 337 337 337 338 337 330 325 322 323 322 328 330 331 330 330 331 331 332 331 331 331
345 344 346 342 340 339 339 333 338 341 340 341 342 341 343 343 342 340 337 336 336 336 337 335 336 336 335 327 318 318 320 330 331 331 332 332 332 332 331 331 331 330 329
344 344 346 341 340 340 336 340 331 337 341 341 341 342 342 341 341 338 336 337 336 335 335 336 336 336 330 324 316 317 325 329 331 333 333 334 333 332 331 331 331 330 329
344 343 344 341 340 340 333 342 336 328 340 341 341 341 342 340 338 336 336 336 335 335 336 337 335 333 329 323 320 318 321 328 329 332 333 333 332 333 331 330 329 329 329
342 342 342 342 342 336 338 341 337 328 329 341 341 341 341 338 336 336 336 336 335 337 336 335 335 334 330 323 322 321 321 327 327 329 331 333 331 332 330 328 326 325 323
339 340 338 342 341 336 341 340 333 330 329 340 341 342 340 337 334 335 335 336 335 335 333 331 329 328 326 323 320 321 320 325 326 327 328 328 326 331 326 326 326 325 324
335 337 339 332 340 337 339 340 333 330 332 335 339 339 338 336 334 333 334 335 335 334 331 329 327 325 324 323 322 321 321 325 325 325 325 320 323 333 327 326 325 326 325
333 332 332 331 329 338 339 340 337 334 332 331 336 336 336 336 334 332 334 334 335 334 331 328 325 323 323 326 323 321 324 325 323 324 323 319 319 325 329 326 327 327 326
333 329 324 326 328 328 339 339 336 334 330 330 330 335 335 334 333 334 334 333 333 328 328 326 323 324 325 325 325 324 325 324 323 323 321 319 319 321 326 327 328 329 328
332 330 329 328 328 331 335 337 338 336 332 330 331 331 334 332 333 333 332 331 331 327 329 329 328 326 325 325 324 324 324 323 324 324 325 325 324 323 323 327 328 329 330
329 330 326 327 327 331 334 334 337 337 336 332 330 331 332 332 332 331 331 330 330 329 329 329 327 326 325 324 325 326 325 327 328 328 329 328 329 329 328 327 327 329 331
329 328 325 329 328 326 332 333 333 336 337 336 332 329 330 331 332 331 330 330 329 328 327 326 326 325 324 325 327 329 330 331 331 331 331 331 330 329 329 329 329 328 329
329 329 329 330 329 330 332 333 333 334 336 336 336 332 329 329 329 328 327 328 328 328 327 326 325 324 326 328 330 329 330 331 332 331 331 332 332 331 329 328 327 327 327
329 330 330 330 328 326 330 330 335 331 334 336 337 336 333 333 332 331 329 331 332 331 330 327 326 325 329 330 330 329 331 332 332 332 332 331 330 330 330 330 330 329 328
330 329 330 329 329 326 327 327 335 333 332 335 336 337 337 335 335 334 334 334 334 332 330 329 329 329 329 329 328 329 331 332 332 331 330 329 329 330 330 330 329 328 327
329 329 329 330 329 327 326 328 334 334 334 335 335 336 337 337 338 337 334 332 333 333 331 330 330 330 329 328 328 329 332 332 332 330 330 329 329 328 327 326 328 329 329
329 329 330 331 328 326 326 331 333 334 334 335 336 336 336 336 336 337 335 331 332 334 333 331 330 329 329 329 331 331 331 331 330 330 329 328 325 326 324 327 328 329 329
324 328 329 329 329 328 328 330 332 335 335 335 335 335 334 334 334 333 334 332 333 334 334 333 331 330 330 330 333 332 334 331 329 328 326 327 325 323 324 325 324 325 326
322 327 329 329 328 327 328 329 331 330 331 333 334 332 334 334 331 333 333 333 333 333 332 333 333 331 331 332 333 332 332 331 328 326 327 326 324 322 323 323 322 323 323
322 323 328 327 328 328 327 329 328 327 330 331 332 332 330 331 331 330 332 333 332 331 331 331 331 333 332 333 332 331 330 330 329 328 326 323 323 320 319 320 320 320 320
322 322 323 323 325 328 328 328 329 328 329 328 328 326 326 328 328 328 329 331 332 331 331 330 330 331 330 331 329 328 326 325 327 327 325 321 320 319 320 319 318 318 318
320 322 324 325 323 325 327 327 326 326 328 327 328 327 326 324 326 326 326 330 329 328 327 328 329 330 329 329 327 325 323 322 323 324 323 320 319 319 318 318 317 316 316

GFSSE_925_thetae_090.txt.gz
Theta_e
347 343 340 341 337 334 331 331 331 342 342 344 343 339 340 343 345 345 344 341 338 342 343 345 344 344 344 343 343 342 343 342 336 334 336 337 339 340 341 340 338 340 340
348 343 342 342 342 337 333 332 330 332 344 344 345 341 341 346 345 345 344 342 341 344 345 344 344 343 341 340 342 338 335 333 332 331 330 335 336 338 338 337 337 340 341
348 345 343 344 342 340 336 334 331 330 341 343 344 343 345 345 345 345 343 340 342 345 344 343 341 338 339 339 339 337 329 328 330 330 329 328 334 336 335 334 336 337 338
347 346 345 344 342 341 338 335 333 331 337 342 343 343 343 344 345 344 342 340 343 342 341 338 337 338 339 338 336 334 326 325 327 327 326 326 330 333 332 333 335 336 335
348 346 345 344 342 342 338 337 340 338 337 342 343 343 343 344 343 342 340 338 340 339 336 335 336 336 334 330 325 325 325 329 331 330 330 329 328 332 333 332 330 329 331
347 347 346 343 342 341 337 337 339 338 335 341 342 342 342 342 342 341 336 335 337 336 336 336 335 333 325 321 319 320 329 331 331 331 330 330 329 332 332 331 330 329 329
346 346 346 342 340 339 337 333 338 340 336 339 341 341 341 342 341 339 337 336 335 336 335 334 335 332 323 316 317 327 330 331 332 333 333 329 331 332 331 330 330 330 329
344 343 344 341 339 339 338 337 332 339 339 336 339 340 342 341 339 336 335 335 335 335 335 336 336 329 323 316 317 324 329 330 332 333 333 326 331 332 331 326 325 326 326
344 344 344 341 338 339 334 341 332 327 340 340 339 340 341 340 338 336 335 335 335 335 338 336 335 330 324 321 318 319 327 328 329 331 332 326 329 332 329 326 325 323 322
341 342 341 342 341 338 333 340 339 327 328 340 340 341 340 338 336 335 335 335 334 335 336 335 335 331 324 321 320 319 325 326 327 327 330 328 325 329 325 325 325 325 325
339 339 335 337 339 336 337 340 338 329 326 340 341 341 338 336 334 334 335 334 334 335 333 331 329 327 324 321 320 320 321 325 325 326 326 320 324 329 325 325 325 325 325
336 335 332 333 336 336 335 337 336 331 330 339 340 338 336 334 333 334 334 334 334 334 331 329 326 324 323 322 321 320 324 324 323 324 324 321 320 326 328 326 327 327 326
336 335 331 328 330 334 332 329 336 333 331 337 337 337 336 335 332 333 333 334 334 334 331 329 325 322 323 326 325 322 324 324 322 322 322 321 320 322 326 327 328 329 328
336 333 332 333 331 327 328 328 330 334 332 331 335 336 335 335 332 334 332 331 333 332 328 324 322 321 325 325 325 324 324 324 322 323 323 324 323 322 324 327 328 329 330
335 334 331 329 326 328 327 327 336 334 330 331 330 333 334 333 332 334 332 330 329 325 328 328 329 327 326 325 324 324 324 323 326 326 327 328 328 328 328 328 328 329 330
332 330 330 329 328 328 329 327 328 333 332 330 331 331 334 333 332 332 332 330 331 329 329 329 328 326 325 324 325 326 327 328 330 330 330 330 330 329 328 328 328 328 328
330 329 329 330 329 328 327 325 322 331 332 332 330 331 331 332 331 332 331 330 330 329 328 327 326 325 325 324 325 328 329 330 331 331 331 331 331 331 330 328 328 328 327
329 329 329 331 329 328 327 328 326 325 332 332 332 329 329 330 330 330 328 329 328 327 327 327 326 324 324 327 329 330 329 330 332 332 331 331 331 330 330 330 330 329 328
330 328 327 330 329 328 327 329 330 331 332 333 332 332 329 330 329 328 328 327 330 331 330 329 327 326 325 329 330 329 329 331 331 331 331 330 329 330 329 330 328 327 327
330 328 326 329 330 328 328 328 329 331 332 333 333 333 333 333 334 332 333 333 334 333 331 330 329 329 328 329 328 328 329 331 332 331 330 329 329 328 328 326 326 328 329
329 328 329 328 329 330 328 328 327 329 333 333 334 333 334 334 335 334 334 333 332 333 333 330 330 329 330 329 329 328 329 330 331 331 329 329 326 325 325 325 327 328 327
326 328 329 328 328 330 328 327 327 327 332 333 333 334 334 332 335 335 335 335 331 331 334 333 331 330 329 329 328 331 329 330 330 330 328 326 326 323 323 325 324 324 325
324 325 328 329 329 329 328 327 327 326 330 333 333 332 332 333 334 334 333 334 332 333 334 334 333 333 331 330 328 331 329 327 327 327 326 326 325 322 322 323 322 322 323
322 321 322 326 328 328 328 327 327 328 329 330 332 333 333 332 331 332 332 332 332 332 332 332 332 332 331 332 331 331 330 328 326 326 326 326 323 321 319 320 320 320 319
322 322 323 325 325 328 327 327 328 327 327 328 329 328 328 328 326 328 329 330 330 331 331 330 330 330 329 330 329 329 328 326 323 324 322 319 322 320 319 320 319 318 318
320 321 322 323 324 325 325 328 327 327 328 327 327 327 326 326 327 327 326 327 328 330 330 328 328 327 329 329 325 327 326 324 322 321 322 322 320 319 319 319 318 317 316

GFSSE_925_thetae_093.txt.gz
Theta_e
345 338 336 335 335 336 335 342 345 345 342 341 339 341 344 343 345 345 341 334 342 344 344 344 343 343 343 341 342 342 337 335 334 335 335 338 340 342 340 338 338 340 340
345 338 334 334 333 334 335 334 341 343 341 343 340 344 347 344 345 344 341 339 343 344 344 344 344 342 340 340 340 335 331 331 330 330 332 335 338 338 338 337 338 338 339
344 341 338 336 335 335 333 331 332 342 342 343 341 343 345 344 345 344 343 342 344 345 344 344 340 339 339 338 333 329 331 332 330 328 327 332 334 337 335 335 336 337 337
344 342 340 340 336 335 334 331 330 332 342 342 342 343 343 344 345 344 342 343 344 343 342 338 338 338 338 335 326 326 326 327 327 328 325 326 331 332 333 335 335 334 335
344 342 341 341 338 336 335 331 329 330 339 341 342 341 342 344 345 342 340 342 342 340 337 336 336 337 337 333 326 326 329 330 329 329 328 323 328 333 332 329 327 330 330
345 341 341 342 340 338 337 335 336 334 336 340 341 342 342 342 343 341 339 342 339 335 334 333 335 333 328 323 321 328 330 330 330 330 329 325 329 332 332 330 329 330 329
346 344 343 342 341 339 336 339 339 337 333 340 341 342 341 341 342 339 338 339 337 335 334 334 333 324 320 318 326 330 331 332 332 333 328 326 331 332 331 331 330 329 328
346 346 344 342 341 338 335 333 337 339 334 337 339 340 340 341 341 336 334 335 335 336 335 335 333 324 316 317 328 330 331 332 333 333 328 324 331 332 330 326 323 324 323
345 346 343 341 338 337 338 335 333 339 338 334 339 340 340 340 340 336 335 335 335 334 334 335 331 324 316 317 323 329 329 331 332 332 330 322 330 332 328 325 324 324 323
343 343 342 339 339 339 336 339 333 328 340 338 337 339 340 340 338 335 333 334 334 335 336 335 330 325 321 318 318 326 326 327 328 328 331 325 325 326 324 325 325 325 325
342 342 340 338 338 337 335 334 340 334 327 340 339 339 341 339 336 334 334 333 334 336 336 334 334 326 321 320 319 321 325 326 325 326 326 321 323 325 324 325 325 325 325
336 339 339 336 334 334 335 335 337 334 327 334 340 340 338 337 335 333 333 333 333 334 335 332 329 326 322 320 320 319 323 324 325 325 324 322 321 326 326 325 327 327 326
337 335 334 336 336 335 336 334 335 334 332 332 340 339 336 334 334 334 334 332 333 333 332 329 326 323 322 323 323 320 324 324 323 323 323 321 319 323 325 327 328 328 328
335 336 334 334 334 335 334 333 333 330 327 331 339 339 334 334 333 333 334 333 332 333 331 328 325 322 321 326 326 324 324 324 322 322 323 323 322 322 324 327 328 328 329
333 334 333 332 333 332 330 329 332 326 327 330 335 337 336 334 332 333 333 333 333 333 330 328 322 320 323 325 324 324 324 324 323 323 324 325 327 327 327 328 328 329 329
329 332 332 331 330 330 328 327 326 326 332 331 333 335 336 334 332 332 332 332 331 332 327 326 327 328 326 325 324 324 324 324 325 326 327 329 329 329 328 328 328 327 328
327 328 330 329 328 328 328 327 327 327 326 330 330 331 332 334 332 333 332 328 325 326 326 329 328 327 325 325 324 324 327 327 329 330 330 330 330 331 330 328 328 328 328
327 327 328 328 328 328 328 329 325 326 326 331 329 330 332 333 332 332 331 330 330 330 328 327 327 325 325 325 324 325 328 329 329 330 331 330 331 331 329 330 329 329 329
329 328 328 329 329 329 327 327 329 326 328 331 329 329 330 331 331 331 331 330 329 329 328 327 325 325 324 325 327 329 329 329 330 331 331 331 331 330 330 330 329 327 326
330 328 328 329 330 329 328 327 327 328 327 328 331 330 329 330 330 331 330 329 329 327 328 328 327 327 325 324 328 329 329 328 329 331 331 330 329 328 328 327 326 325 328
329 328 327 328 329 329 329 328 329 330 329 329 328 331 329 329 329 329 328 327 329 330 331 330 329 328 328 328 329 328 328 328 331 330 331 329 328 327 326 324 324 327 328
328 328 328 329 329 329 329 329 328 329 328 329 329 331 330 330 331 330 332 333 333 333 333 331 329 329 329 329 329 328 327 329 330 330 330 328 326 325 324 323 324 323 324
327 327 328 328 327 326 327 329 328 327 326 327 328 330 329 331 332 332 332 333 332 331 332 333 331 330 330 329 329 330 329 329 327 329 328 326 325 323 322 324 323 322 320
321 322 326 328 328 328 329 329 328 327 327 327 327 330 328 329 330 330 331 332 334 331 332 333 333 333 332 330 330 329 330 327 326 325 324 324 324 323 321 321 320 320 319
322 322 322 324 327 328 328 329 328 327 327 328 328 329 327 328 328 327 328 329 330 330 331 331 333 331 330 331 330 329 329 329 327 323 324 320 321 321 319 319 319 318 318
319 321 321 321 322 324 325 326 327 328 327 327 327 328 327 328 328 328 328 327 328 329 328 329 331 330 329 329 329 329 327 326 324 323 320 321 320 321 321 319 319 318 317

GFSSE_925_thetae_096.txt.gz
Theta_e
345 344 344 342 339 342 343 343 340 340 340 339 341 345 346 345 343 339 329 338 341 340 339 340 342 343 342 343 340 339 339 338 337 335 338 340 340 340 339 338 339 339 340
344 343 341 342 339 339 343 344 342 341 341 342 344 346 347 345 345 341 336 343 344 344 344 344 344 344 342 341 337 337 334 331 331 334 337 337 336 338 338 337 337 338 339
342 340 337 338 339 336 336 342 343 341 342 342 343 345 347 345 345 342 339 343 345 345 344 344 343 340 339 338 336 334 332 328 328 332 333 334 334 336 337 336 337 337 336
339 336 335 335 334 334 333 333 340 341 340 340 341 344 344 344 345 343 340 344 344 344 343 341 339 338 334 329 330 330 329 328 328 325 325 327 332 334 335 334 334 334 335
342 339 337 335 334 333 332 330 331 340 341 341 340 342 342 344 345 343 343 344 343 342 340 338 337 336 330 326 326 329 327 326 327 326 320 326 331 332 331 329 329 330 330
343 341 340 336 334 334 332 330 329 331 340 340 340 341 342 343 344 341 342 342 341 340 337 336 337 334 330 326 328 330 330 329 329 327 322 327 330 332 331 330 330 330 330
344 342 342 339 336 335 333 331 333 331 335 340 340 340 341 343 341 338 342 342 338 336 335 335 335 329 325 323 329 330 330 331 331 327 323 326 331 332 332 331 331 330 330
342 342 342 341 339 335 335 335 339 336 333 337 339 340 341 342 340 337 341 338 335 333 332 336 325 320 319 325 330 331 332 332 332 329 322 325 330 332 331 329 329 326 327
344 344 343 342 340 336 333 332 336 339 337 334 337 338 339 339 340 336 338 337 336 335 334 334 324 317 317 327 329 330 331 332 332 330 322 323 329 332 328 325 324 323 323
342 342 342 341 340 337 336 331 335 338 338 335 336 339 339 340 340 334 334 334 334 335 332 333 325 317 316 325 329 328 328 330 330 329 328 322 326 330 325 325 325 325 325
340 341 342 340 338 337 338 338 331 328 335 338 336 338 339 340 338 336 334 333 334 332 335 334 326 321 317 317 322 326 326 326 326 327 325 320 324 325 324 325 325 325 325
337 338 339 339 338 337 335 335 338 335 328 329 339 338 339 339 336 334 333 332 333 336 335 334 329 323 320 319 319 325 325 325 325 326 324 322 322 325 324 325 327 326 326
335 336 335 337 336 336 334 335 337 334 331 327 336 339 339 338 336 334 333 333 333 334 334 334 332 327 321 319 319 319 323 323 324 324 323 322 320 324 326 326 328 328 327
334 334 335 336 334 334 334 335 333 334 332 329 329 336 337 337 335 334 333 333 333 333 334 332 328 323 322 321 322 320 323 324 322 322 322 321 321 321 324 327 328 328 328
332 334 334 333 334 334 333 333 332 332 331 329 329 329 334 335 334 333 333 333 332 333 333 330 327 323 321 325 325 324 323 324 323 322 322 323 326 325 324 327 328 329 328
329 332 333 333 332 332 333 332 329 332 329 327 327 329 332 334 333 333 334 334 332 332 332 329 326 322 320 324 325 324 324 324 323 323 324 325 328 329 327 328 328 328 329
325 329 331 331 330 331 331 329 328 326 327 328 330 328 330 334 331 330 333 333 333 333 332 330 325 324 324 325 325 324 324 324 324 324 328 327 329 329 330 328 327 327 328
326 328 329 329 328 328 328 327 326 327 327 327 330 331 328 331 333 328 330 330 333 333 330 330 327 327 327 326 324 323 324 327 327 329 330 330 330 330 330 329 329 329 329
325 327 328 328 328 326 326 328 328 327 326 326 327 328 328 329 331 333 332 332 331 330 327 326 329 329 326 325 324 324 324 327 328 329 330 330 330 330 330 329 329 329 328
325 326 328 328 328 327 327 328 328 326 326 326 328 327 327 329 331 333 332 332 329 326 329 327 327 326 325 324 324 326 328 329 329 329 331 331 330 330 330 329 329 327 326
327 328 328 328 328 329 328 327 328 329 328 325 326 329 328 329 331 331 332 331 331 330 328 327 327 326 325 325 324 326 328 328 328 328 330 330 330 329 329 328 325 324 325
327 327 328 328 328 329 328 328 327 327 328 327 326 328 328 329 330 331 330 330 329 328 327 327 327 327 326 326 326 327 326 327 327 329 330 330 329 328 326 325 324 322 322
325 326 327 327 327 326 328 329 328 328 328 329 328 328 328 330 329 329 329 330 328 327 327 329 329 329 328 328 328 328 328 328 326 328 330 329 328 325 325 324 323 323 322
321 323 325 326 327 327 326 326 328 328 327 327 327 326 327 329 329 329 329 329 328 329 332 332 331 330 329 328 327 328 329 328 324 325 324 323 323 323 323 323 323 322 320
321 321 322 323 325 326 327 327 328 328 327 327 326 326 326 327 328 328 329 329 329 332 331 331 331 330 329 329 329 328 328 327 326 324 324 321 320 318 321 321 321 320 319
320 321 321 322 323 324 325 326 327 327 327 327 327 327 327 327 328 328 325 328 328 327 327 328 330 330 331 330 329 329 329 327 325 323 321 321 322 320 319 318 319 319 318

GFSSE_925_thetae_099.txt.gz
Theta_e
345 344 344 346 345 346 345 344 341 342 341 345 345 345 343 342 340 338 337 339 339 339 339 341 344 343 342 340 340 339 339 338 337 339 340 338 339 340 339 337 338 340 340
344 344 344 345 347 347 346 345 339 340 343 345 347 348 346 343 341 340 342 343 340 340 340 343 343 343 342 338 337 337 336 334 335 337 336 336 337 339 337 336 338 340 339
344 344 343 344 345 345 345 343 339 340 340 342 344 346 346 345 343 342 343 344 343 344 344 344 343 342 340 337 337 336 331 331 332 335 334 333 335 337 336 336 336 336 336
343 343 343 343 341 343 344 344 341 340 340 342 343 344 346 345 345 342 342 344 344 344 343 342 340 338 337 337 336 335 330 325 326 327 325 330 334 335 334 335 334 334 334
342 340 339 342 338 336 338 343 342 340 340 340 342 343 342 344 345 342 342 343 343 344 342 339 338 336 332 331 329 328 327 326 323 320 324 328 328 331 331 330 331 331 330
340 338 337 336 334 332 331 332 338 340 340 339 339 342 342 343 344 340 343 343 343 342 339 338 336 331 327 328 330 326 326 328 325 320 323 326 328 332 332 332 331 331 331
341 338 337 335 334 332 331 330 330 335 340 340 340 340 341 343 344 338 342 342 341 340 338 336 334 328 326 328 330 329 329 329 327 322 323 326 332 333 332 331 331 331 331
341 341 340 338 335 334 333 330 328 328 335 338 339 340 340 342 342 340 341 341 340 338 336 334 332 329 325 328 329 330 330 331 329 322 324 326 331 333 332 331 329 331 330
343 341 342 341 338 335 333 332 334 335 332 337 338 339 339 339 340 339 338 340 335 333 336 334 327 322 322 329 329 331 331 332 330 321 322 325 330 332 329 326 326 325 323
342 341 340 340 339 337 335 334 336 338 337 333 337 338 338 339 339 340 338 336 336 335 333 332 323 319 321 329 329 329 331 331 330 328 324 324 331 332 326 325 326 326 324
338 339 341 341 340 336 335 334 337 338 338 333 336 337 338 338 340 339 337 336 335 333 334 332 323 317 320 328 328 327 328 329 328 328 325 322 326 329 325 325 325 325 325
336 338 340 341 340 336 336 334 330 330 337 337 334 337 339 339 340 336 335 334 333 334 332 333 325 318 317 322 326 326 326 325 325 326 325 321 324 328 324 325 326 326 325
334 334 335 337 339 337 335 334 334 330 326 329 338 337 339 339 339 335 334 333 332 333 334 334 329 323 319 318 319 324 325 325 324 324 324 322 322 332 326 325 327 327 327
331 332 334 335 335 336 335 334 334 335 332 324 326 338 338 339 336 335 334 333 332 334 337 334 332 326 321 319 319 319 322 323 323 323 323 322 320 326 331 327 328 328 327
328 332 333 334 335 334 334 334 334 334 332 329 328 330 334 338 336 334 334 333 332 333 335 334 333 328 323 320 320 319 321 323 323 322 322 322 322 323 323 327 329 329 328
312 328 332 334 333 333 332 333 333 333 331 330 329 329 330 332 336 335 334 333 332 333 333 334 332 327 322 321 324 324 323 323 323 323 322 322 323 326 325 326 328 329 332
308 314 329 332 333 333 333 332 332 331 330 331 329 327 327 330 335 335 333 334 333 332 333 333 331 328 325 321 324 324 324 323 323 323 322 323 324 328 328 328 327 327 328
308 312 325 331 332 331 331 332 330 328 327 327 327 328 328 330 332 334 330 331 333 331 332 331 331 329 326 321 322 324 324 323 324 323 324 327 326 329 329 329 328 328 328
307 309 325 329 330 330 329 329 329 328 327 326 326 327 329 331 333 333 328 329 325 321 331 332 332 330 325 326 327 326 324 323 324 326 327 329 329 329 329 330 329 329 328
307 312 325 328 328 328 327 327 327 327 327 327 326 326 330 331 330 331 331 325 325 325 332 333 331 330 327 327 326 324 324 323 324 327 328 328 330 330 330 330 329 329 329
307 310 324 327 327 327 327 327 327 327 327 326 325 326 327 328 329 330 331 330 330 330 330 331 331 328 326 328 324 324 325 327 328 328 328 328 330 330 330 330 329 329 327
313 319 325 327 328 328 327 327 326 327 329 327 326 325 327 328 328 329 329 331 332 331 329 327 325 325 325 325 323 325 325 326 328 328 328 328 329 330 330 329 329 326 323
323 324 326 327 328 328 327 326 326 327 327 328 328 328 326 326 329 329 329 330 329 329 329 329 328 327 325 325 325 326 326 326 325 327 327 328 329 329 328 328 326 324 322
321 323 325 325 326 326 326 327 326 327 326 327 328 328 328 327 327 328 329 329 328 329 329 329 329 327 326 326 325 326 328 327 326 325 324 326 328 327 327 325 324 323 322
320 321 322 324 325 325 326 327 326 326 325 326 327 327 328 327 327 327 329 329 328 329 328 328 327 327 327 328 327 327 327 326 325 323 324 321 321 323 323 324 324 323 321
319 320 321 321 322 323 325 325 326 327 327 326 326 326 326 326 326 325 325 328 328 328 328 327 328 328 328 328 328 328 328 327 325 324 323 322 322 322 322 322 322 322 320

GFSSE_925_thetae_102.txt.gz
Theta_e
344 347 345 342 345 346 345 345 345 340 344 348 351 351 348 344 341 339 338 339 339 339 343 344 342 341 339 341 340 339 337 336 339 338 338 337 339 340 337 338 338 340 340
345 347 345 344 345 346 345 344 345 344 344 344 347 347 348 344 341 339 340 340 339 340 343 344 344 342 340 340 338 338 336 337 338 336 335 337 337 339 338 337 338 340 339
345 346 344 346 344 345 345 344 343 343 344 344 346 344 344 344 343 342 342 341 340 341 344 343 343 341 337 336 336 335 335 334 335 333 331 335 335 335 335 334 335 335 334
344 344 343 344 344 344 344 343 343 343 344 343 343 345 345 344 343 343 343 343 341 343 343 343 342 339 337 336 335 328 329 330 331 331 329 330 333 335 334 334 334 333 333
343 344 343 343 343 344 343 342 340 341 342 342 343 343 343 344 344 343 343 344 343 342 342 340 339 337 336 335 334 332 324 321 322 322 324 326 330 332 332 332 331 331 330
342 342 341 343 340 341 342 343 341 340 340 340 342 342 342 344 344 342 341 343 342 342 340 339 334 332 330 328 328 326 326 325 319 322 324 326 330 332 332 331 331 332 332
342 340 339 341 336 335 336 340 343 342 341 340 339 342 341 341 344 341 341 342 343 341 339 338 333 328 328 329 327 327 328 326 321 322 323 327 332 333 332 331 331 331 331
341 339 338 340 337 334 332 332 333 340 340 340 339 339 341 341 343 339 340 342 342 340 338 336 335 327 328 329 329 328 329 329 322 322 324 327 332 333 332 332 329 328 326
342 339 336 339 338 336 334 332 331 331 336 338 338 338 339 339 340 340 338 342 340 339 337 333 331 327 327 329 329 329 330 330 324 321 324 326 331 333 331 327 326 326 325
341 341 339 337 337 335 335 333 333 335 333 333 337 339 339 339 339 340 337 340 339 336 335 332 329 327 325 329 329 330 330 330 328 322 323 326 332 333 329 326 326 325 323
337 340 340 340 339 337 335 334 335 336 338 335 334 336 338 338 339 339 336 339 335 335 334 332 325 321 323 328 329 329 330 330 328 328 324 325 331 333 328 325 326 326 325
326 335 335 339 340 339 336 333 332 335 337 334 333 335 336 338 339 339 337 337 336 334 334 332 324 319 321 328 328 327 327 328 327 327 325 322 327 333 328 325 326 325 325
311 327 333 335 337 339 337 333 331 333 336 337 333 335 337 338 339 340 337 337 336 333 333 333 328 320 319 326 327 326 325 326 324 325 325 323 322 333 330 325 326 326 326
308 317 332 334 334 335 337 335 332 329 327 327 336 336 336 339 338 339 338 336 334 332 333 332 332 323 318 318 320 323 324 324 324 324 324 323 322 328 334 328 326 327 327
307 308 328 334 334 335 334 335 334 333 333 328 325 335 336 336 336 337 335 333 333 332 332 333 334 329 322 320 319 319 321 323 322 322 322 323 322 321 330 334 333 329 329
306 307 309 326 336 334 334 334 332 333 333 332 326 330 330 331 335 336 335 334 333 332 332 337 335 333 328 324 320 319 319 320 322 323 322 322 322 322 323 325 332 333 333
305 307 307 316 332 334 333 333 332 332 332 331 330 330 329 329 330 334 335 334 333 332 332 335 334 334 331 326 322 321 323 323 323 323 323 322 321 323 325 326 326 329 333
306 307 308 314 327 333 333 332 332 332 332 331 329 329 328 327 328 331 334 334 334 333 332 333 333 332 332 328 324 321 323 324 323 323 323 322 323 323 325 327 328 327 328
306 307 307 309 325 330 332 332 332 332 331 330 328 327 326 328 328 329 333 334 333 333 332 332 331 332 331 329 327 322 320 323 324 323 323 323 324 327 326 328 328 328 328
305 306 306 311 325 329 330 330 329 330 330 328 327 326 326 327 329 330 332 333 330 330 332 325 327 331 331 330 329 324 325 326 324 323 323 326 326 329 329 328 329 329 329
305 305 307 313 325 328 328 328 326 326 326 326 326 326 326 325 328 331 332 331 329 327 322 322 324 329 329 330 328 326 327 325 323 323 323 326 327 328 329 329 329 329 329
305 305 308 311 323 328 327 327 327 327 327 326 326 326 325 325 326 329 329 329 328 328 327 326 325 325 327 327 326 323 323 324 324 324 326 327 328 328 329 330 330 329 329
314 315 315 320 325 327 327 327 327 326 326 327 327 327 326 326 325 327 328 328 328 328 327 327 326 327 326 325 325 325 323 324 323 325 325 328 328 327 328 329 329 329 328
319 321 324 326 327 327 327 326 327 326 325 326 326 326 327 327 327 327 326 327 328 328 328 328 327 326 325 324 323 324 325 326 325 325 324 326 327 327 329 329 328 328 327
318 321 323 324 325 325 326 327 327 325 325 326 325 325 326 327 327 327 327 327 328 328 328 328 327 326 325 326 325 324 324 326 326 323 324 321 323 326 327 328 328 327 325
316 317 320 321 320 322 323 322 322 322 323 324 326 325 325 325 326 326 326 327 327 327 328 327 328 327 326 326 326 326 326 325 325 323 321 320 321 324 325 325 325 325 324

GFSSE_925_thetae_105.txt.gz
Theta_e
345 347 343 345 344 344 341 342 344 346 345 348 349 349 350 343 341 341 340 339 336 344 345 342 340 341 342 341 340 337 338 340 340 336 338 340 340 339 338 338 340 341 340
344 347 342 345 344 344 344 343 344 344 345 349 348 347 347 348 342 340 340 340 340 344 345 343 341 340 339 339 338 335 338 338 336 336 337 338 339 339 339 339 339 340 339
344 347 346 342 343 345 345 343 344 344 344 345 346 345 345 345 342 341 340 340 340 344 345 344 343 340 340 337 337 336 338 336 334 334 335 338 338 336 335 335 334 335 335
345 346 347 342 344 345 345 342 343 344 343 343 344 344 343 345 343 342 342 341 340 343 342 342 341 338 337 336 336 335 333 334 332 328 332 334 334 335 335 334 334 334 333
345 346 343 343 343 344 344 343 342 342 343 343 343 344 343 344 344 343 342 341 341 342 341 341 338 333 334 334 329 327 327 327 324 324 325 330 332 333 333 333 332 331 330
345 345 343 343 343 343 344 342 342 341 342 342 342 342 342 344 344 343 340 342 342 341 342 340 338 332 331 331 331 327 322 319 320 323 325 326 330 332 332 332 333 333 332
344 344 343 342 342 343 343 342 341 341 341 340 341 341 341 341 343 342 339 341 341 341 340 338 336 327 325 327 327 328 325 320 320 322 324 330 333 333 333 333 333 332 331
342 341 341 341 341 339 340 341 342 341 340 340 339 340 341 340 341 342 337 340 342 341 339 338 330 326 326 327 327 327 326 323 321 322 325 330 333 333 333 332 331 331 331
342 340 337 337 340 338 335 334 336 340 340 339 338 338 338 339 339 341 337 339 341 340 339 337 331 327 328 328 328 328 329 326 320 322 324 330 331 333 332 327 328 329 329
340 342 339 336 336 335 334 333 332 331 332 337 339 338 338 339 339 340 337 338 340 340 338 335 334 327 328 328 328 329 329 328 321 322 324 329 332 333 329 326 327 326 324
320 333 340 339 337 336 334 334 332 331 330 329 332 338 339 339 339 340 339 337 339 338 337 335 331 327 327 328 329 329 329 329 327 324 322 325 330 333 330 326 326 326 325
309 311 328 337 339 338 336 335 334 333 335 336 334 333 336 337 338 339 339 337 339 336 334 333 331 328 326 330 328 329 330 329 327 327 324 322 326 334 331 325 326 325 325
307 308 311 331 336 337 338 337 334 333 334 337 335 332 335 336 337 339 339 338 338 335 334 333 329 326 324 326 328 327 328 328 327 325 325 323 323 334 333 328 326 326 326
307 307 308 321 332 336 336 337 334 331 333 336 336 332 334 336 337 338 339 339 338 336 334 334 333 324 320 323 327 326 326 325 325 323 324 324 323 327 334 333 328 327 327
305 307 307 309 327 336 337 336 335 332 330 327 328 335 335 336 336 337 337 338 337 336 334 333 333 331 322 320 323 323 324 324 324 324 323 323 323 322 328 335 334 332 330
304 305 306 306 311 328 334 337 334 334 333 332 329 325 332 334 333 335 335 337 337 335 333 332 333 332 329 322 320 319 319 319 322 322 322 322 322 322 322 326 334 334 334
304 304 305 306 307 322 332 336 334 331 326 331 331 327 328 330 330 331 333 335 335 333 332 332 332 334 333 329 325 322 319 319 319 320 322 322 321 321 322 323 324 331 334
304 304 304 306 307 320 329 334 333 332 324 324 326 329 330 329 329 329 331 334 334 334 333 332 333 335 334 333 331 326 322 321 323 323 323 323 323 321 321 323 325 326 328
304 304 305 306 307 311 326 333 332 332 332 331 330 329 329 328 328 328 329 330 333 333 333 332 333 333 332 332 332 329 325 323 321 323 323 323 323 322 323 323 325 327 327
304 304 305 306 306 312 325 332 331 330 331 331 329 329 328 327 327 327 328 330 331 333 333 332 332 332 331 330 331 330 328 327 322 321 324 323 323 323 323 326 326 327 328
303 304 305 305 306 318 327 328 327 328 329 330 330 329 327 326 326 327 328 330 331 331 332 332 330 330 327 325 329 328 327 324 323 325 325 324 323 323 326 327 328 327 328
304 304 305 305 308 319 327 328 327 327 326 325 326 326 326 326 325 326 328 328 328 329 328 328 327 327 327 327 326 325 326 325 325 325 326 324 323 323 325 327 328 329 329
304 305 307 306 310 312 326 327 326 326 326 326 326 326 326 326 326 326 327 328 329 329 329 328 326 324 325 325 323 324 326 327 325 324 324 325 324 324 324 328 327 329 330
314 314 314 315 318 318 326 326 326 326 324 325 326 326 326 326 326 327 327 327 328 328 328 328 327 326 325 324 324 324 324 324 327 327 324 324 324 325 325 328 327 329 329
314 316 318 321 324 324 324 324 324 324 324 323 324 325 324 325 325 326 326 327 327 327 327 327 327 327 327 326 325 323 323 323 325 327 330 326 324 325 325 327 327 328 328
310 313 315 317 319 320 320 322 321 322 322 322 323 323 325 325 325 325 325 326 326 327 328 327 327 327 327 326 326 324 324 324 325 326 326 326 324 324 324 325 326 327 326

GFSSE_925_thetae_108.txt.gz
Theta_e
348 350 344 344 344 339 336 341 344 344 344 347 349 346 347 344 343 339 335 334 335 338 338 339 339 343 342 342 340 340 340 341 339 339 341 340 340 341 340 339 342 341 339
348 349 344 344 345 344 335 336 343 345 344 347 347 347 347 347 343 342 341 336 342 344 344 341 343 342 342 340 339 340 342 337 335 338 338 338 340 340 340 340 340 339 336
347 349 346 343 344 345 341 338 340 344 345 346 346 345 345 346 343 342 341 339 344 346 344 342 342 341 339 338 338 340 338 336 335 336 338 337 338 337 337 335 336 336 335
347 349 348 343 344 345 345 342 342 343 344 344 344 344 344 345 344 342 341 341 343 345 343 343 342 338 337 337 337 340 335 333 332 333 334 333 333 336 335 334 335 334 333
348 348 348 344 343 345 345 343 343 343 342 342 344 344 343 343 343 343 342 340 339 343 341 342 339 333 332 335 336 333 333 331 329 330 331 332 331 334 334 333 332 332 332
348 347 347 343 343 343 343 343 342 343 343 342 342 343 343 342 344 343 340 340 340 342 341 341 336 330 326 327 329 326 325 322 322 328 329 328 330 330 332 332 333 333 332
346 346 345 342 343 343 343 343 341 341 342 342 341 341 343 342 343 342 339 340 341 341 341 340 335 330 328 329 331 325 320 318 328 328 329 331 333 334 333 333 333 333 332
342 345 344 343 341 342 342 342 341 339 340 340 340 341 341 340 341 342 339 339 341 341 341 339 337 328 327 328 330 328 323 320 327 328 330 332 332 334 334 333 332 332 331
344 343 343 342 342 339 338 340 340 341 340 340 339 338 339 340 339 340 340 338 340 341 340 338 333 326 327 328 329 327 325 322 327 328 330 332 331 334 333 332 331 331 331
324 337 341 342 341 341 340 335 334 337 339 340 339 338 337 339 340 339 340 337 339 340 340 339 334 326 328 329 328 328 329 324 327 328 329 331 330 334 333 329 329 327 326
315 315 325 339 342 341 340 339 334 332 331 333 337 338 339 340 340 341 341 340 337 340 339 338 335 327 327 328 328 329 329 330 328 327 328 328 328 334 333 329 328 328 325
314 313 314 321 337 341 341 340 339 339 338 336 336 337 338 339 339 339 340 339 338 339 339 337 335 330 328 330 330 330 331 331 330 329 328 325 326 334 333 329 328 327 325
311 313 313 313 331 335 342 341 340 336 334 337 338 339 338 338 339 339 339 340 339 339 339 337 337 334 332 330 329 330 331 331 330 329 329 323 324 334 334 331 327 327 326
308 309 312 311 316 331 337 341 340 338 336 334 338 337 337 336 339 338 338 339 340 339 338 338 337 334 331 330 328 328 328 328 329 328 327 325 323 325 334 334 332 329 328
307 307 309 311 312 323 331 336 339 339 333 332 335 337 337 337 338 338 338 338 339 339 337 337 337 334 330 327 325 326 327 326 326 325 325 325 324 323 326 334 334 333 332
307 307 307 309 310 316 327 332 334 338 334 330 329 330 335 337 339 339 339 339 339 338 338 337 337 336 332 325 323 323 324 324 324 324 324 324 323 323 323 323 334 335 334
308 307 307 307 309 312 321 330 333 336 335 332 331 330 330 334 335 336 338 338 338 339 336 336 335 334 334 330 325 322 321 321 321 322 323 323 324 322 322 322 322 330 334
307 307 307 306 306 311 318 329 331 335 332 329 326 325 328 329 331 334 335 335 336 336 336 337 336 333 334 333 331 327 325 323 322 322 323 323 324 324 323 321 322 323 328
307 307 307 307 307 309 316 327 330 333 332 329 329 328 328 329 330 332 333 333 333 335 335 335 335 335 334 333 332 332 329 326 324 323 323 324 324 324 324 323 321 323 325
306 306 306 306 307 309 316 325 329 330 331 332 330 330 327 329 330 331 331 332 332 332 334 334 334 333 333 333 331 331 330 330 328 325 323 323 325 325 324 324 324 324 323
306 306 307 307 308 308 316 325 326 329 330 330 329 330 330 328 328 329 330 331 329 330 331 331 332 332 331 331 330 328 328 328 328 328 326 323 324 325 325 325 325 326 327
307 307 307 308 308 307 317 325 328 329 328 330 331 331 329 329 329 329 329 330 331 329 329 328 330 330 329 330 330 328 329 326 325 325 324 323 323 319 324 325 326 327 327
313 310 309 308 309 309 317 325 326 329 330 330 329 329 329 329 329 329 329 329 330 330 328 329 330 331 329 329 329 327 328 328 324 323 324 323 323 324 324 325 325 327 328
314 315 316 313 315 314 320 325 325 328 329 328 328 329 330 329 329 329 329 329 329 330 330 330 329 329 328 326 327 326 325 324 327 325 322 325 324 325 326 326 326 327 327
310 314 319 319 319 321 319 321 325 325 325 324 323 324 327 327 327 328 329 329 329 329 330 330 329 330 328 326 324 323 324 323 323 324 326 327 325 325 325 326 326 326 326
308 310 314 316 316 318 318 321 321 320 320 321 320 323 324 323 326 326 326 326 327 328 329 328 328 328 328 327 326 325 324 323 323 322 323 325 326 327 327 326 326 326 326

GFSSE_925_thetae_111.txt.gz
Theta_e
348 349 346 345 345 341 343 343 344 344 345 347 349 347 345 341 342 339 336 332 341 341 338 338 339 343 341 341 341 340 342 340 340 339 339 340 341 341 338 341 341 339 338
347 349 346 345 343 340 338 343 344 344 344 346 347 346 346 346 343 339 337 336 340 340 340 339 343 342 343 339 339 342 340 336 338 338 337 339 340 341 341 340 339 337 337
347 349 346 345 343 342 336 339 344 344 343 346 346 346 345 345 344 342 340 337 343 343 344 342 344 343 340 338 339 341 337 334 337 338 339 339 339 338 337 336 337 336 335
348 349 348 346 343 344 341 337 340 344 345 346 345 345 344 344 344 343 342 337 343 344 343 342 343 341 338 336 339 340 335 333 334 333 335 333 334 336 336 336 335 333 332
348 347 348 347 342 343 343 342 341 341 344 343 344 343 343 342 342 343 342 340 340 345 342 341 341 337 336 334 340 340 333 328 327 332 331 332 332 333 334 331 329 333 332
346 347 348 347 342 343 343 343 342 342 342 341 343 344 343 343 342 343 341 339 338 342 341 342 340 334 330 333 335 333 331 328 325 330 330 330 332 329 331 330 328 333 333
344 347 347 343 342 343 342 342 342 342 342 342 342 341 342 343 342 341 341 339 337 341 341 340 339 326 325 328 330 325 322 319 330 329 329 331 334 334 334 334 333 333 332
341 344 345 345 342 342 342 342 342 341 340 341 341 340 340 341 341 342 341 339 340 341 341 340 336 327 325 326 329 326 321 319 328 329 330 333 332 334 334 333 333 332 332
332 341 344 342 343 340 341 341 341 340 339 339 339 339 339 339 339 339 340 340 339 340 340 340 338 331 328 327 328 328 324 321 328 328 330 333 328 334 334 330 329 331 331
321 322 331 341 342 341 341 338 337 339 340 340 339 339 338 338 338 339 338 340 337 339 340 340 338 329 327 328 328 327 325 322 328 329 329 332 328 335 334 329 328 328 328
320 319 319 323 340 342 341 341 339 333 334 338 338 338 338 340 339 340 341 341 339 337 339 339 338 331 328 329 329 327 328 329 328 328 328 330 328 335 334 331 330 329 327
315 317 317 317 322 338 341 341 341 338 337 336 335 336 338 337 337 336 339 339 340 338 339 339 338 335 328 332 330 329 329 331 330 328 328 329 324 334 334 333 330 329 328
311 312 315 316 316 328 337 339 340 341 340 340 338 337 336 336 337 337 338 340 339 339 338 339 338 337 334 330 330 331 332 331 330 329 329 328 323 331 334 333 330 329 328
309 309 309 312 315 316 333 335 339 338 340 339 337 336 337 337 337 336 337 338 340 340 339 339 338 338 336 331 329 329 329 331 330 329 328 328 323 323 335 335 332 328 329
309 309 309 310 312 314 319 334 337 338 338 338 338 336 336 336 336 337 337 338 339 340 340 339 338 337 336 333 331 329 328 328 328 327 327 327 326 323 324 335 335 333 330
311 310 310 309 309 311 314 324 335 337 338 338 336 335 335 336 336 336 337 337 338 339 339 339 339 337 335 332 330 328 326 327 327 326 326 326 325 323 323 323 331 335 335
309 309 310 310 309 309 311 316 328 335 336 337 335 332 329 331 333 336 337 337 338 338 339 339 339 338 337 333 327 324 323 324 324 324 324 325 324 324 323 322 322 324 334
310 309 309 309 309 308 308 312 321 332 335 337 336 335 332 330 330 334 334 335 336 335 336 336 337 336 335 334 332 327 323 322 322 322 322 323 323 324 325 323 321 322 323
309 309 309 309 309 310 308 309 316 330 334 335 335 328 327 326 327 328 330 332 333 333 334 335 335 336 335 335 334 333 329 326 324 322 322 323 324 324 325 325 324 322 322
310 309 309 308 308 309 308 310 315 327 331 333 332 331 330 325 327 326 325 326 329 331 333 333 334 334 333 333 332 332 333 331 329 326 325 323 323 324 325 325 325 324 323
315 310 309 309 308 309 309 310 317 326 328 332 331 331 331 330 330 331 323 328 329 331 331 331 332 332 333 332 333 332 332 331 330 328 327 326 324 323 325 326 325 325 325
313 316 312 309 309 309 310 310 318 323 324 328 331 332 331 331 330 330 328 325 330 331 330 330 330 331 331 331 330 330 331 329 329 329 328 328 327 324 324 325 325 325 325
311 313 314 315 309 309 310 311 319 322 326 327 329 331 330 331 330 329 330 329 328 330 330 330 329 328 330 330 329 330 330 329 328 328 327 326 326 325 324 324 324 324 324
309 311 314 316 316 312 313 312 320 324 328 328 329 330 329 329 328 328 329 329 328 328 329 329 329 329 330 330 330 330 329 328 326 328 325 326 325 325 324 324 325 325 326
307 309 312 317 317 316 316 317 321 322 324 326 326 327 327 327 326 327 326 327 327 328 328 328 329 329 330 330 329 328 328 328 327 325 326 325 326 326 326 325 326 327 327
305 307 309 312 314 317 316 316 317 316 315 316 320 321 322 323 324 323 324 325 326 326 326 327 327 327 328 329 328 328 326 325 325 324 323 323 323 323 326 325 325 326 327

GFSSE_925_thetae_114.txt.gz
Theta_e
346 349 347 346 344 344 345 344 345 344 346 347 347 347 342 341 341 337 331 333 338 341 339 339 341 342 342 341 341 340 340 339 337 337 337 339 341 340 340 340 339 337 337
346 348 347 345 345 341 343 343 343 344 344 346 347 347 344 344 342 337 333 331 341 340 338 339 341 342 342 338 340 340 336 336 337 336 338 339 340 341 340 337 336 336 336
347 348 347 345 344 341 336 341 343 343 343 344 345 345 345 345 343 340 336 334 340 342 342 340 343 342 339 337 340 340 334 336 338 339 339 336 337 338 337 335 334 335 335
347 349 348 346 345 342 338 336 341 343 343 344 344 345 344 344 343 342 339 334 343 344 344 341 342 342 339 335 339 339 334 335 334 335 336 336 334 336 336 334 333 333 334
346 347 347 348 343 342 343 340 339 340 342 343 342 343 343 342 343 341 342 335 338 344 342 341 342 339 338 332 338 338 331 331 330 331 331 332 333 330 332 332 333 334 333
344 347 346 347 345 342 342 343 341 341 341 343 343 343 342 341 342 341 340 336 333 343 341 340 340 338 333 330 337 335 330 325 329 330 331 331 332 323 330 332 327 333 333
342 345 346 344 343 341 342 342 342 341 341 341 340 341 342 341 341 340 342 339 334 338 341 339 340 337 326 327 331 329 325 319 329 328 328 331 331 331 334 333 333 333 333
335 343 344 345 342 341 341 341 342 341 341 341 341 341 341 341 340 340 340 339 338 336 340 340 339 332 323 325 326 322 319 320 328 329 330 333 332 334 334 333 332 332 332
323 331 338 342 343 342 339 339 341 341 340 339 339 339 339 339 338 339 339 340 338 339 340 340 339 334 323 324 326 326 322 318 328 328 330 332 333 334 334 331 330 332 331
321 320 325 335 341 341 342 342 338 338 338 339 339 339 338 338 338 338 338 338 339 338 337 339 340 338 328 326 327 327 325 321 327 329 328 331 331 331 333 329 329 330 330
314 318 318 319 327 339 340 341 341 338 334 337 338 338 338 337 337 338 336 336 337 339 336 339 339 338 328 325 327 328 326 324 325 328 328 329 331 331 334 327 327 328 328
310 313 314 316 317 321 337 340 341 341 339 334 332 333 336 336 338 338 339 339 337 338 337 337 339 338 332 326 327 328 326 326 328 328 327 329 329 330 334 328 326 327 326
309 309 309 311 313 316 321 334 338 340 341 339 338 336 335 336 336 336 336 339 340 339 339 338 338 338 336 328 330 328 326 326 330 330 328 328 328 326 334 334 328 328 327
310 309 309 309 309 312 315 324 329 338 338 339 339 339 338 336 336 337 337 338 337 338 338 338 339 338 337 334 330 330 329 328 329 331 329 329 328 324 334 335 333 329 329
312 311 311 310 309 309 312 314 326 332 338 337 338 338 335 336 337 336 335 337 338 339 339 338 338 338 337 336 332 329 329 329 330 330 329 328 328 326 321 334 335 334 331
310 310 309 310 310 310 309 311 314 329 333 337 338 337 336 336 336 336 336 337 338 337 338 339 338 338 337 337 334 331 330 328 328 328 327 327 326 325 323 322 328 335 335
309 309 310 310 309 309 309 308 311 314 330 334 336 336 336 335 336 336 335 335 336 336 337 337 337 338 337 336 333 331 330 328 326 326 326 326 325 325 324 323 322 323 333
314 311 309 309 310 309 309 309 308 312 320 330 333 335 334 332 329 333 335 335 335 335 336 335 337 337 338 337 334 330 327 324 323 324 324 324 324 324 324 324 323 321 322
314 315 311 309 309 309 309 309 309 308 315 327 331 332 334 334 331 330 334 334 334 334 333 333 334 334 334 335 334 334 331 324 323 321 322 322 322 323 323 324 324 323 321
313 312 312 313 309 309 308 308 309 309 310 327 328 331 333 331 330 329 329 330 330 330 330 330 331 331 332 333 332 333 333 331 328 325 322 321 321 323 323 324 325 325 324
311 311 311 313 314 310 309 309 309 309 312 324 326 330 330 329 326 327 327 327 326 323 324 322 325 330 332 332 332 332 331 331 331 331 328 327 324 323 323 324 324 325 324
309 309 309 311 312 314 309 309 310 310 319 322 321 325 329 329 329 328 327 327 326 327 329 330 329 330 331 331 331 330 330 329 330 330 331 330 328 327 325 324 325 325 325
307 307 309 311 313 316 316 309 310 310 316 318 322 323 327 328 330 329 327 327 326 327 329 330 329 329 330 329 329 329 330 329 326 328 329 329 328 328 327 325 324 326 326
305 306 308 310 314 316 316 313 311 312 318 318 320 322 326 328 329 329 328 330 329 328 328 328 328 329 329 329 330 330 329 328 326 324 326 327 327 327 327 326 326 324 324
304 305 307 309 311 313 315 315 315 316 315 313 316 321 324 326 325 328 328 328 328 327 327 326 327 328 328 328 329 328 329 329 328 326 327 323 324 325 325 325 324 324 323
302 304 306 306 307 309 311 312 313 313 314 312 314 314 314 313 313 321 324 325 325 325 325 325 326 326 327 327 327 327 327 326 326 326 326 325 324 324 323 324 325 325 325

GFSSE_925_thetae_117.txt.gz
Theta_e
345 347 347 345 343 344 344 344 345 345 346 346 346 344 342 340 339 334 328 332 339 340 338 339 342 342 339 340 340 339 339 331 333 334 338 338 338 340 341 338 334 336 338
345 348 346 345 344 341 343 342 344 344 344 346 347 345 342 343 341 335 329 333 341 340 337 339 342 343 337 340 339 336 336 335 336 337 338 339 340 340 339 336 332 336 335
346 349 347 345 344 342 339 340 342 343 343 344 346 344 345 344 342 338 333 332 341 341 339 340 343 342 338 337 340 334 335 336 337 338 336 337 338 338 336 331 334 335 334
346 349 348 345 345 341 337 337 341 342 343 343 344 344 344 344 343 340 337 332 340 342 343 340 342 341 338 335 338 332 335 337 337 338 337 335 331 333 332 330 333 334 333
346 347 347 347 345 342 342 338 339 341 342 343 343 342 342 342 342 342 338 334 337 343 342 340 341 341 338 332 338 331 332 333 331 331 335 334 332 329 332 333 334 334 332
343 346 346 344 345 341 341 342 341 341 340 342 343 342 341 341 342 343 339 337 332 342 342 341 341 339 335 329 336 332 327 328 330 330 331 331 331 328 335 334 332 333 333
340 345 345 344 343 342 340 341 341 341 341 341 342 342 341 341 341 341 340 338 335 335 341 340 340 339 332 326 330 329 328 323 329 328 328 330 331 325 333 333 333 333 333
327 336 343 343 343 341 341 341 341 341 341 340 341 340 340 340 340 340 340 340 337 331 336 340 339 339 329 324 325 325 324 320 329 328 328 330 332 324 334 333 332 332 332
320 323 330 340 342 343 342 341 339 340 340 340 339 339 339 339 339 338 338 339 339 336 336 340 339 338 328 322 324 321 318 318 328 328 331 330 333 329 334 329 329 332 331
315 317 320 325 333 341 341 341 341 339 338 338 339 338 337 338 337 337 337 337 338 339 337 339 339 339 335 322 323 325 323 318 325 328 329 331 332 330 334 329 328 329 328
310 313 315 314 320 325 337 340 341 340 339 336 336 336 338 338 337 336 336 335 336 336 338 336 338 340 338 330 325 325 325 323 321 328 329 328 331 331 330 328 329 331 329
309 309 310 311 311 312 318 330 337 341 340 340 337 331 332 332 333 334 335 337 337 336 337 336 337 339 339 333 325 326 326 323 322 327 328 327 329 330 330 327 327 329 329
310 310 310 310 309 309 309 314 322 332 340 341 339 337 335 333 335 336 336 338 338 339 338 338 336 339 338 336 328 326 325 324 323 327 329 327 328 329 331 333 327 328 329
310 310 310 310 310 310 309 309 312 317 323 338 339 339 339 336 335 336 335 336 337 338 338 338 337 337 338 338 334 327 327 326 324 329 330 327 328 328 330 334 330 325 327
310 309 309 309 309 309 310 309 309 310 316 323 336 337 337 338 336 336 337 337 337 338 338 338 338 337 337 338 337 330 331 330 328 325 330 329 329 328 327 332 335 333 328
313 314 313 309 309 309 308 309 309 309 311 315 322 335 337 337 336 336 336 336 335 337 338 338 337 337 338 338 337 334 330 329 329 329 330 329 328 328 326 324 332 335 335
313 313 314 312 310 308 309 309 309 308 308 311 318 326 335 336 337 335 336 334 334 337 338 337 336 337 338 338 337 336 335 329 328 328 330 328 327 326 325 324 323 326 334
312 312 312 312 313 312 309 308 308 308 309 308 312 321 325 333 335 335 334 335 335 335 336 335 335 335 336 337 336 335 333 332 330 328 325 326 326 326 325 325 324 323 323
310 310 310 310 310 313 313 309 308 308 309 309 308 315 325 328 333 333 332 333 333 334 333 334 334 335 335 333 335 336 333 328 331 327 323 323 323 324 324 324 324 323 323
308 309 309 309 310 311 312 313 309 308 308 308 309 312 326 326 330 332 330 331 332 333 333 333 332 332 331 330 331 331 331 330 331 330 325 323 321 322 322 322 322 323 324
307 307 308 309 310 312 314 314 314 309 309 309 310 318 321 323 326 330 330 330 331 331 331 330 329 329 327 327 328 329 330 331 331 331 331 328 325 323 322 322 323 323 324
305 306 307 308 310 312 314 315 316 313 309 309 310 314 313 314 321 328 328 329 328 329 327 324 323 325 327 327 329 329 330 329 331 331 330 330 330 330 329 328 323 323 323
304 305 306 308 309 310 312 314 315 315 310 311 316 315 314 317 320 323 327 327 327 325 323 324 325 328 329 328 329 328 329 329 326 328 329 329 329 330 329 329 327 325 324
303 304 305 306 307 309 310 312 314 312 312 314 315 317 319 320 320 321 324 326 326 326 325 324 325 327 328 328 328 328 328 327 325 325 326 328 328 328 328 328 328 327 326
302 303 304 303 305 307 309 309 311 312 313 312 312 314 315 316 317 318 319 321 326 325 326 327 327 327 328 327 327 327 327 327 327 327 329 325 326 325 325 325 326 326 325
302 302 301 301 300 305 305 305 306 308 309 308 310 307 308 310 308 310 314 314 316 319 323 322 323 324 324 325 325 326 326 326 326 326 326 326 325 325 325 324 324 324 324